[[{"header":{"parameterUnit":"m.s-1","parameterCategory":1,"la1":30.6,"la2":28.766,"lo1":-90.7593,"lo2":-88.6598,"dy":0.0162,"dx":0.0183,"nx":116,"ny":114,"refTime":"2023-08-31T06:00:00:Z","depth":0,"parameterNumber":2,"parameterNumberName":"U-component_of_WINDS"},"data":[0.0,0.0,0.0,0.0,0.0,0.0,0.0,0.0,0.0,0.0,0.0,0.0,0.0,0.0,0.0,0.0,0.0,0.0,0.0,0.0,0.0,0.0,0.0,0.0,0.0,0.0,0.0,0.0,0.0,0.0,0.0,0.0,0.0,0.0,0.0,0.0,0.0,0.0,0.0,0.0,0.0,0.0,0.0,0.0,0.0,0.0,0.0,0.0,0.0,0.0,0.0,0.0,0.0,0.0,0.0,0.0,0.0,0.0,0.0,0.0,0.0,0.0,0.0,0.0,0.0,0.0,0.0,0.0,0.0,0.0,0.0,0.0,0.0,0.0,0.0,0.0,0.0,0.0,0.0,0.0,0.0,0.0,0.0,0.0,0.0,0.0,0.0,0.0,0.0,0.0,0.0,0.0,0.0,0.0,0.0,0.0,0.0,0.0,0.0,0.0,0.0,0.0,0.0,0.0,0.0,0.0,0.0,0.0,0.0,0.0,0.0,0.0,0.0,0.0,0.0,0.0,0.0,0.0,0.0,0.0,0.0,0.0,0.0,0.0,0.0,0.0,0.0,0.0,0.0,0.0,0.0,0.0,0.0,0.0,0.0,0.0,0.0,0.0,0.0,0.0,0.0,0.0,0.0,0.0,0.0,0.0,0.0,0.0,0.0,0.0,0.0,0.0,0.0,0.0,0.0,0.0,0.0,0.0,0.0,0.0,0.0,0.0,0.0,0.0,0.0,0.0,0.0,0.0,0.0,0.0,0.0,0.0,0.0,0.0,0.0,0.0,0.0,0.0,0.0,0.0,0.0,0.0,0.0,0.0,0.0,0.0,0.0,0.0,0.0,0.0,0.0,0.0,0.0,0.0,0.0,0.0,0.0,0.0,0.0,0.0,0.0,0.0,0.0,0.0,0.0,0.0,0.0,0.0,0.0,0.0,0.0,0.0,0.0,0.0,0.0,0.0,0.0,0.0,0.0,0.0,0.0,0.0,0.0,0.0,0.0,0.0,0.0,0.0,0.0,0.0,0.0,0.0,0.0,0.0,0.0,0.0,0.0,0.0,0.0,0.0,0.0,0.0,0.0,0.0,0.0,0.0,0.0,0.0,0.0,0.0,0.0,0.0,0.0,0.0,0.0,0.0,0.0,0.0,0.0,0.0,0.0,0.0,0.0,0.0,0.0,0.0,0.0,0.0,0.0,0.0,0.0,0.0,0.0,0.0,0.0,0.0,0.0,0.0,0.0,0.0,0.0,0.0,0.0,0.0,0.0,0.0,0.0,0.0,0.0,0.0,0.0,0.0,0.0,0.0,0.0,0.0,0.0,0.0,0.0,0.0,0.0,0.0,0.0,0.0,0.0,0.0,0.0,0.0,0.0,0.0,0.0,0.0,0.0,0.0,0.0,0.0,0.0,0.0,0.0,0.0,0.0,0.0,0.0,0.0,0.0,0.0,0.0,0.0,0.0,0.0,0.0,0.0,0.0,0.0,0.0,0.0,0.0,0.0,0.0,0.0,0.0,0.0,0.0,0.0,0.0,0.0,0.0,0.0,0.0,0.0,0.0,0.0,0.0,0.0,0.0,0.0,0.0,0.0,0.0,0.0,0.0,0.0,0.0,0.0,0.0,0.0,0.0,0.0,0.0,0.0,0.0,0.0,0.0,0.0,0.0,0.0,0.0,0.0,0.0,0.0,0.0,0.0,0.0,0.0,0.0,0.0,0.0,0.0,0.0,0.0,0.0,0.0,0.0,0.0,0.0,0.0,0.0,0.0,0.0,0.0,0.0,0.0,0.0,0.0,0.0,0.0,0.0,0.0,0.0,0.0,0.0,0.0,0.0,0.0,0.0,0.0,0.0,0.0,0.0,0.0,0.0,0.0,0.0,0.0,0.0,0.0,0.0,0.0,0.0,0.0,0.0,0.0,0.0,0.0,0.0,0.0,0.0,0.0,0.0,0.0,0.0,0.0,0.0,0.0,0.0,0.0,0.0,0.0,0.0,0.0,0.0,0.0,0.0,0.0,0.0,0.0,0.0,0.0,0.0,0.0,0.0,0.0,0.0,0.0,0.0,0.0,0.0,0.0,0.0,0.0,0.0,0.0,0.0,0.0,0.0,0.0,0.0,0.0,0.0,0.0,0.0,0.0,0.0,0.0,0.0,0.0,0.0,0.0,0.0,0.0,0.0,0.0,0.0,0.0,0.0,0.0,0.0,0.0,0.0,0.0,0.0,0.0,0.0,0.0,0.0,0.0,0.0,0.0,0.0,0.0,0.0,0.0,0.0,0.0,0.0,0.0,0.0,0.0,0.0,0.0,0.0,0.0,0.0,0.0,0.0,0.0,0.0,0.0,0.0,0.0,0.0,0.0,0.0,0.0,0.0,0.0,0.0,0.0,0.0,0.0,0.0,0.0,0.0,0.0,0.0,0.0,0.0,0.0,0.0,0.0,0.0,0.0,0.0,0.0,0.0,0.0,0.0,0.0,0.0,0.0,0.0,0.0,0.0,0.0,0.0,0.0,0.0,0.0,0.0,0.0,0.0,0.0,0.0,0.0,0.0,0.0,0.0,0.0,0.0,0.0,0.0,0.0,0.0,0.0,0.0,0.0,0.0,0.0,0.0,0.0,0.0,0.0,0.0,0.0,0.0,0.0,0.0,0.0,0.0,0.0,0.0,0.0,0.0,0.0,0.0,0.0,0.0,0.0,0.0,0.0,0.0,0.0,0.0,0.0,0.0,0.0,0.0,0.0,0.0,0.0,0.0,0.0,0.0,0.0,0.0,0.0,0.0,0.0,0.0,0.0,0.0,0.0,0.0,0.0,0.0,0.0,0.0,0.0,0.0,0.0,0.0,0.0,0.0,0.0,0.0,0.0,0.0,0.0,0.0,0.0,0.0,0.0,0.0,0.0,0.0,0.0,0.0,0.0,0.0,0.0,0.0,0.0,0.0,0.0,0.0,0.0,0.0,0.0,0.0,0.0,0.0,0.0,0.0,0.0,0.0,0.0,0.0,0.0,0.0,0.0,0.0,0.0,0.0,0.0,0.0,0.0,0.0,0.0,0.0,0.0,0.0,0.0,0.0,0.0,0.0,0.0,0.0,0.0,0.0,0.0,0.0,0.0,0.0,0.0,0.0,0.0,0.0,0.0,0.0,0.0,0.0,0.0,0.0,0.0,0.0,0.0,0.0,0.0,0.0,0.0,0.0,0.0,0.0,0.0,0.0,0.0,0.0,0.0,0.0,0.0,0.0,0.0,0.0,0.0,0.0,0.0,0.0,0.0,0.0,0.0,0.0,0.0,0.0,0.0,0.0,0.0,0.0,0.0,0.0,0.0,0.0,0.0,0.0,0.0,0.0,0.0,0.0,0.0,0.0,0.0,0.0,0.0,0.0,0.0,0.0,0.0,0.0,0.0,0.0,0.0,0.0,0.0,0.0,0.0,0.0,0.0,0.0,0.0,0.0,0.0,0.0,0.0,0.0,0.0,0.0,0.0,0.0,0.0,0.0,0.0,0.0,0.0,0.0,0.0,0.0,0.0,0.0,0.0,0.0,0.0,0.0,0.0,0.0,0.0,0.0,0.0,0.0,0.0,0.0,0.0,0.0,0.0,0.0,0.0,0.0,0.0,0.0,0.0,0.0,0.0,0.0,0.0,0.0,0.0,0.0,0.0,0.0,0.0,0.0,0.0,0.0,0.0,0.0,0.0,0.0,0.0,0.0,0.0,0.0,0.0,0.0,0.0,0.0,0.0,0.0,0.0,0.0,0.0,0.0,0.0,0.0,0.0,0.0,0.0,0.0,0.0,0.0,0.0,0.0,0.0,0.0,0.0,0.0,0.0,0.0,0.0,0.0,0.0,0.0,0.0,0.0,0.0,0.0,0.0,0.0,0.0,0.0,0.0,0.0,0.0,0.0,0.0,0.0,0.0,0.0,0.0,0.0,0.0,0.0,0.0,0.0,0.0,0.0,0.0,0.0,0.0,0.0,0.0,0.0,0.0,0.0,0.0,0.0,0.0,0.0,0.0,0.0,0.0,0.0,0.0,0.0,0.0,0.0,0.0,0.0,0.0,0.0,0.0,0.0,0.0,0.0,0.0,0.0,0.0,0.0,0.0,0.0,0.0,0.0,0.0,0.0,0.0,0.0,0.0,0.0,0.0,0.0,0.0,0.0,0.0,0.0,0.0,0.0,0.0,0.0,0.0,0.0,0.0,0.0,0.0,0.0,0.0,0.0,0.0,0.0,0.0,0.0,0.0,0.0,0.0,0.0,0.0,0.0,0.0,0.0,0.0,0.0,0.0,0.0,0.0,0.0,0.0,0.0,0.0,0.0,0.0,0.0,0.0,0.0,0.0,0.0,0.0,0.0,0.0,0.0,0.0,0.0,0.0,0.0,0.0,0.0,0.0,0.0,0.0,0.0,0.0,0.0,0.0,0.0,0.0,0.0,0.0,0.0,0.0,0.0,0.0,0.0,0.0,0.0,0.0,0.0,0.0,0.0,0.0,0.0,0.0,0.0,0.0,0.0,0.0,0.0,0.0,0.0,0.0,0.0,0.0,0.0,0.0,0.0,0.0,0.0,0.0,0.0,0.0,0.0,0.0,0.0,0.0,0.0,0.0,0.0,0.0,0.0,0.0,0.0,0.0,0.0,0.0,0.0,0.0,0.0,0.0,0.0,0.0,0.0,0.0,0.0,0.0,0.0,0.0,0.0,0.0,0.0,0.0,0.0,0.0,0.0,0.0,0.0,0.0,0.0,0.0,0.0,0.0,0.0,0.0,0.0,0.0,0.0,0.0,0.0,0.0,0.0,0.0,0.0,0.0,0.0,0.0,0.0,0.0,0.0,0.0,0.0,0.0,0.0,0.0,0.0,0.0,0.0,0.0,0.0,0.0,0.0,0.0,0.0,0.0,0.0,0.0,0.0,0.0,0.0,0.0,0.0,0.0,0.0,0.0,0.0,0.0,0.0,0.0,0.0,0.0,0.0,0.0,0.0,0.0,0.0,0.0,0.0,0.0,0.0,0.0,0.0,0.0,0.0,0.0,0.0,0.0,0.0,0.0,0.0,0.0,0.0,0.0,0.0,0.0,0.0,0.0,0.0,0.0,0.0,0.0,0.0,0.0,0.0,0.0,0.0,0.0,0.0,0.0,0.0,0.0,0.0,0.0,0.0,0.0,0.0,0.0,0.0,0.0,0.0,0.0,0.0,0.0,0.0,0.0,0.0,0.0,0.0,0.0,0.0,0.0,0.0,0.0,0.0,0.0,0.0,0.0,0.0,0.0,0.0,0.0,0.0,0.0,0.0,0.0,0.0,0.0,0.0,0.0,0.0,0.0,0.0,0.0,0.0,0.0,0.0,0.0,0.0,0.0,0.0,0.0,0.0,0.0,0.0,0.0,0.0,0.0,0.0,0.0,0.0,0.0,0.0,0.0,0.0,0.0,0.0,0.0,0.0,0.0,0.0,0.0,0.0,0.0,0.0,0.0,0.0,0.0,0.0,0.0,0.0,0.0,0.0,0.0,0.0,0.0,0.0,0.0,0.0,0.0,0.0,0.0,0.0,0.0,0.0,0.0,0.0,0.0,0.0,0.0,0.0,0.0,0.0,0.0,0.0,0.0,0.0,0.0,0.0,0.0,0.0,0.0,0.0,0.0,0.0,0.0,0.0,0.0,0.0,0.0,0.0,0.0,0.0,0.0,0.0,0.0,0.0,0.0,0.0,0.0,0.0,0.0,0.0,0.0,0.0,0.0,0.0,0.0,0.0,0.0,0.0,0.0,0.0,0.0,0.0,0.0,0.0,0.0,0.0,0.0,0.0,0.0,0.0,0.0,0.0,0.0,0.0,0.0,0.0,0.0,0.0,0.0,0.0,0.0,0.0,0.0,0.0,0.0,0.0,0.0,0.0,0.0,0.0,0.0,0.0,0.0,0.0,0.0,0.0,0.0,0.0,0.0,0.0,0.0,0.0,0.0,0.0,0.0,0.0,0.0,0.0,0.0,0.0,0.0,0.0,0.0,0.0,0.0,0.0,0.0,0.0,0.0,0.0,0.0,0.0,0.0,0.0,0.0,0.0,0.0,0.0,0.0,0.0,0.0,0.0,0.0,0.0,0.0,0.0,0.0,-3.188,0.0,0.0,0.0,0.0,0.0,0.0,0.0,0.0,0.0,0.0,0.0,0.0,0.0,0.0,0.0,0.0,0.0,0.0,0.0,0.0,0.0,0.0,0.0,0.0,0.0,0.0,0.0,0.0,0.0,0.0,0.0,0.0,0.0,0.0,0.0,0.0,0.0,0.0,0.0,-2.6262,-2.6583,-2.73,-2.7299,-2.7629,-2.8342,0.0,0.0,0.0,0.0,0.0,0.0,0.0,0.0,0.0,0.0,0.0,0.0,0.0,0.0,0.0,0.0,0.0,0.0,0.0,0.0,0.0,0.0,0.0,0.0,0.0,0.0,0.0,0.0,0.0,0.0,0.0,0.0,0.0,0.0,0.0,0.0,0.0,0.0,0.0,0.0,0.0,0.0,0.0,0.0,0.0,0.0,0.0,0.0,0.0,0.0,0.0,0.0,0.0,0.0,0.0,0.0,0.0,0.0,0.0,0.0,0.0,0.0,0.0,0.0,0.0,0.0,0.0,0.0,0.0,0.0,0.0,-3.1782,0.0,0.0,0.0,0.0,0.0,0.0,0.0,0.0,0.0,0.0,0.0,0.0,0.0,0.0,0.0,0.0,0.0,0.0,0.0,0.0,0.0,0.0,0.0,-3.183,-3.172,-3.105,-3.139,-3.1574,0.0,0.0,0.0,0.0,0.0,0.0,0.0,-2.6703,-2.6848,-2.6931,-2.6848,-2.7009,-2.7309,-2.7726,-2.8081,-2.8445,-2.8631,0.0,0.0,0.0,0.0,0.0,0.0,0.0,0.0,0.0,0.0,0.0,0.0,0.0,0.0,0.0,0.0,0.0,0.0,0.0,0.0,0.0,0.0,0.0,0.0,0.0,0.0,0.0,0.0,0.0,0.0,0.0,0.0,0.0,0.0,0.0,0.0,0.0,0.0,0.0,0.0,0.0,0.0,0.0,0.0,0.0,0.0,0.0,0.0,0.0,0.0,0.0,0.0,0.0,0.0,0.0,0.0,0.0,0.0,0.0,0.0,0.0,0.0,0.0,-3.3124,-3.3124,-3.3124,-3.3124,-3.3124,-3.3074,-3.2089,-3.1938,-3.2328,-3.1876,0.0,0.0,0.0,0.0,0.0,0.0,0.0,0.0,0.0,0.0,0.0,0.0,0.0,0.0,0.0,0.0,0.0,0.0,0.0,0.0,0.0,-3.148,-3.1442,-3.1326,-3.1389,-3.1427,-3.1386,0.0,0.0,0.0,0.0,0.0,-2.8761,-2.8082,-2.7945,-2.8338,-2.7945,-2.7572,-2.7309,-2.7347,-2.7441,-2.7536,-2.8362,-2.8456,-2.7998,0.0,0.0,0.0,0.0,0.0,0.0,0.0,0.0,0.0,0.0,0.0,0.0,0.0,0.0,0.0,0.0,0.0,0.0,0.0,0.0,0.0,0.0,0.0,0.0,0.0,0.0,0.0,0.0,0.0,0.0,0.0,0.0,0.0,0.0,0.0,0.0,0.0,0.0,0.0,0.0,0.0,-3.5349,-3.513,0.0,0.0,0.0,0.0,0.0,0.0,0.0,0.0,0.0,0.0,0.0,0.0,0.0,-3.3124,-3.3124,-3.3124,-3.3124,-3.3124,-3.3124,-3.3124,-3.3124,-3.3124,-3.3124,-3.3111,-3.296,0.0,-3.2998,-3.2923,0.0,0.0,0.0,0.0,0.0,0.0,0.0,0.0,0.0,0.0,0.0,0.0,0.0,0.0,0.0,0.0,0.0,0.0,0.0,0.0,0.0,-3.1675,-3.1851,-3.1851,-3.2152,-3.2117,-3.154,-3.1736,0.0,0.0,0.0,-2.9759,-2.8877,-2.8765,-2.8545,-2.8224,-2.7769,-2.7448,-2.7309,-2.7309,-2.7309,-2.7309,-2.7715,-2.7809,-2.7631,-2.7631,0.0,0.0,0.0,0.0,0.0,0.0,0.0,0.0,0.0,0.0,0.0,0.0,0.0,0.0,0.0,0.0,0.0,0.0,0.0,0.0,0.0,0.0,0.0,0.0,0.0,0.0,0.0,0.0,0.0,0.0,0.0,0.0,0.0,0.0,0.0,0.0,0.0,0.0,0.0,-3.6016,-3.5784,-3.5878,-3.5344,-3.5019,0.0,0.0,0.0,0.0,0.0,0.0,0.0,0.0,0.0,-3.3124,-3.3124,-3.3219,-3.3533,-3.3533,-3.3696,-3.3997,-3.3997,-3.3997,-3.3997,-3.3997,-3.3997,-3.3985,-3.3671,-3.3533,-3.352,-3.3206,-3.3124,-3.3124,0.0,0.0,0.0,0.0,-3.3124,-3.3124,0.0,0.0,0.0,0.0,0.0,0.0,0.0,0.0,0.0,0.0,0.0,0.0,-3.1599,-3.1964,-3.2215,-3.2215,-3.2478,-3.2393,-3.1814,-3.2249,-3.1732,-2.9991,-3.076,-3.0506,-2.897,-2.9187,-2.8907,-2.81,-2.7645,-2.7413,-2.7309,-2.7309,-2.7309,-2.7309,-2.7309,-2.7309,-2.7309,-2.7309,-2.7309,-2.7309,0.0,0.0,0.0,0.0,0.0,0.0,0.0,0.0,0.0,0.0,0.0,0.0,0.0,0.0,0.0,0.0,0.0,0.0,0.0,0.0,0.0,0.0,0.0,0.0,0.0,0.0,0.0,0.0,0.0,0.0,0.0,0.0,0.0,0.0,0.0,0.0,0.0,-3.5839,-3.5742,-3.5862,-3.5313,-3.4972,0.0,0.0,0.0,0.0,0.0,0.0,-3.3608,-3.332,-3.3246,-3.3521,-3.3427,-3.3608,-3.4009,-3.4066,-3.4324,-3.468,-3.468,-3.468,-3.468,-3.468,-3.468,-3.47,-3.4286,-3.411,-3.406,-3.337,-3.3124,-3.3124,-3.3124,-3.3124,-3.3124,-3.3124,-3.3124,-3.3124,0.0,0.0,0.0,0.0,0.0,0.0,0.0,0.0,0.0,0.0,0.0,-3.2177,-3.2177,-3.219,-3.2215,-3.2215,-3.1763,-3.17,-3.2131,-3.2707,-3.2564,-3.1439,-3.2011,-3.1584,-2.9964,-2.9518,-2.9063,-2.8576,-2.8121,-2.7676,-2.7309,-2.7309,-2.7309,-2.7309,-2.7309,-2.7309,-2.7309,-2.7309,-2.7309,-2.7309,-2.7309,0.0,0.0,0.0,0.0,0.0,0.0,0.0,0.0,0.0,0.0,0.0,0.0,0.0,0.0,0.0,0.0,0.0,0.0,0.0,0.0,0.0,0.0,0.0,0.0,0.0,0.0,0.0,0.0,0.0,0.0,0.0,0.0,0.0,0.0,0.0,0.0,0.0,0.0,-3.4442,-3.4206,0.0,0.0,0.0,0.0,-3.3285,-3.3211,-3.342,-3.3937,-3.3502,-3.3617,-3.4578,-3.4341,-3.4231,-3.4301,-3.454,-3.4655,-3.468,-3.468,-3.468,-3.468,-3.468,-3.468,-3.468,-3.4688,-3.4675,-3.46,-3.352,-3.3124,-3.3124,-3.3124,-3.3124,-3.3124,-3.3124,-3.3124,-3.3124,0.0,0.0,0.0,0.0,0.0,0.0,0.0,0.0,-3.1687,-3.1687,-3.1386,-3.1311,-3.165,-3.1687,-3.1687,-3.1687,-3.1825,-3.1751,-3.1345,-3.1771,-3.1623,-3.063,-3.078,-3.0436,-2.9559,-2.9094,-2.8628,-2.8173,-2.7717,-2.7417,-2.7309,-2.7309,-2.7309,-2.7309,-2.7309,-2.7309,-2.7309,-2.7309,-2.7309,-2.7309,-2.7309,-2.7309,0.0,0.0,0.0,0.0,0.0,0.0,0.0,0.0,0.0,0.0,0.0,0.0,0.0,0.0,0.0,0.0,0.0,0.0,0.0,0.0,0.0,0.0,0.0,0.0,0.0,0.0,0.0,0.0,0.0,0.0,0.0,0.0,0.0,0.0,0.0,0.0,0.0,-3.4089,-3.3882,0.0,-3.4102,-3.4213,-3.4196,-3.3966,-3.3954,-3.4086,-3.4222,-3.3919,-3.3887,-3.4222,-3.4142,-3.425,-3.4607,-3.4712,-3.4932,-3.5278,-3.5466,-3.5525,-3.5559,-3.5734,-3.5768,-3.5755,-3.5403,-3.5207,-3.5144,-3.4449,-3.3922,-3.3571,-3.3219,-3.3124,-3.3124,-3.3124,-3.3124,-3.3124,0.0,0.0,0.0,0.0,0.0,0.0,0.0,0.0,-3.1386,-3.1386,-3.0934,-3.0809,-3.1336,-3.1235,-3.1135,-3.1135,-3.1461,-3.1448,-3.1034,-3.1494,-3.1407,-3.0592,-3.0045,-2.9622,-2.9311,-2.87,-2.8235,-2.7924,-2.7479,-2.7309,-2.7309,-2.7309,-2.7309,-2.7309,-2.7309,-2.7309,-2.7309,-2.7309,-2.7309,-2.7309,-2.7309,-2.7309,-2.7309,0.0,0.0,0.0,0.0,0.0,0.0,0.0,0.0,0.0,0.0,0.0,0.0,0.0,0.0,0.0,0.0,0.0,0.0,0.0,0.0,0.0,0.0,0.0,0.0,0.0,0.0,0.0,0.0,0.0,0.0,0.0,0.0,0.0,0.0,0.0,-3.3839,-3.4185,-3.3932,-3.3851,-3.4096,-3.4214,-3.4206,-3.4037,-3.4025,-3.4182,-3.4533,-3.419,-3.4161,-3.4527,-3.445,-3.4583,-3.4938,-3.5032,-3.5264,-3.562,-3.5764,-3.5872,-3.5872,-3.6038,-3.6133,-3.6108,-3.57,-3.5597,-3.5653,-3.5103,-3.4698,-3.4387,-3.3546,-3.3201,-3.3081,-3.2995,-3.3025,-3.3081,0.0,0.0,0.0,0.0,0.0,0.0,0.0,-3.1738,-3.1386,-3.1361,-3.0909,-3.0783,-3.1311,-3.0896,-3.0595,-3.0595,-3.0608,-3.0834,-3.1348,-3.1923,-3.1981,-3.1449,-3.0067,-2.927,-2.9259,-2.838,-2.7865,-2.7903,-2.7469,-2.7309,-2.7309,-2.7309,-2.7309,-2.7309,-2.7309,-2.7309,-2.7309,-2.7309,-2.7309,-2.7309,-2.7309,-2.7309,-2.7309,0.0,0.0,0.0,0.0,0.0,0.0,0.0,0.0,0.0,0.0,0.0,0.0,0.0,0.0,0.0,0.0,0.0,0.0,0.0,0.0,0.0,0.0,0.0,0.0,0.0,0.0,0.0,0.0,0.0,0.0,0.0,0.0,0.0,-3.4326,-3.4172,-3.4148,-3.4607,-3.4255,-3.4089,-3.4373,-3.4161,-3.3838,-3.3404,-3.3356,-3.3801,-3.4751,-3.4306,-3.4486,-3.5557,-3.5344,-3.5175,-3.5175,-3.5476,-3.5572,-3.5572,-3.5572,-3.5572,-3.5572,-3.562,-3.562,-3.562,-3.562,-3.5764,-3.593,-3.5444,-3.5301,-3.5349,-3.4023,-3.3377,-3.3131,-3.286,-3.289,-3.3063,0.0,0.0,0.0,0.0,0.0,0.0,0.0,-3.1486,-3.1248,-3.0871,-3.0357,-3.0218,-3.0771,-3.0344,-3.0018,-3.0018,-3.0382,-3.0834,-3.1348,-3.0926,-3.0245,-2.9437,-2.9021,-2.8649,-2.8307,-2.8059,-2.7769,-2.7438,-2.7372,-2.7309,-2.7309,-2.7309,-2.7309,-2.7309,-2.7309,-2.7309,-2.7309,-2.7309,-2.7309,-2.7309,-2.7309,-2.7309,-2.7309,0.0,0.0,0.0,0.0,0.0,0.0,0.0,0.0,0.0,0.0,0.0,0.0,0.0,0.0,0.0,0.0,0.0,0.0,0.0,0.0,0.0,0.0,0.0,0.0,0.0,0.0,0.0,0.0,0.0,0.0,0.0,0.0,-3.4475,-3.4137,-3.3729,-3.3535,-3.3675,-3.386,-3.4042,-3.4089,-3.4739,-3.5124,-3.4992,-3.498,-3.51,-3.5388,-3.4847,-3.4691,-3.504,-3.4956,-3.4932,-3.4932,-3.4969,-3.503,-3.503,-3.5223,-3.532,-3.532,-3.5524,-3.562,-3.562,-3.562,-3.562,-3.5704,-3.5556,-3.5308,-3.4922,-3.4309,-3.4028,-3.3948,-3.3724,-3.3444,-3.3155,0.0,0.0,0.0,0.0,0.0,0.0,0.0,-3.1386,-3.1122,-3.0369,-2.9993,-2.9917,-3.0231,-2.998,-2.9792,-2.9792,-3.0495,-3.1072,-3.1373,-3.0565,-2.973,-2.8964,-2.8387,-2.7875,-2.7462,-2.7462,-2.7387,-2.7129,-2.7129,-2.7167,-2.7309,-2.7177,-2.7129,-2.7129,-2.7023,-2.6976,-2.6976,-2.6976,-2.6976,-2.6976,-2.6976,-2.7119,-2.7309,-2.7309,-2.7309,-2.7309,-2.7177,-2.7129,-2.7129,-2.7023,0.0,0.0,0.0,0.0,0.0,0.0,0.0,0.0,0.0,0.0,0.0,0.0,0.0,0.0,0.0,0.0,0.0,0.0,0.0,0.0,0.0,0.0,0.0,0.0,-3.4775,-3.4667,-3.4366,-3.4114,-3.4018,-3.4234,-3.4523,-3.4655,-3.4655,-3.5256,-3.5521,-3.5304,-3.528,-3.528,-3.528,-3.4943,-3.4775,-3.4775,-3.4775,-3.4775,-3.4775,-3.4775,-3.4775,-3.4775,-3.4981,-3.503,-3.503,-3.5175,-3.5271,-3.5271,-3.5271,-3.532,-3.5428,-3.5428,-3.5293,0.0,0.0,0.0,0.0,0.0,-3.371,-3.335,0.0,0.0,0.0,0.0,0.0,0.0,0.0,-3.1386,-3.0997,-2.993,-2.9792,-2.9792,-2.9792,-2.9792,-2.9792,-2.9792,-3.0721,-3.1283,-3.1263,-3.0517,-2.9806,-2.9147,-2.7836,-2.6995,-2.6771,-2.6781,-2.6802,-2.6853,-2.6853,-2.6986,-2.7214,-2.6986,-2.6853,-2.6853,-2.6602,-2.6496,-2.6496,-2.6496,-2.6496,-2.6496,-2.6496,-2.6784,-2.7214,-2.7214,-2.7214,-2.7167,-2.6938,-2.6853,-2.6805,-2.6602,0.0,0.0,0.0,0.0,0.0,0.0,0.0,0.0,0.0,0.0,0.0,0.0,0.0,0.0,0.0,0.0,0.0,0.0,0.0,0.0,0.0,0.0,0.0,0.0,-3.4775,-3.4775,-3.4775,-3.4775,-3.5004,-3.5473,-3.5533,-3.5533,-3.5533,-3.5533,-3.5328,-3.4859,-3.4775,-3.4775,-3.4775,0.0,0.0,0.0,0.0,-3.4775,-3.4775,-3.4775,-3.4775,-3.4775,-3.4775,-3.4775,-3.4775,-3.4775,-3.4775,-3.4775,-3.4775,-3.4932,-3.5175,-3.5175,-3.5271,-3.5415,-3.4748,-3.432,-3.409,-3.409,-3.3915,-3.3623,0.0,0.0,0.0,0.0,0.0,0.0,0.0,-3.1386,-3.0997,-2.993,-2.9792,-2.9792,-2.9792,-2.9792,-2.9792,-2.9792,-3.0394,-3.0611,-3.0276,-2.9883,-2.8969,-2.7439,-2.6434,-2.5982,-2.6,-2.6,-2.6192,-2.6602,-2.6602,-2.6592,-2.664,-2.6592,-2.6602,-2.6602,-2.6496,-2.6496,-2.6496,-2.6496,-2.6496,-2.6496,-2.6496,-2.6544,-2.664,-2.664,-2.664,-2.664,-2.6602,-2.6602,-2.6554,-2.6496,-2.6352,-2.6197,-2.6197,0.0,0.0,0.0,0.0,0.0,0.0,0.0,0.0,0.0,0.0,0.0,0.0,0.0,0.0,0.0,0.0,0.0,0.0,0.0,0.0,-3.4775,-3.4775,-3.4775,-3.4775,-3.4775,-3.4823,-3.4919,-3.4931,-3.4931,-3.4931,-3.4931,-3.4895,-3.4787,-3.4775,-3.4775,-3.4775,-3.4775,-3.4775,-3.4775,-3.4775,-3.4775,-3.4775,-3.4775,-3.4775,-3.4775,0.0,0.0,-3.4775,-3.4775,-3.4775,-3.4775,-3.4775,-3.4835,-3.4884,-3.4884,-3.4932,-3.4969,-3.5017,-3.486,-3.4679,-3.4679,-3.4354,-3.3933,0.0,0.0,0.0,0.0,0.0,0.0,0.0,-3.1358,-3.0957,-2.9749,-2.9702,-2.9753,-2.9599,-2.9599,-2.965,-2.9792,-3.0294,-3.0633,-3.0692,-2.9477,-2.8336,-2.7496,-2.6043,-2.5285,-2.5434,-2.5571,-2.5854,-2.6294,-2.6294,-2.6352,-2.6496,-2.6352,-2.6294,-2.6294,-2.6169,-2.612,-2.612,-2.612,-2.612,-2.612,-2.612,-2.612,-2.612,-2.64,-2.6496,-2.6496,-2.6352,-2.6294,-2.6304,-2.6159,-2.6014,-2.5956,-2.6173,-2.6447,-2.6787,0.0,0.0,0.0,0.0,0.0,0.0,0.0,0.0,0.0,0.0,0.0,0.0,0.0,0.0,-3.4775,0.0,0.0,-3.4775,-3.4775,-3.4775,-3.4775,-3.4775,-3.4775,-3.4775,-3.4775,-3.4775,-3.4775,-3.4775,-3.4775,-3.4775,-3.4775,-3.4775,-3.4775,-3.4775,-3.4775,-3.4775,-3.4775,-3.4775,-3.4775,-3.4775,-3.4775,-3.4775,-3.4775,-3.4775,-3.4775,-3.4775,-3.4775,-3.4775,-3.4775,-3.4775,-3.4775,-3.4775,-3.4775,-3.4775,-3.4823,-3.4932,-3.4932,-3.4775,-3.4775,-3.4619,-3.439,0.0,0.0,0.0,0.0,0.0,0.0,0.0,-3.1044,-3.0751,-2.9555,-2.956,-2.9611,-2.9419,-2.9419,-2.952,-2.9852,-3.0278,-3.0716,-3.117,-2.929,-2.8094,-2.7949,-2.5969,-2.4941,-2.5098,-2.5239,-2.5498,-2.5924,-2.5964,-2.6149,-2.6352,-2.611,-2.6004,-2.6004,-2.5781,-2.5693,-2.5693,-2.5693,-2.5693,-2.5693,-2.5693,-2.5693,-2.5732,-2.6169,-2.6352,-2.6304,-2.61,-2.6004,-2.6004,-2.5781,-2.5742,-2.5879,-2.6279,-2.6738,-2.7207,-2.7568,-2.7959,0.0,0.0,0.0,0.0,0.0,0.0,0.0,0.0,0.0,-3.1575,-3.1575,-3.3312,-3.4775,-3.4775,-3.4775,-3.4775,-3.4775,-3.4775,-3.4775,-3.4775,-3.4775,-3.4775,-3.4775,-3.4775,-3.4775,-3.4775,-3.4775,-3.4775,-3.4775,-3.4775,-3.4775,-3.4775,-3.4775,-3.4775,-3.4775,-3.4775,-3.4775,-3.4775,-3.4775,-3.4775,-3.4775,-3.4775,-3.4775,-3.4775,-3.4775,-3.4775,-3.4775,-3.4775,-3.4775,-3.4775,-3.4775,-3.4775,-3.4775,-3.4775,-3.4775,-3.4775,-3.4775,-3.4775,-3.4775,0.0,0.0,0.0,0.0,0.0,0.0,0.0,0.0,-3.0179,-2.9493,-2.9275,-2.9236,-2.938,-2.9419,-2.9617,-3.0179,-3.0318,-3.0341,-3.0431,-2.9304,-2.8398,-2.7835,-2.5906,-2.4918,-2.5101,-2.4715,-2.4754,-2.5232,-2.5585,-2.5781,-2.5781,-2.5781,-2.5732,-2.5732,-2.5684,-2.5693,-2.5693,-2.5693,-2.5693,-2.5693,-2.5693,-2.5693,-2.5693,-2.5791,-2.5781,-2.5791,-2.5781,-2.5732,-2.5732,-2.5684,-2.5996,-2.6328,-2.6367,-2.6943,-2.765,-2.7708,0.0,-2.8291,-2.8291,-2.8291,-2.8291,-2.8291,-2.8291,-2.8291,0.0,0.0,-3.1575,-3.1575,-3.3312,-3.4775,-3.4775,-3.4775,-3.4775,-3.4775,-3.4775,-3.4775,-3.4775,-3.4775,-3.4775,-3.4775,-3.4775,-3.4775,-3.4775,-3.4775,-3.4775,-3.4775,-3.4775,-3.4775,-3.4775,-3.4775,-3.4775,-3.4775,-3.4775,-3.4775,-3.4775,-3.4775,-3.4775,-3.4775,-3.4775,-3.4775,-3.4775,-3.4775,-3.4775,-3.4775,-3.4775,-3.4775,-3.4775,-3.4775,-3.4775,-3.4775,-3.4775,-3.4775,-3.4775,-3.4775,-3.4775,-3.4775,0.0,0.0,0.0,0.0,0.0,0.0,0.0,0.0,0.0,-2.914,-2.9079,-2.9091,-2.9067,-2.9157,-2.9335,-2.9569,-2.97,-2.9779,-2.9779,-2.8879,-2.8208,-2.781,-2.6412,-2.5774,-2.6055,-2.5788,-2.5972,-2.6748,-2.69,-2.7129,-2.7437,-2.7437,-2.7115,-2.6552,-2.6552,-2.6235,-2.5693,-2.5693,-2.5693,-2.5693,-2.5693,-2.5693,-2.5693,-2.5693,-2.5693,-2.5693,-2.5693,-2.5908,0.0,0.0,-2.6191,-2.6758,-2.6758,-2.7178,-2.7767,-2.7959,-2.8154,0.0,-2.8291,-2.8291,0.0,0.0,-2.8291,-2.8441,-2.9112,-3.0442,-3.1779,-3.2387,-3.3758,-3.4775,-3.4775,-3.4775,-3.4775,0.0,-3.4775,-3.4775,-3.4775,-3.4775,-3.4775,-3.4775,-3.4775,-3.4775,-3.4775,-3.4775,-3.4775,-3.4775,-3.4775,-3.4775,-3.4775,-3.4775,-3.4775,-3.4775,-3.4775,-3.4775,-3.4775,-3.4775,-3.4775,-3.4775,-3.4775,-3.4775,-3.4775,-3.4775,-3.4775,-3.4775,-3.4775,-3.4775,-3.4775,-3.4775,-3.4775,-3.4775,-3.4775,-3.4775,-3.4775,-3.4775,-3.4775,-3.4775,0.0,0.0,0.0,0.0,0.0,0.0,0.0,0.0,0.0,0.0,-2.8882,-2.8895,-2.8803,-2.8922,-2.9013,-2.9013,-2.9197,-2.9302,-2.9223,-2.8712,-2.8303,-2.8091,-2.7121,-2.6673,-2.6905,-2.6656,-2.6846,-2.7533,-2.7608,-2.7969,-2.8484,-2.8484,-2.8179,-2.7605,-2.7605,-2.72,-2.6524,-2.6524,-2.638,-2.61,-2.61,-2.5965,-2.5693,-2.5693,-2.5693,-2.5693,-2.5693,-2.6016,-2.6338,0.0,-2.6484,-2.7197,-2.7197,-2.749,-2.79,-2.8203,-2.8291,-2.8291,-2.8291,0.0,0.0,-2.8291,-2.8291,-2.8601,-2.967,-3.0805,-3.188,-3.3001,-3.4066,-3.4775,-3.4775,-3.4775,-3.4775,-3.4775,-3.4775,-3.4775,-3.4775,-3.4775,-3.4775,-3.4775,-3.4775,-3.4775,-3.4775,-3.4775,-3.4775,-3.4775,-3.4775,-3.4775,-3.4775,-3.4775,-3.4775,-3.4775,-3.4775,-3.4775,-3.4775,-3.4775,-3.4775,-3.4775,-3.4775,-3.4775,-3.4775,-3.4775,-3.4775,-3.4775,-3.4775,-3.4775,-3.4775,-3.4775,-3.4775,-3.4775,-3.4775,-3.4775,-3.4775,-3.4775,-3.4775,-3.4775,0.0,0.0,0.0,0.0,0.0,0.0,0.0,0.0,0.0,0.0,0.0,0.0,0.0,-2.8803,-2.8791,-2.8791,-2.9,-2.9013,-2.8843,-2.8961,-2.8961,-2.8803,-2.7931,-2.7366,-2.7208,-2.6745,-2.6519,-2.6551,-2.6922,-2.7378,-2.7936,-2.7936,-2.8187,-2.8634,-2.8634,-2.8634,-2.8634,-2.8634,-2.8028,-2.7142,-2.7142,-2.6552,-2.5693,-2.5693,-2.5693,-2.5693,-2.5693,-2.6016,-2.6387,0.0,-2.6943,-2.7699,-2.7699,-2.7939,0.0,-2.8291,-2.8291,-2.8291,-2.8291,-2.8291,-2.8291,-2.8291,-2.8291,-2.8601,-2.967,-3.0805,-3.188,-3.3001,-3.4066,-3.4775,-3.4775,-3.4775,-3.4775,-3.4775,-3.4775,-3.4775,-3.4775,-3.4775,-3.4775,-3.4775,-3.4775,-3.4775,0.0,-3.4775,-3.4775,-3.4775,-3.4775,-3.4775,-3.4775,-3.4775,-3.4775,-3.4775,-3.4775,-3.4775,-3.4775,-3.4775,-3.4775,-3.4775,-3.4775,-3.4775,-3.4775,-3.4775,-3.4775,-3.4775,-3.4775,-3.4775,-3.4775,-3.4775,-3.4775,-3.4775,-3.4775,-3.4775,-3.4775,-3.4775,-3.4775,-3.4775,0.0,0.0,0.0,0.0,0.0,0.0,0.0,0.0,0.0,0.0,0.0,0.0,0.0,0.0,0.0,0.0,-2.8882,-2.8882,-2.8791,-2.8882,-2.8803,-2.8618,-2.8327,-2.8127,-2.8047,-2.7929,-2.8011,-2.8349,-2.8482,-2.8819,-2.9374,-2.9712,-2.9648,-2.9184,-2.9557,-2.9326,-2.868,-2.868,-2.8495,-2.8215,-2.8215,-2.7615,-2.6686,-2.6686,-2.6284,-2.5693,0.0,-2.6152,-2.6768,0.0,0.0,0.0,-2.7806,-2.7959,-2.8291,-2.8077,-2.8184,-2.8237,-2.8067,-2.8184,-2.8291,-2.8291,-2.8291,-2.8751,-3.0598,-3.1319,-3.2083,-3.3906,-3.4568,-3.4775,-3.4775,-3.4775,-3.4775,-3.4775,-3.4775,-3.4775,-3.4775,-3.4775,-3.4775,-3.4775,-3.4775,0.0,0.0,0.0,0.0,-3.4775,-3.4775,-3.498,-3.5328,-3.5352,-3.5509,-3.5857,-3.5533,-3.5352,-3.5352,-3.5004,-3.4775,-3.4775,-3.4775,-3.4775,-3.4775,-3.4775,-3.4775,-3.4775,-3.4775,-3.4775,-3.4775,-3.4775,-3.4775,-3.4775,-3.4775,-3.4775,-3.4775,-3.4775,-3.4775,-3.4775,0.0,0.0,0.0,0.0,0.0,0.0,0.0,0.0,0.0,0.0,0.0,0.0,0.0,0.0,0.0,0.0,0.0,-2.8764,-2.8685,-2.8843,-2.8776,-2.851,-2.863,-2.8657,-2.8618,-2.8618,-2.8787,-2.9125,-2.9056,-2.9292,-2.9809,-3.0158,-3.0195,-2.9931,-3.0302,-3.0189,-2.9749,-2.9749,-2.9555,-2.9235,-2.9235,-2.8623,-2.7699,-2.7332,-2.6781,0.0,-2.583,-2.6191,-2.6768,0.0,-2.7256,-2.8047,-2.793,-2.8076,-2.8237,-2.796,-2.8077,-2.8237,-2.8077,-2.8184,-2.8291,-2.8291,-2.8601,-2.9365,-3.1165,-3.188,-3.2689,-3.4421,-3.4775,-3.4775,-3.4775,-3.4775,-3.4775,-3.4775,-3.4775,-3.4775,-3.4775,-3.4775,-3.4775,-3.4775,-3.4775,-3.4775,0.0,0.0,0.0,-3.4775,-3.5004,-3.5256,-3.5605,-3.5797,-3.605,-3.6398,-3.6074,-3.5809,-3.5617,-3.528,-3.4967,-3.4775,-3.4775,-3.4775,-3.4775,-3.4775,-3.4775,-3.4775,-3.4775,-3.4775,-3.4775,-3.4775,-3.4775,-3.4775,-3.4775,-3.4775,-3.4775,-3.4775,-3.458,-3.4274,0.0,0.0,0.0,0.0,0.0,0.0,0.0,0.0,0.0,0.0,0.0,0.0,0.0,0.0,0.0,0.0,0.0,0.0,-2.851,-2.8855,-2.8895,-2.851,-2.8867,-2.9,-2.8803,-2.8803,-2.8791,-2.8791,-2.8618,-2.8763,-2.9297,-2.928,-2.9833,-3.0838,-3.0862,-3.1175,-3.1669,-3.1669,-3.1125,-3.026,-3.026,-2.9658,-2.868,-2.7699,-2.7284,-2.7094,-2.61,-2.6055,-2.6426,0.0,-2.7275,-2.7757,-2.8125,-2.8262,-2.8208,-2.795,-2.8077,-2.8291,-2.8291,-2.8291,-2.8291,-2.8291,-2.9059,-3.0078,-3.1268,-3.2336,-3.3411,-3.447,-3.4775,-3.4775,0.0,0.0,-3.4775,-3.4775,-3.4775,-3.4775,-3.4775,-3.4775,-3.4775,0.0,0.0,0.0,0.0,0.0,0.0,-3.4823,0.0,-3.5641,-3.5701,-3.617,-3.6459,-3.6483,-3.6459,-3.6194,-3.5665,-3.5605,-3.5328,-3.4775,-3.4775,-3.4775,-3.4775,-3.4775,-3.4775,-3.4775,-3.4775,-3.4775,-3.4775,-3.4775,-3.4775,-3.4726,-3.4775,-3.4775,-3.4726,-3.4775,-3.4115,-3.335,0.0,0.0,0.0,0.0,0.0,0.0,0.0,0.0,0.0,0.0,0.0,0.0,0.0,0.0,0.0,0.0,0.0,0.0,-2.851,-2.859,-2.863,-2.851,-2.8724,-2.8764,-2.8578,-2.8724,-2.8791,-2.8791,-2.8764,-2.8797,-2.8943,-2.9331,-2.9588,-2.9725,-3.011,-3.0579,-3.1115,-3.1115,-3.1213,-3.1327,-3.1327,-3.0734,-2.9795,-2.951,-2.8495,-2.7189,-2.6914,-2.6392,0.0,0.0,0.0,-2.7256,-2.7695,-2.7822,-2.7881,-2.7873,-2.8077,-2.8237,-2.8067,-2.8014,-2.8077,-2.8237,-2.8388,-2.8731,-3.0026,-3.1206,-3.2286,-3.34,-3.4213,-3.4775,0.0,0.0,0.0,-3.4775,-3.4775,0.0,-3.4775,-3.4775,0.0,-3.4775,0.0,-3.4775,-3.4775,-3.5184,0.0,0.0,-3.5533,-3.5966,-3.6747,-3.6916,-3.7168,-3.7565,-3.7192,-3.6735,-3.6206,-3.5425,-3.4968,-3.4775,-3.4775,-3.4775,-3.4775,-3.4775,-3.4775,-3.4775,-3.4775,-3.4775,-3.4775,-3.4775,-3.4323,-3.3709,-3.447,-3.4323,-3.3709,-3.4519,-3.4115,-3.325,0.0,0.0,0.0,0.0,0.0,0.0,0.0,0.0,0.0,0.0,0.0,0.0,0.0,0.0,0.0,0.0,0.0,0.0,0.0,-2.851,-2.851,-2.851,-2.8685,-2.8803,-2.8736,-2.8882,-2.8922,-2.8922,-2.8843,-2.8791,-2.8803,-2.9107,-2.9294,-2.9455,-2.9758,-3.0109,-3.053,-3.053,-3.0874,0.0,0.0,-3.1124,-3.0824,-3.0351,-2.9235,-2.7793,-2.7369,-2.6552,0.0,0.0,0.0,-2.7039,-2.7363,-2.7604,-2.7744,-2.7834,0.0,-2.8291,-2.813,-2.8067,-2.8121,-2.8237,-2.89,-2.9608,-2.9817,-3.1154,-3.2488,-3.3101,-3.3659,0.0,-3.4726,-3.4775,0.0,0.0,0.0,0.0,-3.4775,-3.4775,-3.4775,0.0,-3.4775,0.0,-3.5148,-3.5437,-3.5809,0.0,-3.6314,-3.6567,-3.7168,-3.7409,-3.7673,-3.7974,-3.7697,-3.718,-3.6411,-3.5352,-3.4775,-3.4775,-3.4775,-3.4775,-3.4775,-3.4775,-3.4775,-3.4775,0.0,-3.4775,-3.4775,-3.4775,-3.4164,-3.325,-3.3857,-3.3449,-3.2588,-3.3151,-3.2689,-3.1768,0.0,0.0,0.0,0.0,0.0,0.0,0.0,0.0,0.0,0.0,0.0,0.0,0.0,0.0,0.0,0.0,0.0,0.0,0.0,0.0,-2.851,-2.851,-2.8736,-2.8882,-2.9013,-2.9091,-2.9131,-2.9052,-2.8922,-2.8843,-2.8843,-2.8843,-2.9086,-2.9525,-2.9496,-2.9678,-3.0019,-3.0031,-3.029,-3.0783,-3.0886,-3.1199,-3.1521,0.0,0.0,0.0,-2.7605,0.0,0.0,0.0,-2.6181,-2.6873,-2.7023,-2.7311,-2.7656,-2.781,-2.8082,-2.8291,-2.8291,-2.8291,-2.8237,-2.8291,-2.9733,-3.0856,-2.9922,-3.141,-3.2939,-3.2789,0.0,-3.3659,-3.4421,-3.4677,-3.4775,-3.4775,0.0,-3.4775,-3.4775,-3.4775,-3.4775,-3.4775,-3.4775,-3.504,-3.5569,-3.5677,-3.6134,-3.712,-3.7264,-3.73,-3.73,-3.7733,-3.7986,-3.7986,-3.7914,-3.7409,-3.6411,-3.5425,-3.4847,-3.4775,-3.4775,-3.4775,-3.4775,-3.4775,-3.4775,-3.4775,-3.4775,-3.4775,-3.4775,-3.4775,-3.4066,-3.3001,-3.3151,-3.2437,-3.137,-3.1524,-3.0856,-2.9922,0.0,0.0,0.0,0.0,0.0,0.0,0.0,0.0,0.0,0.0,-2.851,-2.851,0.0,0.0,0.0,0.0,0.0,0.0,0.0,0.0,0.0,-2.851,-2.8855,-2.8895,-2.863,-2.9079,-2.9197,-2.8843,-2.8961,-2.9052,-2.9052,-2.9052,-2.9101,-2.9187,-2.9016,-2.9241,-2.9658,-2.9506,-2.9737,-3.0266,-3.0699,-3.097,-3.106,-3.136,0.0,0.0,0.0,0.0,0.0,0.0,-2.5791,-2.5986,-2.6415,-2.6795,-2.7217,-2.7594,-2.8018,-2.8291,-2.8291,-2.813,-2.8014,-2.8237,-2.8432,-2.8528,-2.8548,-3.0297,0.0,0.0,-3.2627,-3.4323,-3.361,-3.4213,-3.4775,-3.4775,-3.4775,-3.4775,-3.4775,-3.4775,-3.4775,0.0,-3.4775,-3.504,-3.5569,-3.6014,0.0,0.0,-3.7601,-3.7841,-3.7841,-3.7938,-3.7986,-3.7986,-3.7553,-3.7036,-3.6411,-3.5797,-3.5256,-3.4775,-3.4775,-3.4775,-3.4775,-3.4775,-3.4775,-3.4775,-3.4775,0.0,-3.4775,-3.4775,-3.3659,-3.1982,-3.2851,-3.1971,-3.0287,-3.1268,-3.0856,-2.9922,0.0,0.0,0.0,0.0,0.0,0.0,0.0,-2.6835,-2.7255,-2.7765,-2.7805,-2.8018,-2.8471,-2.851,-2.851,0.0,0.0,0.0,0.0,0.0,0.0,0.0,0.0,0.0,-2.8961,-2.9263,-2.9302,-2.9106,0.0,-2.917,-2.9236,-2.917,-2.917,-2.9236,-2.9145,-2.9135,-2.918,-2.9072,-2.9306,-2.9701,-2.9953,-3.0386,0.0,0.0,0.0,0.0,0.0,0.0,0.0,0.0,-2.5693,-2.5762,-2.625,-2.6523,-2.6816,-2.7523,-2.7865,-2.8018,-2.8232,-2.8184,-2.813,-2.8291,-2.8644,-2.8847,-2.8398,0.0,0.0,0.0,-3.1564,-3.2627,-3.3808,-3.4017,0.0,-3.4726,-3.4775,-3.4775,-3.4775,-3.4775,0.0,-3.4775,0.0,0.0,0.0,-3.6098,-3.6627,-3.7156,-3.7685,-3.7986,-3.7986,-3.7986,-3.7986,-3.7986,-3.7469,-3.694,-3.6411,-3.5881,-3.5352,-3.4775,-3.4775,-3.4775,-3.4775,-3.4775,-3.4775,-3.4775,-3.4775,-3.4775,-3.4775,-3.4775,-3.356,-3.1626,-3.2185,-3.1011,-2.9112,-2.9681,-2.9523,-2.9059,0.0,0.0,0.0,0.0,0.0,0.0,0.0,-2.5694,-2.608,-2.6794,-2.7092,-2.747,-2.8139,-2.8391,-2.851,0.0,0.0,0.0,0.0,0.0,0.0,0.0,0.0,0.0,0.0,0.0,0.0,-2.9341,-2.9236,0.0,0.0,0.0,0.0,0.0,-2.9419,-2.9223,-2.891,-2.8843,-2.8927,0.0,0.0,-2.9797,0.0,0.0,0.0,0.0,0.0,0.0,0.0,0.0,-2.5693,-2.5742,-2.6143,-2.6309,-2.6523,-2.7197,-2.7571,-2.7796,-2.8066,-2.8223,-2.8291,-2.8291,-2.8953,-2.9365,-2.8495,-2.9112,0.0,-3.0753,-3.0753,-3.1308,-3.3709,-3.3808,-3.3808,0.0,-3.4775,-3.4775,-3.4775,-3.4775,-3.4775,0.0,0.0,0.0,-3.5569,-3.6098,0.0,-3.7156,-3.7685,-3.7986,-3.7986,-3.7986,-3.7986,-3.7986,-3.7469,-3.694,-3.6411,-3.5881,-3.5352,-3.4775,-3.4775,-3.4775,-3.4775,-3.4775,-3.4775,-3.4775,-3.4775,-3.4775,-3.4775,-3.4775,-3.356,-3.1575,-3.1575,-3.0245,-2.8291,-2.8291,-2.8291,-2.8291,0.0,0.0,0.0,0.0,0.0,0.0,0.0,-2.5284,-2.5819,-2.5902,-2.667,-2.7226,-2.7307,-2.8018,-2.851,0.0,0.0,0.0,0.0,0.0,0.0,0.0,0.0,0.0,0.0,0.0,0.0,-2.9131,-2.9275,0.0,0.0,0.0,0.0,0.0,0.0,0.0,-2.9302,-2.8949,0.0,0.0,0.0,0.0,0.0,0.0,0.0,0.0,0.0,0.0,0.0,0.0,0.0,-2.5693,-2.5732,-2.6074,-2.6406,-2.6484,0.0,0.0,-2.7767,-2.7998,-2.8291,-2.8291,-2.8398,-2.8398,-2.8344,0.0,-2.967,-2.8804,-3.0897,-3.2689,-3.2033,-3.3411,-3.4677,0.0,0.0,-3.4775,-3.4775,-3.4775,0.0,0.0,0.0,0.0,0.0,-3.6098,-3.6627,-3.7156,-3.7685,-3.7986,-3.7986,-3.7986,-3.7986,-3.7986,-3.7469,-3.694,-3.6411,-3.5881,-3.5352,-3.4775,-3.4775,-3.4775,-3.4775,-3.4775,-3.4775,-3.4775,-3.4775,-3.4775,0.0,-3.4775,-3.356,-3.1575,-3.1575,-3.0245,-2.8291,-2.8291,-2.8291,-2.8291,0.0,0.0,0.0,0.0,0.0,0.0,-2.3647,-2.394,-2.4402,-2.4946,-2.5788,-2.6588,-2.7144,-2.7966,-2.851,-2.851,0.0,0.0,0.0,0.0,0.0,0.0,0.0,0.0,0.0,0.0,-2.9611,-2.9275,-2.9341,0.0,0.0,0.0,0.0,0.0,0.0,0.0,-2.938,0.0,0.0,0.0,0.0,0.0,0.0,0.0,0.0,0.0,0.0,0.0,-2.5693,0.0,0.0,0.0,-2.5693,-2.581,0.0,0.0,-2.6631,-2.7012,-2.7581,-2.7836,-2.7978,-2.8232,-2.8291,-2.8291,-2.8291,0.0,-2.9006,-2.9207,-2.9775,-3.0701,-3.2286,-3.2739,-3.33,0.0,0.0,0.0,-3.4775,0.0,0.0,0.0,-3.4775,0.0,0.0,0.0,-3.6278,-3.7132,-3.7685,-3.7986,-3.7986,-3.7986,-3.7986,-3.7986,-3.7469,-3.694,-3.6411,-3.5881,-3.5352,-3.4775,-3.4775,-3.4775,-3.4775,-3.4775,-3.4775,-3.4775,-3.4775,-3.4775,0.0,-3.4115,-3.2951,-3.1524,-3.0856,-2.9618,-2.8291,-2.8291,-2.8291,-2.8291,0.0,0.0,0.0,0.0,0.0,-2.3091,-2.3091,-2.3091,-2.3353,-2.3983,-2.4861,-2.5663,-2.634,-2.7429,-2.8139,-2.8139,-2.8339,0.0,0.0,0.0,0.0,0.0,0.0,0.0,0.0,0.0,-2.9611,-2.9509,-2.9509,-2.9509,0.0,0.0,0.0,0.0,0.0,0.0,0.0,0.0,0.0,0.0,0.0,0.0,0.0,0.0,0.0,0.0,0.0,0.0,0.0,0.0,0.0,0.0,0.0,0.0,0.0,0.0,-2.6289,-2.6523,-2.7129,-2.7523,-2.7787,-2.8027,-2.8203,-2.8291,0.0,0.0,-2.8495,-2.926,-2.9059,-2.9471,-3.1819,-3.2134,-3.2588,-3.4066,-3.4568,-3.4775,-3.4775,-3.4775,0.0,0.0,0.0,-3.4775,0.0,-3.5304,-3.599,-3.6892,-3.73,-3.7517,-3.7517,-3.7517,-3.7589,-3.7745,-3.7228,-3.6711,-3.6182,-3.5653,-3.5147,-3.4775,-3.4775,-3.4775,-3.4775,-3.4775,-3.4775,-3.4775,-3.4775,-3.4775,0.0,-3.3659,-3.2588,-3.1472,-3.0338,-2.926,-2.8291,-2.8291,-2.8291,-2.8291,0.0,0.0,0.0,0.0,0.0,0.0,-2.3091,-2.3091,-2.3091,-2.3091,-2.395,-2.4541,-2.4541,-2.6133,-2.7226,-2.7226,-2.8007,0.0,0.0,0.0,0.0,0.0,0.0,0.0,0.0,0.0,-2.9509,-2.9792,-2.9792,-2.9792,-2.9792,-2.9792,-2.9792,-2.9792,0.0,0.0,0.0,0.0,0.0,0.0,0.0,0.0,0.0,0.0,0.0,0.0,0.0,0.0,0.0,0.0,0.0,0.0,0.0,0.0,0.0,0.0,-2.6055,-2.6387,-2.6396,-2.7021,-2.7718,-2.7728,-2.7988,-2.8291,0.0,-2.8291,-2.8291,-2.8291,-2.9154,-2.9869,-2.9922,-3.1717,-3.3201,-3.3201,-3.4115,0.0,-3.4775,-3.4775,0.0,0.0,0.0,-3.4775,-3.4775,-3.5304,-3.5833,-3.6374,-3.6423,0.0,-3.6423,-3.6423,-3.6663,-3.718,-3.6687,-3.6158,-3.5629,-3.51,-3.4787,-3.4775,-3.4775,-3.4775,-3.4775,-3.4775,-3.4775,-3.4775,-3.4775,-3.4775,0.0,-3.3659,-3.2588,-3.1472,-3.0338,-2.926,-2.8291,-2.8291,-2.8291,-2.8291,0.0,0.0,0.0,0.0,0.0,0.0,0.0,-2.3091,-2.3091,-2.3091,-2.3897,-2.4498,-2.4498,-2.5537,-2.6505,-2.7144,-2.8018,0.0,0.0,0.0,0.0,0.0,0.0,0.0,0.0,0.0,-2.9611,-2.9521,-2.9702,-2.9702,-2.9509,-2.9702,-2.9792,-2.9792,-2.9792,0.0,0.0,0.0,0.0,0.0,0.0,0.0,0.0,0.0,0.0,0.0,0.0,0.0,0.0,0.0,0.0,0.0,0.0,0.0,0.0,-2.5693,-2.5791,0.0,-2.6309,-2.6582,-2.6934,-2.7571,-2.7826,-2.7939,-2.8232,-2.8291,-2.8291,-2.8291,-2.8548,-2.9006,-2.9765,-3.1114,-3.2336,-3.3101,-3.4115,0.0,0.0,0.0,0.0,-3.4775,-3.4775,-3.4775,0.0,0.0,-3.5689,-3.5857,-3.6194,-3.6411,-3.6411,-3.6411,-3.6483,-3.6651,-3.6146,-3.5785,-3.5617,-3.5051,-3.4775,-3.4775,-3.4775,-3.4775,-3.4775,-3.4775,-3.4775,-3.4775,-3.4775,-3.4372,-3.361,-3.2538,-3.1472,-3.0338,-2.9207,-2.8601,-2.8291,-2.8291,-2.8291,-2.8291,0.0,0.0,0.0,0.0,0.0,0.0,0.0,-2.3091,-2.3091,-2.3091,-2.3604,-2.3983,-2.3983,-2.4787,-2.5537,-2.6133,-2.7296,0.0,0.0,0.0,0.0,0.0,0.0,0.0,0.0,-2.939,-2.9534,-2.956,-2.9702,-2.9702,-2.956,-2.9702,-2.9792,-2.9792,-2.9792,-2.9792,0.0,0.0,0.0,0.0,0.0,0.0,-2.6652,0.0,0.0,0.0,0.0,0.0,0.0,0.0,0.0,0.0,0.0,0.0,0.0,0.0,-2.5693,-2.5742,0.0,-2.6269,-2.6514,-2.7051,-2.7483,0.0,-2.7998,-2.8174,-2.8291,-2.8291,-2.8291,-2.8495,-2.9154,-3.0546,-3.183,-3.2488,-3.3857,0.0,0.0,0.0,0.0,-3.4775,0.0,0.0,0.0,-3.5075,-3.5316,-3.5316,-3.5629,-3.5809,-3.5809,-3.5809,-3.5809,-3.5809,-3.5689,-3.5521,-3.5328,-3.4943,-3.4775,-3.4775,-3.4775,-3.4775,-3.4775,-3.4775,-3.4775,-3.4775,-3.4775,-3.4164,0.0,-3.2033,-3.0959,-2.9765,-2.8698,-2.8291,-2.8291,-2.8291,-2.8291,-2.8291,0.0,0.0,0.0,0.0,0.0,0.0,0.0,-2.3091,-2.3091,-2.3091,-2.3091,-2.3091,-2.3091,-2.394,-2.4531,-2.4584,0.0,0.0,0.0,0.0,0.0,0.0,0.0,0.0,-2.9091,-2.9091,-2.9339,-2.9792,-2.9792,-2.9792,-2.9792,-2.9792,-2.9792,-2.9792,-2.9792,-2.9792,-2.9702,-2.8303,-2.8223,-2.8843,-2.6607,-2.585,0.0,0.0,0.0,0.0,0.0,0.0,0.0,0.0,0.0,0.0,0.0,0.0,0.0,0.0,0.0,0.0,0.0,-2.6035,-2.6348,-2.6387,0.0,0.0,-2.7708,-2.7969,0.0,-2.8281,-2.8291,-2.8291,-2.8291,-3.0037,-3.1524,-3.1575,-3.3362,0.0,0.0,-3.4775,0.0,0.0,-3.4775,0.0,-3.4775,-3.4775,-3.4775,-3.4775,-3.4775,-3.4775,-3.4775,-3.4775,-3.4775,-3.4775,-3.5304,-3.5328,-3.4787,-3.4775,-3.4775,-3.4775,-3.4775,-3.4775,-3.4775,-3.4775,-3.4775,0.0,-3.4775,-3.4164,-3.3001,-3.2033,-3.0856,-2.967,-2.8698,-2.8291,-2.8291,-2.8291,-2.8291,-2.8291,0.0,0.0,0.0,0.0,0.0,0.0,0.0,0.0,0.0,0.0,-2.3091,-2.3091,-2.3091,-2.394,-2.4787,0.0,0.0,0.0,0.0,0.0,0.0,0.0,0.0,0.0,-2.9091,-2.9236,-2.9482,-2.9792,-2.9792,-2.9792,-2.9792,-2.9792,-2.9792,-2.9792,-2.9792,-2.9792,-2.9663,-2.7799,-2.7557,-2.8143,-2.5944,-2.5073,0.0,0.0,0.0,0.0,-2.3779,-2.4209,0.0,0.0,0.0,0.0,0.0,0.0,0.0,0.0,-2.5693,-2.5693,-2.5693,0.0,-2.5967,-2.6309,-2.6543,-2.6855,0.0,-2.7796,-2.791,-2.8223,-2.8291,-2.8291,-2.8291,-2.9418,-3.0598,-3.1472,0.0,-3.3857,-3.4677,0.0,0.0,-3.4775,-3.4775,-3.4775,-3.4775,-3.4775,-3.4775,-3.4775,-3.4775,-3.4775,-3.4775,-3.4775,-3.4775,-3.4775,-3.4895,-3.4907,-3.4775,-3.4775,-3.4775,-3.4775,-3.4775,-3.4775,-3.4775,-3.4775,-3.4775,-3.4775,-3.4775,-3.3709,-3.1982,-3.1677,-3.0453,-2.8654,-2.8398,-2.8291,-2.8291,-2.8291,-2.8291,-2.8291,0.0,0.0,0.0,0.0,0.0,0.0,0.0,0.0,0.0,0.0,0.0,0.0,0.0,0.0,0.0,0.0,0.0,0.0,0.0,0.0,0.0,0.0,0.0,-2.8343,-2.8633,-2.9145,-2.9353,-2.9209,-2.9209,-2.9209,-2.9209,-2.9209,-2.9417,-2.9792,-2.9792,-2.9585,-2.9091,-2.7476,-2.7058,-2.7313,-2.521,0.0,0.0,0.0,0.0,0.0,-2.3633,-2.4062,0.0,-2.4922,-2.5361,-2.5693,0.0,0.0,0.0,0.0,-2.5693,-2.5693,-2.5693,-2.5693,-2.5742,-2.6035,-2.624,-2.6514,-2.6973,-2.7434,-2.7777,-2.7959,0.0,-2.8291,-2.8291,-2.9164,-3.0287,-3.1421,-3.2488,0.0,0.0,0.0,-3.4775,-3.4775,-3.4775,-3.4775,0.0,-3.4775,-3.4775,-3.4775,-3.4775,-3.4775,-3.4775,-3.4775,-3.4775,-3.4775,-3.4775,-3.4775,-3.4775,-3.4775,-3.4775,-3.4775,-3.4775,-3.4775,-3.4775,-3.4775,-3.4775,-3.4775,-3.4274,-3.3151,-3.1575,-3.1062,-2.9828,-2.8291,-2.8291,-2.8291,-2.8291,-2.8291,-2.8291,-2.8291,0.0,0.0,0.0,0.0,0.0,0.0,0.0,0.0,0.0,0.0,0.0,0.0,0.0,0.0,0.0,0.0,0.0,0.0,0.0,0.0,0.0,0.0,0.0,-2.7678,-2.8103,-2.8819,-2.8976,-2.8502,-2.8383,-2.8383,-2.8502,-2.8502,-2.8961,-2.9792,-2.9495,-2.9052,-2.8422,-2.7017,-2.6524,-2.6442,-2.4541,0.0,0.0,0.0,0.0,0.0,0.0,0.0,0.0,-2.4824,-2.5264,-2.5596,-2.5664,0.0,0.0,0.0,0.0,0.0,-2.5693,-2.5693,-2.5693,-2.5693,-2.6016,-2.6309,-2.6367,0.0,0.0,0.0,0.0,0.0,0.0,-2.9059,0.0,0.0,0.0,0.0,-3.4677,-3.4775,-3.4775,-3.4775,-3.4775,0.0,-3.4775,-3.4775,-3.4775,-3.4775,-3.4775,-3.4775,-3.4775,-3.4775,-3.4775,-3.4775,-3.4775,-3.4775,-3.4775,-3.4775,-3.4775,-3.4775,-3.4775,-3.4726,-3.4568,-3.4726,-3.4628,-3.4262,0.0,0.0,-3.1268,-3.0287,-2.926,-2.8291,-2.8291,-2.8291,-2.8291,-2.8291,-2.8291,-2.8291,0.0,0.0,0.0,0.0,0.0,0.0,0.0,0.0,0.0,0.0,0.0,0.0,0.0,0.0,0.0,0.0,0.0,0.0,0.0,0.0,0.0,-2.5569,-2.6782,-2.7678,-2.8103,-2.8223,-2.8383,-2.8502,-2.7678,-2.7718,-2.8502,-2.8502,-2.8961,-2.9714,-2.8183,-2.7879,-2.8343,-2.5893,-2.5179,-2.5568,-2.4294,0.0,0.0,0.0,0.0,0.0,0.0,0.0,0.0,-2.4375,-2.4805,-2.5234,-2.5567,0.0,0.0,0.0,0.0,0.0,-2.5693,-2.5693,-2.5693,-2.5693,-2.5742,-2.5937,-2.6309,-2.6494,0.0,0.0,0.0,0.0,0.0,-2.8451,-2.891,0.0,0.0,-3.356,0.0,0.0,-3.4775,-3.4775,0.0,-3.4775,-3.4775,-3.4775,-3.4775,-3.4775,-3.4775,-3.4775,-3.4775,-3.4775,-3.4775,-3.4775,-3.4775,-3.4775,-3.4775,-3.4775,-3.4775,-3.4775,-3.4775,-3.4323,-3.3461,-3.4372,-3.3808,-3.2134,0.0,-3.2022,-3.013,-2.9974,-2.926,-2.8291,-2.8291,-2.8291,-2.8291,-2.8291,-2.8291,-2.8291,0.0,0.0,0.0,0.0,0.0,0.0,0.0,0.0,0.0,0.0,0.0,0.0,0.0,0.0,0.0,0.0,0.0,0.0,0.0,0.0,0.0,-2.6049,-2.6276,-2.6565,-2.6853,-2.781,-2.7891,-2.7058,-2.6607,-2.6607,-2.7058,-2.8051,-2.8961,-2.9753,-2.8422,-2.7799,-2.7637,-2.5924,-2.4967,-2.4541,0.0,0.0,0.0,0.0,0.0,0.0,0.0,0.0,0.0,0.0,-2.4521,-2.5145,-2.5312,0.0,0.0,0.0,0.0,0.0,-2.5693,-2.5693,-2.5693,-2.5693,-2.5693,-2.5742,-2.5986,-2.6221,0.0,0.0,0.0,0.0,0.0,0.0,-2.8857,-3.0546,0.0,-3.356,-3.4677,-3.4775,-3.4775,0.0,0.0,-3.4775,-3.4775,-3.4775,-3.4775,-3.4775,-3.4775,-3.4775,-3.4775,-3.4775,-3.4775,-3.4775,-3.4775,-3.4775,-3.4775,-3.4775,-3.4775,-3.4775,-3.4213,-3.3967,-3.4066,-3.335,-3.2851,-3.2437,0.0,-3.0845,-2.9869,-2.926,-2.8751,-2.8291,-2.8291,-2.8291,-2.8291,-2.8291,-2.8291,-2.8291,0.0,0.0,0.0,0.0,0.0,0.0,0.0,0.0,0.0,0.0,0.0,0.0,0.0,0.0,0.0,0.0,0.0,0.0,0.0,0.0,-2.5883,-2.6771,-2.6152,-2.5902,-2.611,-2.7261,-2.718,-2.5777,-2.5777,-2.6027,-2.6483,-2.8051,-2.904,-2.9456,-2.8593,-2.7637,-2.673,-2.5872,-2.484,-2.3841,0.0,0.0,0.0,0.0,0.0,0.0,0.0,0.0,0.0,0.0,0.0,0.0,0.0,0.0,0.0,-2.5693,-2.5693,-2.5693,-2.5693,-2.5693,-2.5693,-2.5693,-2.5693,-2.5693,-2.5693,-2.5996,-2.6269,0.0,0.0,0.0,0.0,-2.8008,0.0,-3.1216,-3.2286,-3.33,-3.4628,-3.4775,-3.4775,-3.4775,-3.4775,-3.4775,-3.4775,-3.4775,-3.4775,-3.4775,-3.4775,-3.4775,-3.4775,-3.4775,-3.4775,-3.4775,-3.4775,-3.4775,-3.4775,-3.4775,-3.4775,-3.4775,-3.3967,-3.3758,-3.4017,-3.26,-3.1982,-3.1971,-3.0535,-2.9775,-2.946,-2.8654,-2.8291,-2.8291,-2.8291,-2.8291,-2.8291,-2.8291,-2.8291,-2.8291,0.0,0.0,0.0,0.0,0.0,0.0,0.0,0.0,0.0,0.0,0.0,0.0,0.0,0.0,0.0,0.0,0.0,0.0,0.0,0.0,-2.6524,-2.6771,-2.673,-2.6812,-2.6987,-2.6359,-2.5944,-2.5777,-2.5777,-2.6648,-2.8331,-2.9248,-2.93,-2.8542,-2.7597,-2.6689,-2.583,-2.4946,-2.4272,-2.3797,-2.3841,0.0,0.0,0.0,0.0,0.0,0.0,0.0,0.0,0.0,0.0,0.0,0.0,0.0,-2.5693,-2.5693,-2.5693,-2.5693,-2.5693,-2.5693,-2.5693,-2.5693,-2.5693,-2.5693,-2.5693,-2.5713,0.0,-2.6309,0.0,0.0,0.0,-2.8008,-2.9016,-3.1216,-3.1677,-3.2437,-3.4519,0.0,-3.4775,-3.4775,-3.4775,-3.4775,-3.4775,-3.4775,-3.4775,-3.4775,-3.4775,-3.4775,-3.4775,-3.4775,-3.4775,-3.4775,-3.4775,-3.4775,-3.4775,-3.4775,-3.4775,-3.4775,-3.4726,-3.3659,-3.188,-3.2689,-3.1462,-2.8708,-2.9513,-2.9365,-2.8388,-2.8344,-2.8291,-2.8291,-2.8291,-2.8291,-2.8291,-2.8291,-2.8291,-2.8291,0.0,0.0,0.0,0.0,0.0,0.0,0.0,0.0,0.0,0.0,0.0,0.0,0.0,0.0,0.0,0.0,0.0,0.0,0.0,-2.718,-2.718,-2.7839,-2.6771,-2.6483,-2.711,-2.6235,-2.5537,-2.4978,-2.5537,-2.673,-2.8502,-2.8251,-2.8554,-2.9209,-2.7191,-2.64,-2.6535,-2.5115,-2.4325,-2.4024,-2.3884,-2.3624,0.0,0.0,0.0,0.0,0.0,0.0,0.0,0.0,-2.3672,-2.4102,-2.4531,-2.4971,-2.5371,-2.5606,-2.5693,-2.5693,-2.5693,-2.5693,-2.5693,-2.5693,-2.5693,0.0,0.0,-2.5693,-2.5732,-2.5947,-2.6201,0.0,0.0,0.0,-2.8748,-3.1224,-3.1575,-3.2336,-3.447,-3.4775,-3.4775,-3.4775,-3.4775,-3.4775,-3.4775,-3.4775,-3.4775,-3.4775,-3.4775,-3.4775,-3.4775,-3.4775,-3.4775,-3.4775,-3.4775,-3.4775,-3.4775,-3.4775,-3.4775,-3.4775,-3.3461,-3.2739,-3.2538,-3.0908,-2.9828,-2.926,-2.9006,-2.8644,-2.8291,-2.8291,-2.8291,-2.8291,-2.8291,-2.8291,-2.8291,-2.8291,-2.8291,-2.8291,0.0,0.0,0.0,0.0,0.0,0.0,0.0,0.0,0.0,0.0,0.0,0.0,0.0,0.0,0.0,0.0,0.0,0.0,-2.8502,-2.7891,-2.7851,-2.8462,-2.7302,-2.6771,-2.7098,-2.6524,-2.5788,-2.4893,-2.608,-2.7435,-2.8882,-2.8263,-2.8303,-2.8882,-2.7354,-2.6689,-2.6607,-2.5715,-2.502,-2.4476,-2.4284,-2.3864,0.0,0.0,0.0,0.0,0.0,0.0,0.0,0.0,-2.3428,-2.3867,-2.4287,-2.4717,-2.5156,-2.5605,-2.5693,-2.5693,-2.5693,-2.5693,-2.5693,-2.5693,0.0,0.0,-2.5693,-2.5693,-2.5693,-2.5693,-2.6084,-2.6611,-2.7324,0.0,0.0,0.0,-3.1575,-3.2336,-3.447,-3.4775,-3.4775,-3.4775,-3.4775,-3.4775,-3.4775,-3.4775,-3.4775,-3.4775,-3.4775,-3.4775,-3.4775,-3.4775,-3.4775,-3.4775,-3.4775,-3.4775,-3.4775,-3.4775,-3.4628,-3.4262,-3.2437,-3.1982,-3.26,-2.9984,-2.9006,-2.9365,-2.8601,-2.8291,-2.8291,-2.8291,-2.8291,-2.8291,-2.8291,-2.8291,-2.8291,-2.8291,-2.8291,-2.8291,0.0,0.0,0.0,0.0,0.0,0.0,0.0,0.0,0.0,0.0,0.0,0.0,0.0,0.0,0.0,0.0,0.0,0.0,-2.8502,-2.8502,-2.8502,-2.8502,-2.8502,-2.8051,-2.7151,-2.711,-2.6689,-2.5819,-2.7637,-2.8961,-2.9792,-2.9792,-2.8843,-2.7191,-2.8091,-2.7516,-2.5861,-2.673,-2.6348,-2.5126,-2.5083,-2.4296,-2.3135,0.0,0.0,0.0,0.0,0.0,0.0,0.0,-2.3428,-2.3857,-2.4287,-2.4717,-2.5146,-2.5605,-2.5693,-2.5693,-2.5693,-2.5693,-2.5693,-2.5693,0.0,0.0,-2.5693,-2.5693,-2.5693,-2.5693,-2.6084,-2.6514,-2.6934,-2.7363,0.0,-3.1192,-3.1575,-3.2336,-3.447,-3.4775,-3.4775,-3.4775,-3.4775,-3.4775,-3.4775,-3.4775,-3.4775,-3.4775,-3.4775,-3.4775,-3.4775,-3.4775,-3.4775,-3.4775,-3.4775,-3.4775,-3.4775,-3.4775,-3.4274,-3.3201,-3.2083,-3.1575,-3.1534,-3.038,-2.9313,-2.8291,-2.8291,-2.8291,-2.8291,-2.8291,-2.8291,-2.8291,-2.8291,-2.8291,-2.8291,-2.8291,-2.8291,-2.8291,0.0,0.0,0.0,0.0,0.0,0.0,0.0,0.0,0.0,0.0,0.0,0.0,0.0,0.0,0.0,0.0,0.0,0.0,-2.9417,-2.9417,-2.9417,-2.9417,-2.8831,-2.8383,-2.8091,-2.8091,-2.7959,-2.7718,-2.8251,-2.8961,-2.9792,-2.917,-2.8922,-2.8961,-2.7971,-2.7597,-2.7678,-2.711,-2.6648,-2.6224,-2.5274,-2.4659,-2.4198,0.0,0.0,0.0,0.0,0.0,0.0,0.0,0.0,0.0,-2.4189,-2.4502,-2.4756,-2.5469,-2.5693,-2.5693,-2.5693,-2.5693,-2.5693,-2.5693,0.0,0.0,0.0,-2.5693,0.0,0.0,-2.5791,-2.6064,-2.6494,-2.6924,0.0,-3.0684,-3.1407,-3.2336,-3.447,-3.4775,-3.4775,-3.4775,-3.4775,-3.4775,-3.4775,-3.4775,-3.4775,-3.4775,-3.4775,-3.4775,-3.4775,-3.4775,-3.4775,-3.4775,-3.4775,-3.4775,-3.4775,-3.4066,-3.3499,-3.3201,-3.1308,-3.038,-3.039,-2.926,-2.8601,-2.8291,-2.8291,-2.8291,-2.8291,-2.8291,-2.8291,-2.8291,-2.8291,-2.8291,-2.8291,-2.8291,-2.8291,-2.8291,0.0,0.0,0.0,0.0,0.0,0.0,0.0,0.0,0.0,0.0,0.0,0.0,0.0,0.0,0.0,0.0,0.0,0.0,0.0,-2.9792,-2.9663,-2.93,-2.9131,-2.9,-2.9,-2.9,-2.9,-2.9,-2.9,-2.93,-2.9792,-2.9248,-2.9131,-2.9248,-2.8502,-2.8291,-2.8462,-2.8131,-2.7678,-2.7139,-2.6318,-2.5453,-2.4627,0.0,0.0,0.0,0.0,0.0,0.0,0.0,0.0,0.0,-2.3955,-2.4277,-2.4551,-2.5264,-2.5547,-2.5693,-2.5693,-2.5693,-2.5693,-2.5693,-2.5693,-2.5693,-2.5693,0.0,0.0,0.0,-2.5693,-2.582,-2.6309,-2.6728,0.0,-3.0467,-3.0892,-3.1819,-3.4421,-3.4421,-3.4323,-3.4726,-3.4775,-3.4775,-3.4775,-3.4775,-3.4775,-3.4775,-3.4775,-3.4775,-3.4775,-3.4775,-3.4775,-3.4775,-3.4775,-3.458,-3.4164,-3.3511,-3.2739,-3.1869,-3.0535,-2.967,-2.926,-2.8601,-2.8291,-2.8291,-2.8291,-2.8291,-2.8291,-2.8291,-2.8291,-2.8291,-2.8291,-2.8291,-2.8291,-2.8291,-2.8291,-2.8291,0.0,0.0,0.0,0.0,0.0,0.0,0.0,0.0,0.0,0.0,0.0,0.0,0.0,0.0,0.0,0.0,0.0,0.0,0.0,0.0,-2.9456,-2.8661,-2.9378,-2.9792,-2.9792,-2.9792,-2.9792,-2.9792,-2.9792,-2.9792,-2.9792,-2.9792,-2.9378,-2.8661,-2.9456,-2.9378,-2.8673,-2.9417,-2.904,-2.7891,-2.781,-2.6524,-2.4744,-2.4669,0.0,0.0,0.0,0.0,0.0,0.0,0.0,0.0,-2.3652,-2.4082,-2.4502,-2.4941,-2.5381,-2.5684,-2.5684,-2.5635,-2.5635,-2.5635,-2.5684,-2.5693,-2.5693,-2.5693,-2.5693,-2.5693,0.0,-2.581,-2.626,-2.6709,-2.7833,-3.0413,-3.031,-3.1051,-3.4323,-3.3857,-3.361,-3.4677,-3.4775,-3.4775,-3.4775,-3.4775,-3.4775,-3.4775,-3.4775,-3.4775,-3.4775,-3.4775,-3.4775,-3.4775,-3.4775,-3.4262,-3.3201,-3.3101,-3.1971,-2.9922,-2.9817,-2.926,-2.8291,-2.8291,-2.8291,-2.8291,-2.8291,-2.8291,-2.8291,-2.8291,-2.8291,-2.8291,-2.8291,-2.8291,-2.8291,-2.8291,-2.8291,-2.8291,0.0,0.0,0.0,0.0,0.0,0.0,0.0,0.0,0.0,0.0,0.0,0.0,0.0,0.0,0.0,0.0,0.0,0.0,0.0,0.0,-2.9714,-2.9546,-2.9714,-2.9792,-2.9792,-2.9792,-2.9792,-2.9792,-2.9792,-2.9792,-2.9792,-2.9792,-2.9714,-2.9546,-2.9714,-2.9714,-2.9495,-2.9339,-2.9091,-2.8724,-2.7742,-2.7051,-2.6547,-2.5788,-2.5411,0.0,0.0,0.0,0.0,0.0,0.0,0.0,-2.3652,-2.4082,-2.4502,-2.4941,-2.5381,-2.5635,-2.544,-2.5391,-2.5391,-2.5391,-2.5538,-2.5693,-2.5693,-2.5693,-2.5693,-2.5693,-2.5693,-2.5713,-2.581,-2.6504,-2.7733,-3.0041,-3.0149,-3.1051,-3.4323,-3.3857,-3.361,-3.4677,-3.4775,-3.4775,-3.4775,-3.4775,-3.4775,-3.4775,-3.4775,-3.4775,-3.4775,-3.4775,-3.4775,-3.4775,-3.4775,-3.4262,-3.3201,-3.2336,-3.1257,-2.9869,-2.9059,-2.8495,-2.8291,-2.8291,-2.8291,-2.8291,-2.8291,-2.8291,-2.8291,-2.8291,-2.8291,-2.8291,-2.8291,-2.8291,-2.8291,-2.8291,-2.8291,-2.8291,0.0,0.0,0.0,0.0,0.0,0.0,0.0,0.0,0.0,0.0,0.0,0.0,0.0,0.0,0.0,0.0,0.0,0.0,0.0,0.0,-2.9792,-2.9792,-2.9792,-2.9792,-2.9792,-2.9792,-2.9792,-2.9792,-2.9792,-2.9792,-2.9792,-2.9792,-2.9792,-2.9792,-2.9792,-2.974,-2.9611,-2.9353,-2.9118,-2.8882,-2.8235,-2.7672,-2.7133,-2.667,-2.6205,-2.5735,-2.5284,0.0,0.0,0.0,0.0,0.0,0.0,0.0,-2.4463,-2.4687,-2.5225,-2.5635,-2.5382,-2.5284,0.0,-2.5137,0.0,-2.5489,-2.5489,-2.5586,-2.5693,-2.5693,-2.5693,-2.5693,-2.5693,-2.6386,-2.7551,-2.9211,-2.9291,-3.0287,-3.356,-3.3101,-3.2839,-3.3918,-3.447,-3.458,-3.4066,-3.447,-3.4775,-3.4775,-3.4775,-3.4775,-3.4775,-3.4775,-3.4568,-3.4066,-3.4017,-3.325,-3.1666,-3.1051,-3.0235,-2.9112,-2.8548,-2.8291,-2.8291,-2.8291,-2.8291,-2.8291,-2.8291,-2.8291,-2.8291,-2.8291,-2.8291,-2.8291,-2.8291,-2.8291,-2.8291,-2.8291,-2.8291,-2.8291,0.0,0.0,0.0,0.0,0.0,0.0,0.0,0.0,0.0,0.0,0.0,0.0,0.0,0.0,0.0,0.0,0.0,0.0,0.0,0.0,0.0,-2.993,-2.9842,-2.9792,-2.9792,-2.9792,-2.9792,-2.9792,-2.9792,-2.9792,-2.9792,-2.9792,-2.9792,-2.9792,-2.974,-2.9611,-2.9419,-2.9341,-2.9145,-2.8843,-2.8843,-2.8315,-2.751,-2.7499,-2.6999,-2.6276,-2.611,-2.5579,-2.4956,-2.4787,0.0,0.0,0.0,0.0,-2.4546,-2.4615,-2.5075,-2.5538,-2.5362,-2.5284,-2.5186,-2.4981,-2.5088,0.0,-2.5284,-2.5489,-2.5635,-2.5684,-2.5693,-2.5693,-2.5693,-2.6377,-2.7269,-2.8406,-2.8374,-2.9284,-3.2476,-3.2134,-3.1931,-3.2801,-3.3869,-3.4115,-3.3051,-3.3906,-3.4519,-3.4519,-3.4677,-3.4726,-3.4519,-3.4519,-3.4017,-3.2951,-3.2901,-3.1971,-2.9922,-2.9922,-2.9365,-2.8291,-2.8291,-2.8291,-2.8291,-2.8291,-2.8291,-2.8291,-2.8291,-2.8291,-2.8291,-2.8291,-2.8291,-2.8291,-2.8291,-2.8291,-2.8291,-2.8291,-2.8291,-2.8291,0.0,0.0,0.0,0.0,0.0,0.0,0.0,0.0,0.0,0.0,0.0,0.0,0.0,0.0,0.0,0.0,0.0,0.0,-2.9792,0.0,0.0,-3.0482,-3.0043,-2.9792,-2.9792,-2.9792,-2.9792,-2.9792,-2.9792,-2.9792,-2.9792,-2.9792,-2.9792,-2.9792,-2.956,-2.9419,-2.938,-2.9197,-2.9091,-2.9052,-2.9052,-2.8961,-2.8843,-2.8633,-2.8514,-2.8263,-2.7336,-2.6928,-2.6723,-2.5913,-2.5526,0.0,0.0,0.0,-2.5115,-2.5505,-2.5408,-2.5196,-2.5285,0.0,-2.4932,0.0,-2.4932,-2.503,0.0,0.0,-2.544,0.0,-2.5693,-2.5693,-2.5693,-2.6143,-2.6923,-2.8365,-2.8124,-2.8741,-3.1418,-3.1677,-3.1626,-3.1779,-3.2739,-3.3001,-3.1931,-3.2801,-3.34,-3.34,-3.4262,-3.4372,-3.3461,-3.34,-3.2901,-3.183,-3.183,-3.1206,-2.9922,-2.9922,-2.9365,-2.8291,-2.8291,-2.8291,-2.8291,-2.8291,-2.8291,-2.8291,-2.8291,-2.8291,-2.8291,-2.8291,-2.8291,-2.8291,-2.8291,-2.8291,-2.8291,-2.8291,-2.8291,-2.8291,0.0,0.0,0.0,0.0,0.0,0.0,0.0,0.0,0.0,0.0,0.0,0.0,0.0,0.0,0.0,-2.9972,-3.0263,-3.044,-3.044,-3.0149,-3.0008,-3.0143,-2.993,-2.9792,-2.9792,-2.9792,-2.9792,-2.9792,-2.9792,-2.9792,-2.9792,-2.9792,-2.9792,-2.9792,-2.9702,-2.956,-2.938,-2.9314,-2.9197,-2.9091,-2.9091,-2.9091,-2.9091,-2.8882,-2.8791,-2.8712,-2.8127,-2.7592,-2.7144,-2.6712,-2.6246,-2.5777,-2.5777,0.0,0.0,0.0,-2.6013,-2.5752,-2.5402,-2.5088,-2.4883,0.0,-2.4784,-2.4883,-2.4883,-2.499,-2.5088,-2.5235,-2.5382,-2.5538,-2.5684,-2.6094,-2.6674,-2.7582,-2.7683,-2.8369,-3.0379,-3.065,-3.065,-3.065,-3.1626,-3.188,-3.0753,-3.1677,-3.2286,-3.2286,-3.275,-3.2789,-3.2336,-3.2286,-3.1768,-3.0691,-3.065,-3.013,-2.9006,-2.9006,-2.8751,-2.8291,-2.8291,-2.8291,-2.8291,-2.8291,-2.8291,-2.8291,-2.8291,-2.8291,-2.8291,-2.8291,-2.8291,-2.8291,-2.8291,-2.8291,-2.8291,-2.8291,-2.8291,-2.8291,0.0,0.0,0.0,0.0,0.0,0.0,0.0,0.0,0.0,0.0,0.0,0.0,0.0,0.0,0.0,0.0,-3.0749,-3.0952,-3.0912,-3.0392,-3.0074,-2.9993,-2.9867,-2.9792,-2.9792,-2.9792,-2.9792,-2.9792,-2.9792,-2.9792,-2.9792,-2.9792,-2.9792,-2.9792,-2.974,-2.9611,0.0,0.0,0.0,0.0,0.0,-2.9157,0.0,-2.8882,-2.8791,-2.8764,-2.8578,-2.8099,-2.751,-2.751,-2.7092,-2.6494,-2.6494,-2.6585,0.0,0.0,0.0,-2.6177,0.0,0.0,-2.4906,-2.5031,-2.4922,-2.4784,0.0,0.0,-2.4833,0.0,-2.5088,-2.5235,-2.544,-2.5907,-2.6357,-2.6787,-2.7217,-2.7949,-2.9184,-2.9651,-2.9817,-2.9513,-3.0494,-3.0753,-2.9618,-3.0494,-3.1165,-3.1165,-3.1421,-3.1472,-3.1165,-3.1165,-3.065,-2.9513,-2.9513,-2.9112,-2.8291,-2.8291,-2.8291,-2.8291,-2.8291,-2.8291,-2.8291,-2.8291,-2.8291,-2.8291,-2.8291,-2.8291,-2.8291,-2.8291,-2.8291,-2.8291,-2.8291,-2.8291,-2.8291,-2.8291,-2.8291,-2.8291,0.0,0.0,0.0,0.0,0.0,0.0,0.0,0.0,0.0,0.0,0.0,0.0,-3.0049,-3.0557,-3.094,-3.1124,-3.1149,-3.1096,-3.0912,-3.0392,-3.0238,-3.0545,-3.0068,0.0,-2.9792,-2.9792,-2.9792,-2.9792,-2.9792,-2.9792,-2.9792,-2.9792,-2.9792,-2.9792,-2.9509,-2.9419,-2.9419,0.0,0.0,0.0,0.0,0.0,0.0,0.0,0.0,0.0,0.0,-2.8471,-2.8431,-2.8431,-2.8391,-2.8339,-2.8339,-2.7817,-2.7229,0.0,0.0,0.0,0.0,-2.5654,0.0,-2.6355,-2.5586,-2.4578,0.0,0.0,-2.4578,-2.4833,-2.4932,-2.4932,-2.4932,-2.5401,-2.5869,-2.6357,-2.6777,-2.7197,-2.7741,-2.8997,-2.9513,-2.8495,-2.9313,-2.9565,-2.8495,-2.9365,-2.9974,-2.9974,-3.1011,-3.1114,-3.0026,-2.9974,-2.9513,-2.8398,-2.8398,-2.8344,-2.8291,-2.8291,-2.8291,-2.8291,-2.8291,-2.8291,-2.8291,-2.8291,-2.8291,-2.8291,-2.8291,-2.8291,-2.8291,-2.8291,-2.8291,-2.8291,-2.8291,-2.8291,-2.8291,-2.8291,-2.8291,-2.8291,0.0,0.0,0.0,0.0,0.0,0.0,0.0,0.0,0.0,0.0,0.0,0.0,0.0,-3.0356,-3.0341,-3.0676,-3.0791,-3.0945,-3.1071,-3.0457,-3.0099,-3.008,-2.9892,-2.9792,-2.9792,-2.9792,-2.9792,-2.9792,-2.9792,-2.9792,-2.9792,-2.9792,-2.9792,-2.9792,-2.9702,-2.965,-2.965,-2.965,0.0,0.0,0.0,0.0,0.0,0.0,0.0,0.0,0.0,0.0,0.0,0.0,0.0,0.0,0.0,0.0,0.0,0.0,0.0,0.0,0.0,0.0,0.0,-2.6111,-2.5749,-2.516,-2.4767,-2.4587,-2.4489,-2.4449,-2.4538,-2.4637,-2.4637,-2.4932,-2.5379,-2.606,-2.6485,-2.6962,-2.7607,-2.8387,-2.8751,-2.8344,-2.8654,-2.8698,-2.8344,-2.8654,-2.8857,-2.8857,-2.927,-2.9323,-2.89,-2.8857,-2.8708,-2.8291,-2.8291,-2.8291,-2.8291,-2.8291,-2.8291,-2.8291,-2.8291,-2.8291,-2.8291,-2.8291,-2.8291,-2.8291,-2.8291,-2.8291,-2.8291,-2.8291,-2.8291,-2.8291,-2.8291,-2.8291,-2.8291,-2.8291,-2.8291,-2.8291,0.0,0.0,0.0,0.0,0.0,0.0,0.0,0.0,0.0,-3.2506,0.0,0.0,0.0,0.0,-3.074,-3.0842,-3.097,-3.1047,-3.1036,-3.0509,-3.0113,-2.9895,-2.983,-2.9792,-2.9792,-2.9603,-2.9591,-2.9792,-2.9591,-2.9603,-2.9792,-2.9792,-2.9792,-2.9792,-2.9792,-2.9792,0.0,0.0,0.0,-2.9792,0.0,0.0,-2.938,0.0,0.0,0.0,0.0,0.0,0.0,0.0,0.0,0.0,0.0,0.0,0.0,0.0,0.0,0.0,-2.7279,0.0,0.0,0.0,-2.6321,-2.5637,-2.5121,-2.4818,-2.4587,-2.4449,-2.4489,-2.448,-2.448,-2.4587,-2.4878,-2.5509,-2.6011,-2.6535,-2.7227,-2.7707,-2.8028,-2.8281,-2.8291,-2.8291,-2.8291,-2.8291,-2.8291,-2.8291,-2.8291,0.0,-2.8291,-2.8291,-2.8291,-2.8291,-2.8291,-2.8291,-2.8291,-2.8291,-2.8291,-2.8291,-2.8291,-2.8291,-2.8291,-2.8291,-2.8291,-2.8291,-2.8291,-2.8291,-2.8291,-2.8291,-2.8291,-2.8291,-2.8291,-2.8291,-2.8291,-2.8291,-2.8291,-2.8291,0.0,0.0,0.0,0.0,0.0,0.0,0.0,0.0,-3.2434,-3.3108,0.0,0.0,0.0,0.0,0.0,-3.181,-3.1784,-3.1473,-3.0737,-3.0495,-3.0292,-3.0113,-2.9895,-2.9792,-2.9792,-2.9239,-2.9189,-2.9792,-2.9189,-2.9239,-2.9792,-2.9792,-2.9792,-2.9792,-2.9792,-2.9792,-2.9792,0.0,-2.956,-2.9753,0.0,-2.9236,-2.9341,0.0,0.0,0.0,-2.8578,-2.851,0.0,-2.851,0.0,0.0,0.0,0.0,0.0,0.0,0.0,0.0,0.0,0.0,0.0,0.0,0.0,0.0,-2.6026,0.0,-2.4922,-2.4883,-2.4677,-2.4529,-2.4529,-2.4341,-2.435,-2.4833,-2.5291,-2.5809,-2.6465,-2.6958,-2.754,-2.8169,-2.8281,-2.8291,-2.8291,-2.8291,-2.8291,-2.8291,-2.8291,-2.8291,-2.8291,-2.8291,-2.8291,-2.8291,-2.8291,-2.8291,-2.8291,-2.8291,-2.8291,-2.8291,-2.8291,-2.8291,-2.8291,-2.8291,-2.8291,-2.8291,-2.8291,-2.8291,-2.8291,-2.8291,-2.8291,-2.8291,-2.8291,-2.8291,-2.8291,-2.8291,-2.8291,-2.8291,0.0,0.0,0.0,0.0,0.0,0.0,-3.3402,-3.3643,-3.3687,0.0,0.0,0.0,-3.2403,-3.2141,-3.1708,-3.107,-3.1007,-3.0904,-3.0711,-3.0495,-3.0292,-3.0113,-3.0049,-2.9934,-2.9792,-2.9641,-2.9628,-2.9792,-2.9628,-2.9641,-2.9792,-2.9792,-2.9792,0.0,-2.9792,-2.9792,-2.9792,-2.9702,0.0,-2.9509,-2.9573,-2.9456,0.0,0.0,0.0,0.0,0.0,-2.8724,-2.8685,0.0,-2.851,-2.851,0.0,0.0,0.0,0.0,0.0,0.0,-2.8143,0.0,0.0,0.0,0.0,0.0,0.0,0.0,-2.4775,-2.4875,-2.4833,-2.4784,-2.4784,-2.4735,-2.4745,-2.4883,-2.5133,-2.5443,-2.5819,-2.6517,-2.7127,-2.7559,-2.783,-2.8077,-2.8291,-2.8291,-2.8291,0.0,-2.8291,-2.8291,-2.8291,-2.8291,-2.8291,-2.8291,-2.8291,-2.8291,-2.8291,-2.8291,-2.8291,-2.8291,-2.8291,-2.8291,-2.8291,-2.8291,-2.8291,-2.8291,-2.8291,-2.8291,-2.8291,-2.8291,-2.8291,-2.8291,-2.8291,-2.8291,-2.8291,-2.8291,-2.8291,-2.8291,0.0,0.0,0.0,0.0,0.0,-3.2725,-3.3053,-3.3537,-3.3894,0.0,0.0,0.0,-3.2832,-3.2282,-3.1759,-3.132,-3.1011,-3.0849,-3.0849,-3.0647,-3.0457,-3.0356,-3.0267,-3.0113,-2.9934,-2.9656,-2.9617,-2.9792,-2.9553,-2.9553,-2.9792,-2.9792,-2.9792,0.0,0.0,0.0,0.0,0.0,0.0,0.0,-2.9534,0.0,0.0,-2.9314,-2.9236,0.0,0.0,0.0,-2.8882,-2.8697,-2.8578,0.0,0.0,0.0,0.0,0.0,0.0,0.0,0.0,0.0,0.0,0.0,0.0,0.0,-2.6435,-2.5625,-2.4919,0.0,-2.4981,-2.4883,-2.4735,-2.4735,-2.4686,-2.4637,-2.4892,-2.5258,-2.5688,-2.6145,-2.662,-2.7104,-2.7554,-2.7868,-2.8027,-2.8193,-2.8291,-2.8291,-2.8291,-2.8291,-2.8291,-2.8291,-2.8291,-2.8291,-2.8291,-2.8291,-2.8291,-2.8291,-2.8291,-2.8291,-2.8291,-2.8291,-2.8291,-2.8291,-2.8291,-2.8291,-2.8291,-2.8291,-2.8291,-2.8291,-2.8291,-2.8291,-2.8291,-2.8291,-2.8291,-2.8291,-2.8291,-2.8291,0.0,0.0,-3.1146,-3.1117,-3.1918,-3.2544,-3.2513,-3.2977,-3.3555,0.0,-3.3269,-3.2618,-3.2974,-3.2461,-3.211,-3.211,-3.1431,-3.0986,-3.0986,-3.0849,-3.0736,-3.0698,-3.0533,-3.033,-3.0113,-2.9568,-2.9454,-2.9792,-2.9277,-2.9289,-2.9792,-2.9792,-2.9792,-2.9792,0.0,0.0,0.0,0.0,0.0,-2.9702,-2.93,-2.9378,0.0,0.0,-2.9236,-2.938,-2.9157,-2.9091,-2.9052,-2.8843,-2.8657,0.0,0.0,0.0,0.0,0.0,-2.851,0.0,0.0,0.0,0.0,0.0,0.0,0.0,-2.6976,-2.6078,-2.5212,0.0,-2.5099,-2.4932,-2.4686,-2.4627,-2.4587,-2.4399,-2.4686,-2.5163,-2.5743,-2.5898,-2.6162,-2.6793,-2.7273,-2.7617,-2.7708,-2.7998,-2.8242,-2.8291,-2.8291,-2.8291,-2.8291,-2.8291,-2.8291,-2.8291,-2.8291,-2.8291,-2.8291,-2.8291,-2.8291,-2.8291,-2.8291,-2.8291,-2.8291,-2.8291,-2.8291,-2.8291,-2.8291,-2.8291,-2.8291,-2.8291,-2.8291,-2.8291,-2.8291,-2.8291,-2.8291,-2.8291,-2.8291,-2.8291,0.0,0.0,-3.1366,-3.1146,-3.2088,-3.283,-3.2544,-3.3454,-3.4113,-3.3948,-3.3402,-3.3087,-3.3157,-3.2506,-3.211,-3.211,-3.1431,-3.0986,-3.0986,-3.0949,-3.0874,-3.0698,-3.066,-3.0457,-3.0113,-2.9961,-2.9897,-2.9792,-2.9679,-2.9679,-2.9792,-2.9792,-2.9792,0.0,0.0,0.0,0.0,0.0,0.0,-2.947,-2.938,0.0,-2.9221,-2.9131,-2.9236,-2.9341,-2.9,-2.8961,-2.9052,-2.8657,-2.855,-2.851,0.0,0.0,0.0,-2.851,0.0,0.0,0.0,0.0,0.0,0.0,0.0,0.0,-2.6669,-2.6138,-2.5574,0.0,-2.5334,-2.5538,-2.5489,-2.5489,-2.544,-2.5391,-2.5284,-2.5117,-2.4839,-2.5239,-2.5736,-2.6133,-2.657,-2.7069,-2.7627,-2.7796,-2.793,-2.8271,-2.8291,-2.8291,-2.8291,-2.8291,-2.8291,-2.8291,-2.8291,-2.8291,-2.8291,-2.8291,-2.8291,-2.8291,-2.8291,-2.8291,-2.8291,-2.8291,-2.8291,-2.8291,-2.8291,-2.8291,-2.8291,-2.8291,-2.8291,-2.8291,-2.8291,-2.8291,-2.8291,-2.8291,-2.8291,-2.8291,0.0,-3.1721,-3.1871,-3.1723,-3.2697,-3.3427,-3.3267,-3.4054,-3.4601,-3.437,-3.3934,-3.3402,-3.272,-3.2326,-3.211,-3.211,-3.1431,-3.0986,-3.0986,-3.0986,-3.0949,-3.0849,-3.0849,-3.0647,-3.0254,-3.0254,-3.0113,-2.9792,-2.9792,-2.9792,-2.9792,-2.9792,-2.9792,0.0,0.0,0.0,0.0,0.0,-2.9702,-2.956,-2.9353,0.0,-2.9091,-2.9091,-2.9236,-2.938,-2.9184,-2.904,-2.8922,-2.8736,-2.8578,0.0,0.0,-2.851,-2.851,0.0,-2.851,-2.851,0.0,0.0,0.0,-2.851,0.0,0.0,0.0,-2.6259,-2.5474,-2.5521,-2.5339,-2.5237,-2.5294,-2.543,-2.544,-2.5333,-2.543,-2.5333,-2.4981,-2.521,-2.5492,-2.5808,-2.6235,-2.6635,-2.7012,-2.7217,-2.7519,-2.7949,-2.8174,-2.8291,-2.8291,-2.8291,-2.8291,-2.8291,-2.8291,-2.8291,-2.8291,-2.8291,-2.8291,-2.8291,-2.8291,-2.8291,-2.8291,-2.8291,-2.8291,-2.8291,-2.8291,-2.8291,-2.8291,-2.8291,-2.8291,-2.8291,-2.8291,-2.8291,-2.8291,-2.8291,-2.8291,-2.8291,-3.172,0.0,-3.2526,-3.2495,-3.3352,-3.4041,-3.3994,-3.4522,-3.482,-3.4587,-3.4051,-3.3297,0.0,0.0,0.0,0.0,0.0,-3.0986,-3.0986,-3.0986,-3.0986,-3.0986,-3.0986,-3.0798,-3.0406,-3.0406,-3.019,-2.9792,-2.9792,-2.9792,-2.9792,-2.9792,-2.9792,0.0,0.0,0.0,0.0,0.0,0.0,-2.9702,0.0,-2.917,-2.917,-2.9091,-2.9197,-2.9341,-2.9302,-2.9028,-2.8724,-2.8724,-2.8618,-2.851,-2.851,-2.851,0.0,0.0,0.0,0.0,0.0,0.0,0.0,0.0,0.0,-2.7247,0.0,0.0,0.0,-2.5528,0.0,0.0,0.0,0.0,0.0,-2.4974,0.0,0.0,0.0,-2.5285,0.0,-2.5693,-2.5996,-2.6239,-2.6387,-2.6768,-2.7197,-2.7679,-2.7978,-2.8203,-2.8291,-2.8291,-2.8291,-2.8291,-2.8291,-2.8291,-2.8291,-2.8291,-2.8291,-2.8291,-2.8291,-2.8291,-2.8291,-2.8291,-2.8291,-2.8291,-2.8291,-2.8291,-2.8291,-2.8291,-2.8291,-2.8291,-2.8291,-2.8291,-2.8291,-2.8291,-2.8291,-2.8291,-3.2512,-3.2901,0.0,-3.3195,-3.3743,-3.414,-3.4026,-3.4522,-3.4486,-3.3374,0.0,0.0,0.0,0.0,0.0,0.0,0.0,0.0,-3.0986,0.0,-3.0986,-3.0986,-3.0986,-3.0798,-3.0406,-3.0406,-3.019,-2.9792,-2.9792,-2.9792,-2.9792,-2.9792,-2.9792,0.0,-2.9792,0.0,0.0,0.0,-2.965,0.0,-2.938,-2.938,0.0,-2.917,-2.9091,-2.9131,-2.8922,-2.8724,-2.855,0.0,-2.851,-2.851,0.0,-2.851,-2.851,-2.851,0.0,0.0,0.0,0.0,0.0,0.0,-2.7846,0.0,0.0,0.0,-2.4893,-2.4222,0.0,0.0,0.0,0.0,0.0,0.0,0.0,0.0,-2.5148,-2.5237,-2.5391,-2.5693,-2.5528,-2.5662,-2.6348,-2.6768,-2.7197,-2.7679,-2.7767,-2.79,-2.8271,-2.8291,-2.8291,-2.8291,-2.8291,-2.8291,-2.8291,-2.8291,-2.8291,-2.8291,-2.8291,-2.8291,-2.8291,-2.8291,-2.8291,-2.8291,-2.8291,-2.8291,-2.8291,-2.8291,-2.8291,-2.8291,-2.8291,-2.8291,-2.8291,-2.8291,-2.8291,-2.8291,-3.3215,-3.3619,0.0,0.0,-3.4526,-3.4783,-3.4248,-3.4382,-3.4206,0.0,0.0,0.0,0.0,0.0,0.0,0.0,0.0,-3.0986,0.0,0.0,0.0,-3.0986,-3.0986,-3.0874,-3.0571,-3.0444,-3.0254,-2.9972,-2.9869,-2.9792,-2.9792,-2.9792,0.0,0.0,-2.9792,0.0,-2.9792,0.0,-2.974,0.0,0.0,0.0,0.0,-2.9157,-2.9013,-2.8922,-2.8843,-2.8657,-2.851,0.0,-2.851,0.0,0.0,0.0,0.0,0.0,0.0,0.0,0.0,0.0,0.0,0.0,0.0,0.0,-2.5902,0.0,-2.472,0.0,0.0,0.0,0.0,0.0,0.0,0.0,-2.5518,0.0,0.0,0.0,-2.5391,0.0,0.0,0.0,-2.5947,-2.6396,-2.6728,-2.6914,-2.7148,-2.7471,-2.791,-2.793,-2.8047,-2.8281,-2.8291,-2.8291,-2.8291,-2.8291,-2.8291,-2.8291,-2.8291,-2.8291,-2.8291,-2.8291,-2.8291,-2.8291,-2.8291,-2.8291,-2.8291,-2.8291,-2.8291,-2.8291,-2.8291,-2.8291,-2.8291,-2.8291,-2.8291,-2.8291,-3.4143,0.0,0.0,0.0,-3.5175,-3.5246,-3.4428,-3.4143,-3.3719,-3.3003,0.0,0.0,-3.1123,-3.0986,0.0,0.0,-3.0986,-3.0986,0.0,0.0,-3.0986,0.0,0.0,0.0,0.0,-3.0482,-3.0292,-3.0113,-2.9895,-2.9792,-2.9792,-2.9792,0.0,0.0,0.0,-2.9792,-2.9792,0.0,-2.9663,-2.9456,-2.9714,-2.9443,-2.8937,-2.8752,-2.8593,-2.8422,-2.8395,-2.8115,-2.7794,-2.8047,-2.7966,0.0,-2.701,0.0,0.0,0.0,0.0,0.0,-2.6805,0.0,0.0,0.0,0.0,0.0,0.0,0.0,0.0,0.0,0.0,0.0,0.0,0.0,0.0,0.0,0.0,-2.5645,0.0,-2.546,0.0,0.0,0.0,0.0,0.0,-2.6025,-2.626,-2.6377,-2.667,-2.709,-2.7689,-2.7718,-2.7861,-2.8281,-2.8291,-2.8291,-2.8291,-2.8291,-2.8291,-2.8291,-2.8291,-2.8291,-2.8291,-2.8291,-2.8291,-2.8291,-2.8291,-2.8291,-2.8291,-2.8291,-2.8291,-2.8291,-2.8291,-2.8291,-2.8291,-2.8291,-2.8291,-2.8291,-3.5444,-3.5459,0.0,0.0,0.0,-3.5246,-3.4428,-3.3699,-3.2967,-3.2218,0.0,0.0,0.0,0.0,0.0,0.0,0.0,-3.0986,-3.0986,0.0,-3.0986,0.0,0.0,-3.0911,0.0,0.0,-3.0292,-3.0113,-2.9895,-2.9792,-2.9792,-2.9792,0.0,0.0,-2.9792,-2.9792,-2.9792,-2.9792,-2.93,-2.8633,-2.9456,-2.9,-2.7851,0.0,-2.7557,-2.7516,-2.7336,0.0,0.0,-2.6928,-2.6629,0.0,0.0,0.0,0.0,0.0,0.0,0.0,0.0,0.0,0.0,-2.5777,0.0,0.0,0.0,0.0,-2.3144,0.0,0.0,0.0,0.0,0.0,0.0,0.0,0.0,0.0,0.0,0.0,0.0,0.0,0.0,0.0,0.0,-2.5703,-2.5937,-2.6357,-2.6396,-2.6777,-2.7669,-2.7718,-2.7861,-2.8281,-2.8291,-2.8291,-2.8291,-2.8291,-2.8291,-2.8291,-2.8291,-2.8291,-2.8291,-2.8291,-2.8291,-2.8291,-2.8291,-2.8291,-2.8291,-2.8291,-2.8291,-2.8291,-2.8291,-2.8291,-2.8291,-2.8291,-2.8291,-2.8291,0.0,0.0,0.0,0.0,0.0,-3.5246,-3.4428,-3.3665,-3.2932,0.0,-3.1882,0.0,0.0,-3.151,-3.151,0.0,0.0,-3.1392,-3.1013,-3.0986,0.0,0.0,0.0,-3.0911,0.0,0.0,0.0,0.0,0.0,-2.9792,-2.9792,0.0,0.0,0.0,0.0,-2.9792,0.0,0.0,0.0,0.0,0.0,-2.7891,-2.7971,0.0,-2.7017,-2.6359,-2.6287,-2.608,0.0,-2.6163,-2.608,-2.5704,-2.5115,-2.5326,-2.5704,-2.5115,-2.4956,-2.4956,0.0,0.0,-2.4016,-2.4016,0.0,0.0,0.0,0.0,0.0,0.0,0.0,0.0,0.0,0.0,0.0,0.0,0.0,0.0,0.0,0.0,0.0,0.0,0.0,0.0,0.0,0.0,-2.5752,-2.5947,-2.5957,-2.6211,-2.6787,-2.709,-2.7432,-2.7861,-2.8144,-2.8291,-2.8291,-2.8291,-2.8291,-2.8291,-2.8291,-2.8291,-2.8291,-2.8291,-2.8291,-2.8291,-2.8291,-2.8291,-2.8291,-2.8291,-2.8291,-2.8291,-2.8291,-2.8291,-2.8291,-2.8291,-2.8291,-2.8291,-3.5537,0.0,0.0,0.0,0.0,-3.4806,-3.4041,-3.3269,-3.2541,0.0,-3.1887,0.0,-3.1797,0.0,-3.2111,0.0,-3.1915,-3.1641,-3.1313,-3.1104,0.0,-3.0698,-3.0811,0.0,0.0,0.0,0.0,0.0,0.0,-2.9792,0.0,0.0,0.0,0.0,0.0,-2.9624,-2.9378,-2.9663,-2.8922,0.0,0.0,-2.673,0.0,0.0,-2.6348,-2.585,0.0,-2.5115,-2.4904,-2.5242,-2.5115,-2.4734,-2.4198,-2.4402,-2.4734,-2.4155,-2.3983,-2.3983,-2.3983,-2.356,0.0,-2.3091,-2.3091,0.0,-2.3091,0.0,-2.3091,0.0,0.0,0.0,0.0,0.0,0.0,0.0,0.0,0.0,0.0,-2.5693,0.0,0.0,0.0,0.0,0.0,-2.5693,-2.5693,-2.5693,-2.5693,-2.5879,-2.6367,-2.665,-2.706,-2.7699,-2.793,-2.8144,-2.8291,-2.8291,-2.8291,-2.8291,-2.8291,-2.8291,-2.8291,-2.8291,-2.8291,-2.8291,-2.8291,-2.8291,-2.8291,-2.8291,-2.8291,-2.8291,-2.8291,-2.8291,-2.8291,-2.8291,-2.8291,-2.8237,0.0,0.0,0.0,0.0,-3.4758,0.0,0.0,0.0,-3.1846,0.0,-3.1496,-3.1823,-3.1889,-3.2411,-3.2738,-3.2738,-3.2202,-3.1863,-3.1797,-3.1326,0.0,0.0,-3.0698,-3.0609,-3.0406,0.0,0.0,0.0,0.0,0.0,0.0,0.0,0.0,0.0,-2.9792,0.0,-2.8542,-2.9378,-2.8211,-2.5777,-2.5746,-2.5652,-2.5484,-2.5242,-2.5515,-2.5911,-2.4819,-2.3864,-2.3222,-2.4112,-2.382,-2.3091,-2.3091,-2.3091,-2.3091,-2.3091,-2.3091,-2.3091,-2.3091,-2.3091,-2.3091,-2.3091,-2.3091,0.0,0.0,0.0,-2.313,0.0,0.0,0.0,0.0,0.0,0.0,0.0,0.0,0.0,0.0,0.0,0.0,0.0,0.0,0.0,0.0,-2.5693,-2.5693,-2.5693,-2.5693,-2.5869,0.0,-2.6377,-2.6758,-2.763,-2.7699,-2.7861,-2.8262,-2.8281,-2.8291,-2.8291,-2.8291,-2.8291,-2.8291,-2.8291,-2.8291,-2.8291,-2.8291,-2.8291,-2.8291,-2.8291,-2.8291,-2.8291,-2.8291,-2.8237,-2.8237,-2.8237,-2.8184,-2.796,-3.4677,-3.4461,-3.4177,0.0,-3.361,-3.3248,0.0,0.0,0.0,0.0,-3.1706,-3.2137,-3.3051,-3.3273,-3.3365,-3.3365,-3.3221,0.0,0.0,0.0,0.0,-3.0724,-3.0698,-3.0609,-3.0406,-3.019,0.0,-3.0113,0.0,0.0,-2.9792,0.0,0.0,0.0,0.0,0.0,-2.8502,-2.8752,-2.7678,-2.5735,-2.5094,-2.5094,-2.5411,0.0,-2.4563,-2.4999,-2.3844,-2.3309,-2.3144,-2.3396,-2.3309,-2.3091,-2.3091,-2.3091,-2.3091,-2.3091,-2.3091,-2.3091,-2.3091,-2.3091,-2.3091,-2.3091,-2.3091,-2.3179,0.0,0.0,0.0,0.0,0.0,0.0,0.0,0.0,0.0,0.0,0.0,0.0,0.0,0.0,0.0,-2.5693,0.0,0.0,-2.5693,-2.5693,-2.5693,-2.5693,-2.5693,-2.5732,-2.5849,0.0,-2.6484,-2.6709,-2.7334,-2.7767,-2.7822,-2.8135,-2.8291,-2.8291,-2.8291,-2.8291,-2.8291,-2.8291,-2.8291,-2.8291,-2.8291,-2.8291,-2.8291,-2.8291,-2.8291,-2.8291,-2.8291,-2.7736,-2.6971,-2.6971,-2.64,-2.5562,-3.3905,0.0,0.0,-3.239,0.0,0.0,-3.211,-3.2025,0.0,-3.1797,-3.2241,0.0,-3.3522,-3.3809,-3.394,-3.394,-3.3483,0.0,-3.2254,0.0,0.0,-3.0584,-3.0571,-3.0419,-3.0152,-3.0049,0.0,-2.9972,0.0,0.0,-2.9792,0.0,0.0,0.0,0.0,-2.9339,-2.8462,-2.7678,-2.673,-2.5704,-2.4775,-2.4572,0.0,-2.4003,-2.3907,-2.4145,-2.3387,-2.3091,-2.3091,-2.3091,-2.3091,-2.3091,-2.3091,-2.3091,-2.3091,-2.3091,-2.3091,-2.3091,-2.3091,-2.2955,-2.2867,-2.3052,-2.2955,-2.2935,-2.3408,-2.3652,-2.3857,0.0,-2.4443,-2.4775,0.0,0.0,0.0,0.0,0.0,0.0,0.0,0.0,0.0,0.0,-2.5693,0.0,-2.5693,-2.5693,-2.5693,-2.5693,-2.5693,-2.5693,-2.5693,0.0,-2.6191,-2.6387,-2.7041,-2.7471,-2.7718,-2.8086,-2.8291,-2.8291,-2.8291,-2.8291,-2.8291,-2.8291,-2.8291,-2.8291,-2.8291,-2.8291,-2.8291,-2.8291,-2.8291,-2.8291,-2.8291,-2.7232,-2.5735,-2.5735,-2.5287,-2.4616,-3.3052,0.0,0.0,0.0,0.0,0.0,0.0,-3.19,0.0,-3.2019,0.0,-3.3626,-3.3692,-3.4123,-3.4397,-3.4397,0.0,-3.2777,-3.2698,-3.1692,-3.0863,-3.0444,-3.0406,-3.019,-2.9869,-2.9792,-2.9792,0.0,0.0,0.0,0.0,0.0,0.0,0.0,0.0,0.0,0.0,-2.6483,-2.5746,-2.5537,-2.4605,-2.4196,-2.411,-2.3677,-2.3503,-2.3416,-2.3188,-2.3091,-2.3091,-2.3091,-2.3091,-2.3091,-2.3091,-2.3091,-2.3091,-2.3091,-2.3052,-2.3013,-2.3013,-2.2711,-2.2529,-2.2906,-2.2783,-2.2637,-2.3071,-2.3516,-2.3809,-2.3857,-2.4512,-2.5116,0.0,0.0,0.0,0.0,0.0,0.0,0.0,0.0,0.0,0.0,0.0,0.0,0.0,-2.5693,-2.5693,-2.5693,-2.5693,-2.5693,-2.5693,0.0,-2.5908,-2.6299,-2.6709,-2.7139,-2.7578,-2.7998,-2.8232,-2.8291,-2.8291,-2.8291,-2.8291,-2.8291,-2.8291,-2.8291,-2.8291,-2.8291,-2.8291,-2.8291,-2.8291,-2.8291,-2.795,-2.6563,-2.4671,-2.4339,-2.4228,-2.4125,0.0,0.0,0.0,0.0,0.0,-3.245,-3.1934,-3.1809,-3.215,-3.3156,-3.347,-3.3757,-3.4201,-3.4345,-3.4397,-3.4397,-3.3809,0.0,0.0,0.0,0.0,-3.0673,-3.0343,-3.0113,-3.0049,-2.9869,-2.9792,0.0,0.0,0.0,0.0,0.0,0.0,0.0,0.0,0.0,-2.6235,-2.5944,0.0,-2.47,-2.454,-2.4239,-2.3841,-2.3797,-2.3493,-2.3144,-2.3135,-2.3091,-2.3091,-2.3091,-2.3091,-2.3091,-2.3091,-2.3091,-2.3091,-2.3091,-2.2847,-2.2627,-2.2627,-2.2314,-2.21,-2.2519,-2.2568,-2.2715,-2.3496,-2.374,-2.3887,-2.4238,-2.4717,-2.5116,-2.5116,0.0,0.0,0.0,0.0,0.0,0.0,0.0,0.0,0.0,0.0,-2.5693,0.0,0.0,-2.5693,-2.5693,-2.5693,-2.5693,0.0,0.0,-2.5723,0.0,-2.6269,-2.6699,0.0,0.0,-2.7949,-2.8291,-2.8291,-2.8291,-2.8291,-2.8291,-2.8291,-2.8291,-2.8291,-2.8291,-2.8291,-2.8291,-2.8291,-2.8121,-2.6118,-2.5058,-2.445,-2.2531,-2.1816,-2.1759,0.0,0.0,0.0,0.0,0.0,0.0,0.0,-3.2751,-3.2947,-3.3522,-3.3835,-3.411,-3.4371,-3.4397,-3.4397,-3.4397,-3.3613,-3.2972,-3.2553,-3.1643,-3.0893,-3.0394,-3.019,-3.0049,-2.9934,-2.9869,-2.9792,-2.9792,0.0,0.0,-2.9792,0.0,0.0,0.0,0.0,-2.7758,0.0,0.0,0.0,-2.4497,-2.4378,-2.4153,-2.3797,-2.3667,-2.3406,-2.3091,-2.3091,-2.3091,-2.3091,-2.3091,-2.3091,-2.3091,-2.3091,-2.2945,-2.2769,-2.2769,-2.2519,-2.2187,-2.2187,-2.1875,-2.165,-2.208,-2.2187,-2.2353,-2.2978,-2.3477,-2.3848,-2.4053,-2.4434,-2.4805,-2.5077,-2.5439,0.0,0.0,0.0,0.0,0.0,0.0,0.0,0.0,0.0,0.0,0.0,0.0,0.0,0.0,0.0,0.0,0.0,0.0,-2.5693,0.0,0.0,0.0,-2.7012,0.0,-2.7881,-2.8291,-2.8291,-2.8291,-2.8291,-2.8291,-2.8291,-2.8291,-2.8291,-2.8291,-2.8291,-2.8291,-2.8291,-2.813,-2.6345,-2.5232,-2.4505,-2.2749,-2.1767,-2.1211,0.0,-3.1078,0.0,0.0,-3.2006,-3.2489,-3.3456,-3.3692,-3.3757,-3.3757,-3.4136,-3.4397,-3.4397,-3.4397,-3.4345,-3.4241,-3.3246,-3.2527,-3.2212,-3.1177,-3.0432,-3.0113,-3.0049,-2.9972,-2.9792,-2.9792,-2.9792,0.0,0.0,0.0,0.0,0.0,0.0,0.0,0.0,0.0,0.0,0.0,-2.5306,-2.4497,-2.4325,-2.4067,-2.3797,-2.3624,-2.3363,-2.3081,-2.2994,-2.2964,-2.2945,-2.2857,-2.2886,-2.2964,-2.2964,-2.2715,-2.2383,-2.2383,-2.208,-2.1748,-2.1748,-2.1426,-2.1201,-2.1641,-2.1816,-2.1992,-2.2412,-2.3105,-2.3652,-2.3652,-2.3984,-2.4443,-2.5018,-2.5361,0.0,0.0,0.0,0.0,0.0,0.0,0.0,0.0,0.0,0.0,-2.5693,0.0,0.0,0.0,0.0,0.0,-2.5693,0.0,0.0,0.0,0.0,-2.6455,-2.6875,0.0,-2.7744,-2.8164,-2.8252,-2.8291,-2.8291,-2.8291,-2.8291,-2.8291,-2.8291,-2.8291,-2.8291,-2.8291,-2.813,-2.7799,-2.6572,-2.5406,-2.4172,-2.303,-2.2044,-2.1211,0.0,0.0,0.0,0.0,0.0,-3.347,-3.3574,-3.4005,-3.4332,-3.4332,-3.4358,-3.4397,-3.4397,-3.4397,-3.4201,-3.3705,-3.2917,-3.22,-3.1617,-3.0676,-3.0152,-3.0113,-2.9934,-2.983,-2.9792,-2.9792,-2.9792,0.0,0.0,-2.9528,0.0,0.0,0.0,0.0,0.0,0.0,0.0,-2.5505,-2.5306,-2.4497,-2.4497,-2.4186,-2.3797,-2.3797,-2.3493,-2.3042,-2.2705,-2.2568,-2.251,-2.2129,-2.2256,-2.2568,-2.2568,-2.2285,-2.1943,-2.1943,-2.1641,-2.1259,-2.1259,-2.0967,-2.0732,-2.1142,-2.1592,-2.1992,-2.2412,-2.2871,-2.3159,-2.3159,-2.3545,-2.4102,-2.4969,-2.5145,-2.5264,0.0,0.0,0.0,0.0,0.0,0.0,0.0,0.0,0.0,0.0,-2.5693,-2.5693,-2.5693,-2.5693,0.0,0.0,0.0,0.0,-2.5693,-2.5732,-2.6006,-2.6445,-2.6865,-2.7295,-2.7777,-2.8115,-2.8291,-2.8291,-2.8291,-2.8291,-2.8291,-2.8291,-2.8291,-2.8291,-2.8291,-2.7682,-2.6527,-2.5342,-2.4181,-2.303,-2.1816,-2.1318,-2.1211,0.0,0.0,0.0,0.0,0.0,0.0,0.0,-3.4254,-3.4397,-3.4397,-3.4397,-3.4397,-3.4397,-3.4397,-3.4134,-3.3504,-3.2797,-3.2028,-3.1213,-3.0496,-3.0049,-2.9934,-2.983,-2.9792,-2.9792,-2.9792,-2.9792,0.0,0.0,0.0,0.0,0.0,0.0,0.0,0.0,-2.5913,-2.5263,-2.5094,-2.4818,-2.4497,-2.4497,-2.4239,-2.3767,-2.3506,-2.315,-2.2705,-2.2285,-2.2139,-2.2109,-2.1943,-2.2002,-2.2139,-2.2139,-2.1846,-2.1494,-2.1494,-2.1182,-2.083,-2.083,-2.0742,-2.0644,-2.0791,-2.1367,-2.1934,-2.21,-2.2656,-2.3091,-2.3091,-2.3486,-2.3896,-2.4238,-2.4763,-2.5127,-2.5303,0.0,0.0,0.0,0.0,0.0,0.0,0.0,0.0,0.0,-2.5693,-2.5693,-2.5693,0.0,0.0,0.0,0.0,0.0,-2.5693,0.0,-2.5947,-2.6387,-2.6807,-2.7236,-2.7718,-2.8096,-2.8291,-2.8291,-2.8291,-2.8291,-2.8291,-2.8291,-2.8291,-2.8291,-2.8291,-2.7574,-2.6354,-2.5177,-2.4014,-2.2869,-2.1653,-2.1211,-2.1211,-3.1941,0.0,-3.262,0.0,-3.3731,-3.3953,-3.4332,-3.4397,-3.4397,-3.4397,-3.4397,-3.4397,-3.4397,-3.4397,-3.4014,-3.3135,-3.2573,-3.1832,-3.0748,-3.0265,-2.9934,-2.9792,-2.9792,0.0,-2.9792,-2.9792,-2.9792,-2.9792,-2.9546,0.0,0.0,0.0,0.0,0.0,-2.5799,-2.5421,-2.539,-2.4786,-2.4497,-2.4497,-2.4497,-2.4157,-2.3576,-2.3307,-2.2822,-2.2275,-2.1846,-2.1699,-2.168,-2.1543,-2.1535,-2.1523,-2.165,-2.1396,-2.1035,-2.1035,-2.081,-2.0605,-2.0605,-2.0605,-2.0605,-2.0605,-2.1133,-2.1728,-2.1855,-2.2441,-2.2945,-2.3071,-2.3379,-2.3633,-2.3769,-2.4287,-2.4822,-2.5077,0.0,0.0,0.0,-2.5693,0.0,0.0,-2.5693,-2.5693,-2.5693,-2.5693,-2.5693,-2.5693,0.0,0.0,0.0,0.0,0.0,0.0,0.0,0.0,-2.6191,-2.6621,-2.6982,-2.7346,-2.7851,-2.8105,-2.8115,-2.8232,-2.8291,-2.8291,-2.8291,-2.8291,-2.8291,-2.8291,-2.7403,-2.5908,-2.5003,-2.3799,-2.2377,-2.1482,-2.1211,-2.1211,-3.2568,-3.3156,-3.3574,-3.3587,-3.4031,-3.4384,-3.4397,-3.4397,-3.4397,-3.4397,-3.4397,-3.4397,-3.4397,-3.4397,-3.3858,-3.2537,-3.222,-3.1533,-3.0202,-2.9908,-2.9792,0.0,0.0,-2.9792,-2.9792,-2.9792,-2.9792,-2.9792,0.0,0.0,-2.7606,0.0,-2.533,-2.5788,-2.4903,-2.4497,-2.4497,-2.4497,-2.4497,-2.4497,-2.4497,-2.3973,-2.3207,-2.3197,-2.2675,-2.1836,-2.1356,-2.12,-2.1132,-2.0732,-2.0625,-2.0703,-2.1064,-2.0937,-2.0615,-2.0615,-2.0605,-2.0605,-2.0605,-2.0605,-2.0605,-2.0605,-2.0908,-2.1317,-2.1787,-2.2217,-2.2637,-2.3013,-2.3101,-2.3237,-2.3711,-2.3799,-2.4082,-2.4979,0.0,0.0,0.0,0.0,0.0,-2.5693,-2.5693,-2.5693,-2.5693,-2.5693,0.0,0.0,0.0,0.0,0.0,0.0,0.0,-2.5693,-2.5693,0.0,-2.5693,-2.6172,-2.6396,-2.6416,-2.7266,-2.7728,-2.7738,-2.8105,-2.8291,-2.8291,-2.8291,-2.8291,-2.8291,-2.8291,-2.6898,-2.4718,-2.4727,-2.3295,-2.1211,-2.1211,-2.1211,-2.1211,-3.3195,-3.3456,-3.3705,-3.4071,-3.428,-3.4356,-3.4243,-3.4202,-3.4147,-3.3937,-3.3924,-3.3924,-3.3924,-3.4076,-3.361,0.0,-3.1926,-3.1347,0.0,-2.983,-2.9792,-2.9792,-2.9792,-2.9792,-2.9792,-2.9209,-2.9209,-2.9792,0.0,0.0,0.0,-2.5796,-2.5313,-2.4903,-2.4615,-2.4497,-2.4497,-2.4497,-2.4497,-2.4476,-2.4209,-2.3834,-2.3326,-2.2605,-2.2039,-2.1538,-2.0977,-2.0781,-2.0752,-2.0654,-2.0605,-2.0625,-2.0732,-2.0684,-2.0605,-2.0605,-2.0605,-2.0605,-2.0605,-2.0605,-2.0605,-2.0605,-2.0898,-2.1307,-2.1787,-2.2432,-2.2935,-2.3062,-2.3091,-2.314,-2.3276,-2.3584,-2.3975,-2.4531,-2.4873,0.0,-2.5625,0.0,0.0,0.0,-2.5693,-2.5693,-2.5693,-2.5693,0.0,0.0,0.0,0.0,0.0,0.0,0.0,0.0,-2.5693,0.0,-2.5283,-2.6016,-2.624,-2.5908,-2.6816,-2.7373,-2.7738,-2.8096,-2.8291,-2.8291,-2.8291,-2.8291,-2.8237,-2.7403,-2.6127,-2.4616,-2.3847,-2.2587,-2.1211,-2.1211,-2.1211,-2.1211,-3.3731,-3.3901,-3.4005,-3.4332,-3.4397,-3.4356,-3.4243,-3.416,-3.4034,-3.3852,-3.3755,-3.367,-3.3598,-3.3546,0.0,-3.1894,-3.1818,-3.1227,-2.9906,-2.9792,-2.9792,-2.9792,-2.9792,-2.9663,-2.9326,-2.8791,0.0,-2.8803,-2.7313,-2.6163,-2.5306,-2.5306,-2.502,-2.4497,-2.4497,-2.4497,-2.4497,-2.4497,-2.4404,-2.4271,-2.3991,-2.3505,-2.2839,-2.217,-2.161,-2.1095,-2.0742,-2.0605,-2.0605,-2.0605,-2.0605,-2.0605,-2.0605,-2.0605,-2.0605,-2.0605,-2.0605,-2.0605,-2.0605,-2.0605,-2.0605,-2.0605,-2.0781,-2.1143,-2.1748,-2.2412,-2.2906,-2.3062,-2.3091,-2.3091,-2.3091,-2.3315,-2.374,-2.4326,-2.4648,-2.5039,-2.5606,0.0,0.0,0.0,0.0,0.0,0.0,-2.5693,-2.5693,0.0,0.0,0.0,0.0,0.0,-2.5693,-2.5693,-2.5693,-2.5605,-2.5322,-2.5869,-2.6006,-2.5693,-2.6445,-2.709,-2.7728,-2.7939,-2.8144,-2.8291,-2.8291,-2.8014,-2.7574,-2.6799,-2.5525,-2.4014,-2.3303,-2.2263,-2.1211,-2.1211,-2.1211,-2.1211,-3.4071,-3.428,-3.428,-3.428,-3.428,-3.428,-3.4238,-3.4085,-3.3917,-3.3917,-3.3694,-3.3471,-3.3271,-3.2827,-3.2282,-3.1764,0.0,0.0,-2.9893,-2.9792,-2.9792,-2.9792,-2.9753,-2.9339,-2.8502,-2.8383,-2.7839,-2.6905,-2.6152,-2.5337,-2.4497,-2.4497,-2.4497,-2.4497,-2.4497,-2.4497,-2.4497,-2.4497,-2.4281,-2.3919,-2.3846,-2.3053,-2.1909,-2.1839,-2.1332,-2.0605,-2.0605,-2.0605,-2.0605,-2.0605,-2.0605,-2.0605,-2.0605,-2.0605,-2.0605,-2.0605,-2.0605,-2.0605,-2.0605,-2.0605,-2.0605,-2.0605,-2.0625,-2.0869,-2.1689,-2.2207,-2.2627,-2.3013,-2.3091,-2.3091,-2.3091,-2.3091,-2.3374,-2.4277,-2.4414,-2.468,-2.5567,-2.5693,-2.5693,0.0,0.0,0.0,-2.5693,-2.5693,-2.5693,0.0,0.0,0.0,0.0,0.0,-2.5693,-2.5693,-2.5693,-2.5674,-2.5645,-2.5674,-2.5693,-2.5693,-2.6182,-2.6807,-2.763,-2.7584,-2.7775,-2.8135,-2.8057,-2.7403,-2.6354,-2.63,-2.4974,-2.2974,-2.2926,-2.2207,-2.1211,-2.1211,-2.1211,-2.1211,-3.3038,0.0,-3.3091,-3.3091,-3.2983,-3.2822,-3.2673,-3.247,-3.2294,-3.2076,-3.1981,-3.194,-3.187,-3.1744,-3.1455,-3.0926,-3.0876,-3.0599,-2.9842,-2.9792,-2.9792,-2.9792,-2.917,-2.8712,-2.8502,-2.7139,-2.5997,-2.5115,-2.5589,-2.5337,-2.4497,-2.4497,-2.4497,-2.4497,-2.4497,-2.4497,-2.4497,-2.4497,-2.4281,-2.3846,-2.333,-2.2726,-2.2076,-2.138,-2.0995,-2.0819,-2.0654,-2.0605,-2.0605,-2.0605,-2.0605,-2.0605,-2.0605,-2.0605,-2.0605,-2.0605,-2.0605,-2.0605,-2.0605,-2.0605,-2.0605,-2.0605,-2.082,-2.1221,-2.1768,-2.2207,-2.2627,-2.3013,-2.3091,-2.3091,-2.3091,-2.3091,-2.3374,-2.4277,-2.4414,-2.468,-2.5567,-2.5693,-2.5693,0.0,-2.5693,-2.5693,-2.5693,-2.5693,-2.5693,0.0,0.0,-2.5693,-2.5693,-2.5693,-2.5693,-2.5693,-2.5693,-2.5528,-2.5234,-2.5566,-2.5693,-2.5693,-2.6182,-2.6494,-2.6709,-2.6451,-2.6368,-2.6417,-2.5828,-2.5397,-2.5067,-2.4197,-2.348,-2.2926,-2.1987,-2.1432,-2.1211,-2.1211,-2.1211,-2.1211,-3.2646,-3.2619,-3.2579,-3.2579,-3.242,-3.222,-3.21,-3.1939,-3.1737,-3.1602,-3.148,-3.1386,-3.1386,-3.1173,-3.0748,-3.0087,-3.0356,-3.0382,-2.9829,-2.9417,-2.9209,-2.9209,-2.8343,-2.7678,-2.7261,-2.6318,-2.5379,-2.4497,-2.4978,-2.4978,-2.4497,-2.4497,-2.4497,-2.4497,-2.4497,-2.4497,-2.4487,-2.4195,-2.3803,-2.3361,-2.2696,-2.2129,-2.1547,-2.1073,-2.0829,-2.0741,-2.0644,-2.0605,-2.0605,-2.0605,-2.0605,-2.0605,-2.0605,-2.0605,-2.0605,-2.0605,-2.0605,-2.0605,-2.0605,-2.0605,-2.0605,-2.0605,-2.0752,-2.1094,-2.1738,-2.206,-2.2402,-2.2974,-2.3091,-2.3091,-2.3091,-2.3091,-2.3374,-2.4277,-2.4414,-2.468,-2.5567,-2.5693,-2.5693,-2.5693,-2.5693,-2.5693,-2.5693,-2.5693,-2.5693,-2.5693,-2.5693,0.0,-2.5693,-2.5693,-2.5693,-2.5693,-2.5693,-2.5625,-2.5371,-2.5567,-2.5693,-2.5693,-2.5977,-2.6191,-2.6356,-2.5839,-2.5695,-2.5852,-2.5066,-2.4394,-2.3855,-2.3247,-2.2644,-2.2093,-2.1489,-2.1211,-2.1211,-2.1211,-2.1211,-2.1211,-3.2306,-3.224,-3.2095,-3.2095,-3.191,-3.1791,-3.1791,-3.1643,-3.1483,-3.1483,-3.1322,-3.1148,-3.1148,-3.0758,-3.0152,-2.9258,-2.9859,-3.0044,-2.9454,-2.8712,-2.8291,-2.8291,-2.7395,-2.6577,-2.583,-2.5663,-2.5221,-2.4497,-2.4497,-2.4497,-2.4497,-2.4497,-2.4497,-2.4497,-2.4497,-2.4466,-2.4373,-2.377,-2.3227,-2.2737,-2.211,-2.145,-2.0906,-2.0867,-2.0741,-2.0605,-2.0605,-2.0605,-2.0605,-2.0605,-2.0605,-2.0605,-2.0605,-2.0605,-2.0605,-2.0605,-2.0605,-2.0605,-2.0605,-2.0605,-2.0605,-2.0605,-2.0605,-2.084,-2.1689,-2.1885,-2.2129,-2.2925,-2.3091,-2.3091,-2.3091,-2.3091,-2.3374,-2.4277,-2.4414,-2.468,-2.5567,0.0,-2.5693,-2.5693,-2.5693,-2.5693,-2.5693,-2.5693,-2.5693,-2.5693,-2.5693,-2.5693,-2.5693,-2.5693,-2.5693,-2.5693,-2.5693,-2.5693,-2.5693,-2.5693,-2.5693,-2.5693,-2.5693,-2.583,-2.604,-2.5237,-2.5008,-2.5219,-2.4432,-2.3582,-2.27,-2.27,-2.2093,-2.1211,-2.1211,-2.1211,-2.1211,-2.1211,-2.1211,-2.1211,-3.0982,-3.0867,-3.0701,-3.0701,-3.056,-3.0406,-3.0406,-3.0225,-3.0121,-3.0121,-3.0082,-3.0043,-3.0043,-2.9967,-2.958,-2.8702,-2.8754,-2.8467,-2.7568,-2.7395,-2.7313,-2.7313,-2.6483,-2.5944,-2.5777,-2.5105,-2.4625,-2.4497,-2.4497,-2.4497,-2.4497,-2.4497,-2.4497,-2.4497,-2.4497,-2.4333,-2.3971,-2.3637,-2.3043,-2.2288,-2.1839,-2.1362,-2.0867,-2.0693,-2.0644,-2.0605,-2.0605,-2.0605,-2.0605,-2.0605,-2.0605,-2.0605,-2.0605,-2.0605,-2.0605,-2.0605,-2.0605,-2.0605,-2.0605,-2.0605,-2.0605,-2.0605,-2.0605,-2.084,-2.1689,-2.1885,-2.2129,-2.2925,-2.3091,-2.3091,-2.3091,-2.3091,-2.3374,-2.4277,-2.4414,-2.468,-2.5567,0.0,-2.5693,-2.5693,-2.5693,-2.5693,-2.5693,-2.5693,-2.5693,-2.5693,-2.5693,-2.5693,-2.5693,-2.5693,-2.5693,-2.5693,-2.5693,-2.5693,-2.5693,-2.5693,-2.5693,-2.5693,-2.5693,-2.5254,-2.4405,-2.3688,-2.3035,-2.2398,-2.1624,-2.1391,-2.1489,-2.1489,-2.1375,-2.1211,-2.1211,-2.1211,-2.1211,-2.1211,-2.1211,-2.1211,-3.0698,-3.0457,-3.0228,-3.0228,-3.0075,-2.9934,-2.9934,-2.9869,-2.9792,-2.9792,-2.9792,-2.9792,-2.9792,-2.9792,-2.926,-2.7891,-2.777,-2.7151,-2.581,-2.6121,-2.64,-2.64,-2.5547,-2.5105,-2.5105,-2.47,-2.4497,-2.4497,-2.4497,-2.4497,-2.4497,-2.4497,-2.4497,-2.4487,-2.4291,-2.4074,-2.3846,-2.3012,-2.2413,-2.1968,-2.1312,-2.0948,-2.0731,-2.0644,-2.0605,-2.0605,-2.0605,-2.0605,-2.0605,-2.0605,-2.0605,-2.0605,-2.0605,-2.0605,-2.0605,-2.0605,-2.0605,-2.0605,-2.0605,-2.0605,-2.0605,-2.0605,-2.0605,-2.084,-2.1689,-2.1885,-2.2129,-2.2925,-2.3091,-2.3091,-2.3091,-2.3091,-2.3374,-2.4277,-2.4414,-2.468,-2.5567,-2.5693,-2.5693,-2.5693,-2.5693,-2.5693,-2.5693,-2.5693,-2.5693,-2.5693,-2.5693,-2.5693,-2.5693,-2.5693,-2.5693,-2.5693,-2.5693,-2.5693,-2.5693,-2.5693,-2.543,-2.4864,-2.4864,-2.4304,-2.3203,-2.2476,-2.2014,-2.178,-2.101,-2.0911,-2.1211,-2.1211,-2.1211,-2.1211,-2.1211,-2.1211,-2.1211,-2.1211,-2.1211,-2.1211,-3.0546,-3.0279,-3.0049,-3.0049,-2.9895,-2.9792,-2.9792,-2.9792,-2.9792,-2.9792,-2.9792,-2.9702,-2.9534,-2.9507,-2.8752,-2.6946,-2.6823,-2.6121,-2.4583,-2.5147,-2.5505,-2.5505,-2.4861,-2.4497,-2.4497,-2.4497,-2.4497,-2.4497,-2.4497,-2.4497,-2.4497,-2.4497,-2.4497,-2.4476,-2.4032,-2.3774,-2.3588,-2.2362,-2.1769,-2.1619,-2.0898,-2.0605,-2.0605,-2.0605,-2.0605,-2.0605,-2.0605,-2.0605,-2.0605,-2.0605,-2.0605,-2.0605,-2.0605,-2.0605,-2.0605,-2.0605,-2.0605,-2.0605,-2.0605,-2.0605,-2.0605,-2.0605,-2.0605,-2.084,-2.1689,-2.1885,-2.2129,-2.2925,-2.3091,-2.3091,-2.3091,-2.3091,-2.3374,-2.4277,0.0,-2.468,-2.5567,-2.5693,-2.5693,-2.5693,-2.5693,-2.5693,-2.5693,-2.5693,-2.5693,-2.5693,-2.5693,-2.5693,-2.5693,-2.5693,-2.5693,-2.5693,-2.5693,-2.5693,-2.5693,-2.5693,-2.5177,-2.4088,-2.4088,-2.3393,-2.2097,-2.1517,-2.1317,-2.141,-2.0818,-2.0837,-2.1211,-2.1211,-2.1211,-2.1211,-2.1211,-2.1211,-2.1211,-2.1211,-2.1211,-2.1211,-3.0152,-2.9972,-2.983,-2.983,-2.9792,-2.9792,-2.9792,-2.9792,-2.9792,-2.9792,-2.9792,-2.9495,-2.8661,-2.8581,-2.7891,-2.6069,-2.5902,-2.5505,-2.4583,-2.4583,-2.4583,-2.4583,-2.454,-2.4497,-2.4497,-2.4497,-2.4497,-2.4497,-2.4497,-2.4497,-2.4497,-2.4497,-2.4497,-2.4476,-2.3811,-2.3298,-2.2931,-2.202,-2.1382,-2.0956,-2.0702,-2.0605,-2.0605,-2.0605,-2.0605,-2.0605,-2.0605,-2.0605,-2.0605,-2.0605,-2.0605,-2.0605,-2.0605,-2.0605,-2.0605,-2.0605,-2.0605,-2.0605,-2.0605,-2.0605,-2.0605,-2.0605,-2.0605,-2.084,-2.1689,-2.1885,-2.2129,-2.2925,-2.3091,-2.3091,-2.3091,-2.3091,-2.3374,-2.4277,0.0,0.0,-2.5567,-2.5693,-2.5693,-2.5693,-2.5693,-2.5693,-2.5693,-2.5693,-2.5693,-2.5693,-2.5693,-2.5693,-2.5693,-2.5693,-2.5693,-2.5693,-2.5693,-2.5693,-2.5693,-2.5693,-2.5177,-2.4088,-2.4088,-2.3035,-2.1038,-2.096,-2.073,-2.0292,-2.0259,-2.057,-2.1211,-2.1211,-2.1211,-2.1211,-2.1211,-2.1211,-2.1211,-2.1211,-2.1211,-2.1211,-3.0113,-2.9934,-2.9792,-2.9792,-2.9792,-2.9624,-2.9079,-2.9456,-2.9417,-2.8263,-2.8633,-2.8673,-2.7718,-2.7637,-2.7151,-2.5913,-2.5777,-2.5421,-2.454,-2.4497,-2.4497,-2.4497,-2.4497,-2.4497,-2.4497,-2.4497,-2.4497,-2.4497,-2.4497,-2.4497,-2.4497,-2.4497,-2.4411,-2.4294,-2.3483,-2.2941,-2.2605,-2.16,-2.1055,-2.0867,-2.0693,-2.0605,-2.0605,-2.0605,-2.0605,-2.0605,-2.0605,-2.0605,-2.0605,-2.0605,-2.0605,-2.0605,-2.0605,-2.0605,-2.0605,-2.0605,-2.0605,-2.0605,-2.0605,-2.0605,-2.0605,-2.0605,-2.0605,-2.084,-2.1689,-2.1885,-2.2129,-2.2925,-2.3091,-2.3091,-2.3091,-2.3091,-2.3374,-2.4277,0.0,-2.468,-2.5567,-2.5693,-2.5693,-2.5693,-2.5693,-2.5693,-2.5693,-2.5693,-2.5693,-2.5693,-2.5693,-2.5693,-2.5693,-2.5693,-2.5693,-2.5693,-2.5693,-2.5693,-2.5693,-2.502,-2.4146,-2.3085,-2.2433,-2.1336,-1.9931,-1.9931,-1.9926,-1.9952,-2.015,-2.0438,-2.0925,-2.1123,-2.1211,-2.1211,-2.1211,-2.1211,-2.1211,-2.1211,-2.1211,-2.1211,-3.0011,-2.9908,-2.9702,-2.9456,-2.9378,-2.9079,-2.8211,-2.8593,-2.8514,-2.7273,-2.7637,-2.7718,-2.6771,-2.6689,-2.6318,-2.5463,-2.5379,-2.5147,-2.454,-2.4497,-2.4497,-2.4497,-2.4497,-2.4497,-2.4497,-2.4497,-2.4497,-2.4497,-2.4497,-2.4497,-2.4497,-2.4497,-2.4368,-2.4166,-2.3226,-2.2666,-2.235,-2.1263,-2.0819,-2.078,-2.0654,-2.0605,-2.0605,-2.0605,-2.0605,-2.0605,-2.0605,-2.0605,-2.0605,-2.0605,-2.0605,-2.0605,-2.0605,-2.0605,-2.0605,-2.0605,-2.0605,-2.0605,-2.0605,-2.0605,-2.0605,-2.0605,-2.0605,-2.084,-2.1689,-2.1885,-2.2129,-2.2925,-2.3091,-2.3091,-2.3091,-2.3091,-2.3335,-2.4102,-2.4336,-2.4678,-2.542,-2.5596,-2.5693,-2.5693,-2.5693,-2.5693,-2.5693,-2.5693,-2.5693,-2.5693,-2.5693,-2.5693,-2.5693,-2.5693,-2.5693,-2.5693,-2.5693,-2.5693,-2.5693,-2.4658,-2.3543,-2.2492,-2.1438,-2.0336,-1.9279,-1.9279,-1.9455,-1.983,-2.0098,-2.0365,-2.075,-2.1079,-2.1211,-2.1211,-2.1211,-2.1211,-2.1211,-2.1211,-2.1211,-2.1211,-2.9792,-2.9792,-2.9546,-2.8661,-2.8502,-2.8171,-2.7232,-2.711,-2.711,-2.7069,-2.711,-2.6782,-2.5861,-2.5788,-2.5421,-2.4583,-2.4497,-2.4497,-2.4497,-2.4497,-2.4497,-2.4497,-2.4497,-2.4497,-2.4497,-2.4497,-2.4497,-2.4497,-2.4497,-2.4497,-2.4497,-2.4497,-2.4368,-2.4166,-2.307,-2.2461,-2.2145,-2.1056,-2.0605,-2.0605,-2.0605,-2.0605,-2.0605,-2.0605,-2.0605,-2.0605,-2.0605,-2.0605,-2.0605,-2.0605,-2.0605,-2.0605,-2.0605,-2.0605,-2.0605,-2.0605,-2.0605,-2.0605,-2.0605,-2.0605,-2.0605,-2.0605,-2.0605,-2.084,-2.1689,-2.1885,-2.2129,-2.2925,-2.3091,-2.3091,-2.3091,-2.3091,-2.3237,-2.3721,-2.4141,-2.457,-2.501,-2.5449,-2.5693,-2.5693,-2.5693,-2.5693,-2.5693,-2.5693,-2.5693,-2.5693,-2.5693,-2.5693,-2.5693,-2.5693,-2.5693,-2.5693,-2.5693,-2.5693,-2.5693,-2.4658,-2.3543,-2.2492,-2.1438,-2.0336,-1.9279,-1.9279,-1.9455,-1.983,-2.0098,-2.0365,-2.0742,-2.1079,-2.1211,-2.1211,-2.1211,-2.1211,-2.1211,-2.1211,-2.1211,-2.1211,-2.9792,-2.9792,-2.9546,-2.8661,-2.8502,-2.7971,-2.6442,-2.6689,-2.6659,-2.5443,-2.5799,-2.5872,-2.4978,-2.4903,-2.4775,-2.454,-2.4497,-2.4497,-2.4497,-2.4497,-2.4497,-2.4497,-2.4497,-2.4497,-2.4497,-2.4497,-2.4497,-2.4497,-2.4497,-2.4497,-2.4497,-2.4497,-2.4282,-2.3897,-2.2977,-2.2379,-2.195,-2.0987,-2.0605,-2.0605,-2.0605,-2.0605,-2.0605,-2.0605,-2.0605,-2.0605,-2.0605,-2.0605,-2.0605,-2.0605,-2.0605,-2.0605,-2.0605,-2.0605,-2.0605,-2.0605,-2.0605,-2.0605,-2.0605,-2.0605,-2.0605,-2.0605,-2.0605,-2.084,-2.1689,-2.1885,-2.2129,-2.2925,-2.3091,-2.3091,-2.3091,-2.3091,-2.3237,-2.3721,-2.4141,-2.457,-2.501,-2.5449,-2.5693,-2.5693,-2.5693,-2.5693,-2.5693,-2.5693,-2.5693,-2.5693,-2.5693,-2.5693,-2.5693,-2.5693,-2.5693,-2.5693,-2.5693,-2.5693,-2.5693,-2.4658,-2.3543,-2.2492,-2.1438,-2.0336,-1.9279,-1.9279,-1.933,-1.95,-2.0003,-2.0241,-2.0365,-2.0984,-2.1211,-2.1211,-2.1211,-2.1211,-2.1211,-2.1211,-2.1211,-2.1211,-2.9792,-2.9534,-2.9,-2.8091,-2.7678,-2.6935,-2.5505,-2.5715,-2.5684,-2.4625,-2.4946,-2.5105,-2.454,-2.4497,-2.4497,-2.4497,-2.4497,-2.4497,-2.4497,-2.4497,-2.4497,-2.4497,-2.4497,-2.4497,-2.4497,-2.4497,-2.4497,-2.4497,-2.4497,-2.4454,-2.4368,-2.4368,-2.4153,-2.3627,-2.281,-2.2256,-2.1826,-2.0977,-2.0605,-2.0605,-2.0605,-2.0605,-2.0605,-2.0605,-2.0605,-2.0605,-2.0605,-2.0605,-2.0605,-2.0605,-2.0605,-2.0605,-2.0605,-2.0605,-2.0605,-2.0605,-2.0605,-2.0605,-2.0605,-2.0605,-2.0605,-2.0605,-2.0605,-2.084,-2.1689,-2.1885,-2.2129,-2.2925,-2.3091,-2.3091,-2.3091,-2.3091,-2.3179,-2.3486,-2.4033,-2.4512,-2.4775,-2.5342,-2.5693,-2.5693,-2.5693,-2.5693,-2.5693,-2.5693,-2.5693,-2.5693,-2.5693,-2.5693,-2.5693,-2.5693,-2.5693,-2.5693,-2.5693,-2.5693,-2.5693,-2.4658,-2.3543,-2.2484,-2.0987,-1.9931,-1.9279,-1.9279,-1.9279,-1.9308,-1.9959,-2.0183,-2.0227,-2.094,-2.1211,-2.1211,-2.1211,-2.1211,-2.1211,-2.1211,-2.1211,-2.1211,-2.9716,-2.9042,-2.8211,-2.7273,-2.6359,-2.5505,-2.4615,-2.4497,-2.4497,-2.4497,-2.4497,-2.4497,-2.4497,-2.4497,-2.4497,-2.4497,-2.4497,-2.4497,-2.4497,-2.4497,-2.4497,-2.4497,-2.4497,-2.4497,-2.4497,-2.4497,-2.4497,-2.4497,-2.4497,-2.4368,-2.4206,-2.4163,-2.3937,-2.3464,-2.2591,-2.2081,-2.1826,-2.0977,-2.0605,-2.0605,-2.0605,-2.0605,-2.0605,-2.0605,-2.0605,-2.0605,-2.0605,-2.0605,-2.0605,-2.0605,-2.0605,-2.0605,-2.0605,-2.0605,-2.0605,-2.0605,-2.0605,-2.0605,-2.0605,-2.0605,-2.0605,-2.0605,-2.0605,-2.084,-2.1689,-2.1885,-2.2129,-2.2925,-2.3091,-2.3091,-2.3091,-2.3091,-2.3091,-2.3091,-2.3812,-2.4414,-2.4414,-2.5128,-2.5693,-2.5693,-2.5693,-2.5693,-2.5693,-2.5693,-2.5693,-2.5693,-2.5693,-2.5693,-2.5693,-2.5693,-2.5693,-2.5693,-2.5693,-2.5635,-2.5586,-2.4501,-2.3493,-2.2484,-2.0431,-1.9376,-1.9279,-1.9279,-1.9279,-1.9308,-1.9959,-2.0183,-2.0227,-2.094,-2.1211,-2.1211,-2.1211,-2.1211,-2.1211,-2.1211,-2.1211,-2.1211,-2.9076,-2.8784,-2.8211,-2.7273,-2.6359,-2.5505,-2.4615,-2.4497,-2.4497,-2.4497,-2.4497,-2.4497,-2.4497,-2.4497,-2.4497,-2.4497,-2.4497,-2.4497,-2.4497,-2.4497,-2.4497,-2.4497,-2.4497,-2.4497,-2.4497,-2.4497,-2.4497,-2.4497,-2.4335,-2.4249,-2.4206,-2.398,-2.3754,-2.3464,-2.2591,-2.2081,-2.1826,-2.0977,-2.0605,-2.0605,-2.0605,-2.0605,-2.0605,-2.0605,-2.0605,-2.0605,-2.0605,-2.0605,-2.0605,-2.0605,-2.0605,-2.0605,-2.0605,-2.0605,-2.0605,-2.0605,-2.0605,-2.0605,-2.0605,-2.0605,-2.0605,-2.0605,-2.0605,-2.084,-2.1689,-2.1885,-2.2129,-2.2925,-2.3091,-2.3091,-2.3091,-2.3091,-2.3091,-2.3091,-2.3812,-2.4414,-2.4414,-2.5128,-2.5693,-2.5693,-2.5693,-2.5693,-2.5693,-2.5693,-2.5693,-2.5693,-2.5693,-2.5693,-2.5693,-2.5693,-2.5693,-2.5693,-2.5693,-2.5274,-2.4452,-2.3393,-2.2735,-2.2484,-2.1183,-2.013,-1.9279,-1.9279,-1.9279,-1.9308,-1.9959,-2.0183,-2.0227,-2.094,-2.1211,-2.1211,-2.1211,-2.1211,-2.1211,-2.1211,-2.1211,-2.1153,-2.8762,-2.7846,-2.6944,-2.7064,-2.6038,-2.502,-2.4583,-2.4497,-2.4497,-2.4497,-2.4497,-2.4497,-2.4497,-2.4497,-2.4497,-2.4497,-2.4497,-2.4497,-2.4497,-2.4497,-2.4497,-2.4497,-2.4497,-2.4497,-2.4497,-2.4411,-2.4411,-2.4497,-2.4282,-2.411,-2.398,-2.3754,-2.3537,-2.329,-2.264,-2.2195,-2.1846,-2.1162,-2.0762,-2.0605,-2.0605,-2.0605,-2.0605,-2.0605,-2.0605,-2.0605,-2.0605,-2.0323,-1.9971,-1.9971,-1.9971,-2.005,-2.0489,-2.0605,-2.0605,-2.0605,-2.0333,-1.9971,-1.9971,-1.9971,-1.9971,-1.9971,-2.0448,-2.1064,-2.1738,-2.1885,-2.2129,-2.2925,-2.3091,-2.3091,-2.3091,-2.3091,-2.3091,-2.3091,-2.3812,-2.4414,-2.4414,-2.5128,-2.5693,-2.5693,-2.5693,-2.5645,-2.5538,-2.5635,-2.5645,-2.5538,-2.5635,-2.5693,-2.5693,-2.5693,-2.5693,-2.5693,-2.5226,-2.4658,-2.4088,-2.2542,-2.1735,-2.1735,-2.0637,-1.9828,-1.9279,-1.9279,-1.9279,-1.9308,-1.9959,-2.0183,-2.0227,-2.094,-2.1211,-2.1211,-2.1211,-2.1211,-2.1211,-2.1024,-2.0852,-2.0737,-2.8051,-2.6593,-2.5536,-2.6579,-2.5504,-2.4497,-2.4497,-2.4497,-2.4497,-2.4497,-2.4497,-2.4497,-2.4497,-2.4497,-2.4497,-2.4497,-2.4497,-2.4497,-2.4497,-2.4454,-2.4454,-2.4497,-2.4411,-2.4411,-2.4454,-2.4249,-2.4249,-2.4454,-2.4196,-2.398,-2.3754,-2.3537,-2.3319,-2.3081,-2.2705,-2.2275,-2.1855,-2.1254,-2.0808,-2.0605,-2.045,-2.0489,-2.0605,-2.0605,-2.0605,-2.0605,-2.0605,-2.005,-1.9262,-1.9134,-1.9183,-1.942,-2.0167,-2.0479,-2.0605,-2.0605,-1.9971,-1.9301,-1.9301,-1.9183,-1.9094,-1.9094,-2.0054,-2.1095,-2.1571,-2.186,-2.2207,-2.2935,-2.3091,-2.3091,-2.3091,-2.3091,-2.312,-2.3198,-2.3861,-2.4443,-2.4521,-2.5177,-2.5693,-2.5693,-2.5635,-2.5538,-2.5333,-2.544,-2.5489,-2.5235,-2.5489,-2.5635,-2.5635,-2.5684,-2.5635,-2.543,-2.455,-2.3939,-2.3543,-2.1785,-2.0783,-2.0637,-1.9732,-1.9279,-1.9279,-1.9279,-1.9279,-1.9308,-1.9959,-2.0183,-2.0227,-2.094,-2.1211,-2.1211,-2.1211,-2.1211,-2.1153,-2.0838,-2.0551,-2.027,-2.562,-2.534,-2.5264,-2.5411,-2.4924,-2.4497,-2.4497,-2.4497,-2.4497,-2.4497,-2.4497,-2.4497,-2.4497,-2.4497,-2.4497,-2.4497,-2.4497,-2.4497,-2.4497,-2.4335,-2.4335,-2.4497,-2.41,-2.4013,-2.4249,-2.398,-2.398,-2.4249,-2.3807,-2.359,-2.3547,-2.3276,-2.3135,-2.3081,-2.2705,-2.2275,-2.1814,-2.0605,-2.0271,-2.0527,-1.9775,-1.9932,-2.0605,-2.0605,-2.0605,-2.0605,-2.0605,-2.005,-1.9173,-1.8447,-1.8687,-1.9301,-1.942,-1.9971,-2.0605,-2.0605,-1.9971,-1.9301,-1.9301,-1.8767,-1.8158,-1.8158,-1.9142,-2.0203,-2.0662,-2.1635,-2.2568,-2.3003,-2.3091,-2.3091,-2.3091,-2.3091,-2.3218,-2.3643,-2.4102,-2.4551,-2.4969,-2.542,-2.5693,-2.5693,-2.5489,-2.5333,-2.5284,-2.5137,-2.4981,-2.4981,-2.5186,-2.5333,-2.5333,-2.5586,-2.5274,-2.4344,-2.4196,-2.3194,-2.1336,-2.1038,-2.0431,-1.9524,-1.9383,-1.9279,-1.9279,-1.9279,-1.9279,-1.9308,-1.9959,-2.0183,-2.0227,-2.094,-2.1211,-2.1211,-2.1211,-2.1211,-2.1153,-2.0838,-2.0551,-2.027,-2.4929,-2.431,-2.3991,-2.5033,-2.4627,-2.425,-2.4466,-2.4497,-2.4497,-2.4497,-2.4411,-2.4368,-2.4497,-2.4497,-2.4497,-2.4497,-2.4497,-2.4454,-2.4335,-2.4249,-2.4153,-2.41,-2.3927,-2.3841,-2.397,-2.3754,-2.3677,-2.3807,-2.359,-2.3503,-2.3503,-2.3232,-2.3091,-2.3081,-2.2705,-2.2013,-2.1121,-2.0277,-1.961,-1.9116,-1.8727,-1.8807,-1.9204,-1.9687,-1.9854,-1.9814,-1.9323,-1.8598,-1.7796,-1.7391,-1.7513,-1.7917,-1.8407,-1.9173,-1.9775,-1.9283,-1.8886,-1.8487,-1.7997,-1.7553,-1.7269,-1.7269,-1.8351,-1.9503,-1.9722,-2.0936,-2.2239,-2.2965,-2.3091,-2.3091,-2.3091,-2.3091,-2.3237,-2.3721,-2.4141,-2.457,-2.501,-2.5449,-2.5693,-2.5693,-2.544,-2.5235,-2.5079,-2.499,-2.4833,-2.4686,-2.5088,-2.5284,-2.5284,-2.4971,-2.4609,-2.4088,-2.2935,-2.1836,-2.0885,-2.0336,-1.9783,-1.9279,-1.9279,-1.9279,-1.9279,-1.9279,-1.9279,-1.9308,-1.9959,-2.0183,-2.0227,-2.094,-2.1211,-2.1211,-2.1211,-2.1089,-2.0902,-2.0608,-2.027,-1.9989]},{"header":{"parameterUnit":"m.s-1","parameterCategory":1,"la1":30.6,"la2":28.766,"lo1":-90.7593,"lo2":-88.6598,"dy":0.0162,"dx":0.0183,"nx":116,"ny":114,"refTime":"2023-08-31T06:00:00:Z","depth":0,"parameterNumber":3,"parameterNumberName":"V-component_of_WINDS"},"data":[0.0,0.0,0.0,0.0,0.0,0.0,0.0,0.0,0.0,0.0,0.0,0.0,0.0,0.0,0.0,0.0,0.0,0.0,0.0,0.0,0.0,0.0,0.0,0.0,0.0,0.0,0.0,0.0,0.0,0.0,0.0,0.0,0.0,0.0,0.0,0.0,0.0,0.0,0.0,0.0,0.0,0.0,0.0,0.0,0.0,0.0,0.0,0.0,0.0,0.0,0.0,0.0,0.0,0.0,0.0,0.0,0.0,0.0,0.0,0.0,0.0,0.0,0.0,0.0,0.0,0.0,0.0,0.0,0.0,0.0,0.0,0.0,0.0,0.0,0.0,0.0,0.0,0.0,0.0,0.0,0.0,0.0,0.0,0.0,0.0,0.0,0.0,0.0,0.0,0.0,0.0,0.0,0.0,0.0,0.0,0.0,0.0,0.0,0.0,0.0,0.0,0.0,0.0,0.0,0.0,0.0,0.0,0.0,0.0,0.0,0.0,0.0,0.0,0.0,0.0,0.0,0.0,0.0,0.0,0.0,0.0,0.0,0.0,0.0,0.0,0.0,0.0,0.0,0.0,0.0,0.0,0.0,0.0,0.0,0.0,0.0,0.0,0.0,0.0,0.0,0.0,0.0,0.0,0.0,0.0,0.0,0.0,0.0,0.0,0.0,0.0,0.0,0.0,0.0,0.0,0.0,0.0,0.0,0.0,0.0,0.0,0.0,0.0,0.0,0.0,0.0,0.0,0.0,0.0,0.0,0.0,0.0,0.0,0.0,0.0,0.0,0.0,0.0,0.0,0.0,0.0,0.0,0.0,0.0,0.0,0.0,0.0,0.0,0.0,0.0,0.0,0.0,0.0,0.0,0.0,0.0,0.0,0.0,0.0,0.0,0.0,0.0,0.0,0.0,0.0,0.0,0.0,0.0,0.0,0.0,0.0,0.0,0.0,0.0,0.0,0.0,0.0,0.0,0.0,0.0,0.0,0.0,0.0,0.0,0.0,0.0,0.0,0.0,0.0,0.0,0.0,0.0,0.0,0.0,0.0,0.0,0.0,0.0,0.0,0.0,0.0,0.0,0.0,0.0,0.0,0.0,0.0,0.0,0.0,0.0,0.0,0.0,0.0,0.0,0.0,0.0,0.0,0.0,0.0,0.0,0.0,0.0,0.0,0.0,0.0,0.0,0.0,0.0,0.0,0.0,0.0,0.0,0.0,0.0,0.0,0.0,0.0,0.0,0.0,0.0,0.0,0.0,0.0,0.0,0.0,0.0,0.0,0.0,0.0,0.0,0.0,0.0,0.0,0.0,0.0,0.0,0.0,0.0,0.0,0.0,0.0,0.0,0.0,0.0,0.0,0.0,0.0,0.0,0.0,0.0,0.0,0.0,0.0,0.0,0.0,0.0,0.0,0.0,0.0,0.0,0.0,0.0,0.0,0.0,0.0,0.0,0.0,0.0,0.0,0.0,0.0,0.0,0.0,0.0,0.0,0.0,0.0,0.0,0.0,0.0,0.0,0.0,0.0,0.0,0.0,0.0,0.0,0.0,0.0,0.0,0.0,0.0,0.0,0.0,0.0,0.0,0.0,0.0,0.0,0.0,0.0,0.0,0.0,0.0,0.0,0.0,0.0,0.0,0.0,0.0,0.0,0.0,0.0,0.0,0.0,0.0,0.0,0.0,0.0,0.0,0.0,0.0,0.0,0.0,0.0,0.0,0.0,0.0,0.0,0.0,0.0,0.0,0.0,0.0,0.0,0.0,0.0,0.0,0.0,0.0,0.0,0.0,0.0,0.0,0.0,0.0,0.0,0.0,0.0,0.0,0.0,0.0,0.0,0.0,0.0,0.0,0.0,0.0,0.0,0.0,0.0,0.0,0.0,0.0,0.0,0.0,0.0,0.0,0.0,0.0,0.0,0.0,0.0,0.0,0.0,0.0,0.0,0.0,0.0,0.0,0.0,0.0,0.0,0.0,0.0,0.0,0.0,0.0,0.0,0.0,0.0,0.0,0.0,0.0,0.0,0.0,0.0,0.0,0.0,0.0,0.0,0.0,0.0,0.0,0.0,0.0,0.0,0.0,0.0,0.0,0.0,0.0,0.0,0.0,0.0,0.0,0.0,0.0,0.0,0.0,0.0,0.0,0.0,0.0,0.0,0.0,0.0,0.0,0.0,0.0,0.0,0.0,0.0,0.0,0.0,0.0,0.0,0.0,0.0,0.0,0.0,0.0,0.0,0.0,0.0,0.0,0.0,0.0,0.0,0.0,0.0,0.0,0.0,0.0,0.0,0.0,0.0,0.0,0.0,0.0,0.0,0.0,0.0,0.0,0.0,0.0,0.0,0.0,0.0,0.0,0.0,0.0,0.0,0.0,0.0,0.0,0.0,0.0,0.0,0.0,0.0,0.0,0.0,0.0,0.0,0.0,0.0,0.0,0.0,0.0,0.0,0.0,0.0,0.0,0.0,0.0,0.0,0.0,0.0,0.0,0.0,0.0,0.0,0.0,0.0,0.0,0.0,0.0,0.0,0.0,0.0,0.0,0.0,0.0,0.0,0.0,0.0,0.0,0.0,0.0,0.0,0.0,0.0,0.0,0.0,0.0,0.0,0.0,0.0,0.0,0.0,0.0,0.0,0.0,0.0,0.0,0.0,0.0,0.0,0.0,0.0,0.0,0.0,0.0,0.0,0.0,0.0,0.0,0.0,0.0,0.0,0.0,0.0,0.0,0.0,0.0,0.0,0.0,0.0,0.0,0.0,0.0,0.0,0.0,0.0,0.0,0.0,0.0,0.0,0.0,0.0,0.0,0.0,0.0,0.0,0.0,0.0,0.0,0.0,0.0,0.0,0.0,0.0,0.0,0.0,0.0,0.0,0.0,0.0,0.0,0.0,0.0,0.0,0.0,0.0,0.0,0.0,0.0,0.0,0.0,0.0,0.0,0.0,0.0,0.0,0.0,0.0,0.0,0.0,0.0,0.0,0.0,0.0,0.0,0.0,0.0,0.0,0.0,0.0,0.0,0.0,0.0,0.0,0.0,0.0,0.0,0.0,0.0,0.0,0.0,0.0,0.0,0.0,0.0,0.0,0.0,0.0,0.0,0.0,0.0,0.0,0.0,0.0,0.0,0.0,0.0,0.0,0.0,0.0,0.0,0.0,0.0,0.0,0.0,0.0,0.0,0.0,0.0,0.0,0.0,0.0,0.0,0.0,0.0,0.0,0.0,0.0,0.0,0.0,0.0,0.0,0.0,0.0,0.0,0.0,0.0,0.0,0.0,0.0,0.0,0.0,0.0,0.0,0.0,0.0,0.0,0.0,0.0,0.0,0.0,0.0,0.0,0.0,0.0,0.0,0.0,0.0,0.0,0.0,0.0,0.0,0.0,0.0,0.0,0.0,0.0,0.0,0.0,0.0,0.0,0.0,0.0,0.0,0.0,0.0,0.0,0.0,0.0,0.0,0.0,0.0,0.0,0.0,0.0,0.0,0.0,0.0,0.0,0.0,0.0,0.0,0.0,0.0,0.0,0.0,0.0,0.0,0.0,0.0,0.0,0.0,0.0,0.0,0.0,0.0,0.0,0.0,0.0,0.0,0.0,0.0,0.0,0.0,0.0,0.0,0.0,0.0,0.0,0.0,0.0,0.0,0.0,0.0,0.0,0.0,0.0,0.0,0.0,0.0,0.0,0.0,0.0,0.0,0.0,0.0,0.0,0.0,0.0,0.0,0.0,0.0,0.0,0.0,0.0,0.0,0.0,0.0,0.0,0.0,0.0,0.0,0.0,0.0,0.0,0.0,0.0,0.0,0.0,0.0,0.0,0.0,0.0,0.0,0.0,0.0,0.0,0.0,0.0,0.0,0.0,0.0,0.0,0.0,0.0,0.0,0.0,0.0,0.0,0.0,0.0,0.0,0.0,0.0,0.0,0.0,0.0,0.0,0.0,0.0,0.0,0.0,0.0,0.0,0.0,0.0,0.0,0.0,0.0,0.0,0.0,0.0,0.0,0.0,0.0,0.0,0.0,0.0,0.0,0.0,0.0,0.0,0.0,0.0,0.0,0.0,0.0,0.0,0.0,0.0,0.0,0.0,0.0,0.0,0.0,0.0,0.0,0.0,0.0,0.0,0.0,0.0,0.0,0.0,0.0,0.0,0.0,0.0,0.0,0.0,0.0,0.0,0.0,0.0,0.0,0.0,0.0,0.0,0.0,0.0,0.0,0.0,0.0,0.0,0.0,0.0,0.0,0.0,0.0,0.0,0.0,0.0,0.0,0.0,0.0,0.0,0.0,0.0,0.0,0.0,0.0,0.0,0.0,0.0,0.0,0.0,0.0,0.0,0.0,0.0,0.0,0.0,0.0,0.0,0.0,0.0,0.0,0.0,0.0,0.0,0.0,0.0,0.0,0.0,0.0,0.0,0.0,0.0,0.0,0.0,0.0,0.0,0.0,0.0,0.0,0.0,0.0,0.0,0.0,0.0,0.0,0.0,0.0,0.0,0.0,0.0,0.0,0.0,0.0,0.0,0.0,0.0,0.0,0.0,0.0,0.0,0.0,0.0,0.0,0.0,0.0,0.0,0.0,0.0,0.0,0.0,0.0,0.0,0.0,0.0,0.0,0.0,0.0,0.0,0.0,0.0,0.0,0.0,0.0,0.0,0.0,0.0,0.0,0.0,0.0,0.0,0.0,0.0,0.0,0.0,0.0,0.0,0.0,0.0,0.0,0.0,0.0,0.0,0.0,0.0,0.0,0.0,0.0,0.0,0.0,0.0,0.0,0.0,0.0,0.0,0.0,0.0,0.0,0.0,0.0,0.0,0.0,0.0,0.0,0.0,0.0,0.0,0.0,0.0,0.0,0.0,0.0,0.0,0.0,0.0,0.0,0.0,0.0,0.0,0.0,0.0,0.0,0.0,0.0,0.0,0.0,0.0,0.0,0.0,0.0,0.0,0.0,0.0,0.0,0.0,0.0,0.0,0.0,0.0,0.0,0.0,0.0,0.0,0.0,0.0,0.0,0.0,0.0,0.0,0.0,0.0,0.0,0.0,0.0,0.0,0.0,0.0,0.0,0.0,0.0,0.0,0.0,0.0,0.0,0.0,0.0,0.0,0.0,0.0,0.0,0.0,0.0,0.0,0.0,0.0,0.0,0.0,0.0,0.0,0.0,0.0,0.0,0.0,0.0,0.0,0.0,0.0,0.0,0.0,0.0,0.0,0.0,0.0,0.0,0.0,0.0,0.0,0.0,0.0,0.0,0.0,0.0,0.0,0.0,0.0,0.0,0.0,0.0,0.0,0.0,0.0,0.0,0.0,0.0,0.0,0.0,0.0,0.0,0.0,0.0,0.0,0.0,0.0,0.0,0.0,0.0,0.0,0.0,0.0,0.0,0.0,0.0,0.0,0.0,0.0,0.0,0.0,0.0,0.0,0.0,0.0,0.0,0.0,0.0,0.0,0.0,0.0,0.0,0.0,0.0,0.0,0.0,0.0,0.0,0.0,0.0,0.0,0.0,0.0,0.0,0.0,0.0,0.0,0.0,0.0,0.0,0.0,0.0,0.0,0.0,0.0,0.0,0.0,0.0,0.0,0.0,0.0,0.0,0.0,0.0,0.0,0.0,0.0,0.0,0.0,0.0,0.0,0.0,0.0,0.0,0.0,0.0,0.0,0.0,0.0,0.0,0.0,0.0,0.0,0.0,0.0,0.0,0.0,0.0,0.0,0.0,0.0,0.0,0.0,0.0,0.0,0.0,0.0,0.0,0.0,0.0,0.0,0.0,0.0,0.0,0.0,0.0,0.0,0.0,0.0,0.0,0.0,0.0,0.0,0.0,0.0,0.0,0.0,0.0,0.0,0.0,0.0,0.0,0.0,0.0,0.0,0.0,0.0,0.0,0.0,0.0,0.0,0.0,0.0,0.0,0.0,0.0,0.0,0.0,0.0,0.0,0.0,0.0,0.0,0.0,0.0,0.0,0.0,0.0,0.0,0.0,0.0,0.0,0.0,0.0,0.0,0.0,0.0,0.0,0.0,0.0,0.0,0.0,0.0,0.0,0.0,0.0,0.0,0.0,0.0,0.0,0.0,0.0,0.0,0.0,0.0,0.0,0.0,0.0,0.0,0.0,3.6674,0.0,0.0,0.0,0.0,0.0,0.0,0.0,0.0,0.0,0.0,0.0,0.0,0.0,0.0,0.0,0.0,0.0,0.0,0.0,0.0,0.0,0.0,0.0,0.0,0.0,0.0,0.0,0.0,0.0,0.0,0.0,0.0,0.0,0.0,0.0,0.0,0.0,0.0,0.0,4.1926,4.2233,4.2749,4.2239,4.1743,4.1238,0.0,0.0,0.0,0.0,0.0,0.0,0.0,0.0,0.0,0.0,0.0,0.0,0.0,0.0,0.0,0.0,0.0,0.0,0.0,0.0,0.0,0.0,0.0,0.0,0.0,0.0,0.0,0.0,0.0,0.0,0.0,0.0,0.0,0.0,0.0,0.0,0.0,0.0,0.0,0.0,0.0,0.0,0.0,0.0,0.0,0.0,0.0,0.0,0.0,0.0,0.0,0.0,0.0,0.0,0.0,0.0,0.0,0.0,0.0,0.0,0.0,0.0,0.0,0.0,0.0,0.0,0.0,0.0,0.0,0.0,0.0,3.7377,0.0,0.0,0.0,0.0,0.0,0.0,0.0,0.0,0.0,0.0,0.0,0.0,0.0,0.0,0.0,0.0,0.0,0.0,0.0,0.0,0.0,0.0,0.0,3.7104,3.6813,3.6435,3.6915,3.7297,0.0,0.0,0.0,0.0,0.0,0.0,0.0,4.2526,4.2965,4.3098,4.2965,4.3118,4.3598,4.3312,4.3035,4.2772,4.2648,0.0,0.0,0.0,0.0,0.0,0.0,0.0,0.0,0.0,0.0,0.0,0.0,0.0,0.0,0.0,0.0,0.0,0.0,0.0,0.0,0.0,0.0,0.0,0.0,0.0,0.0,0.0,0.0,0.0,0.0,0.0,0.0,0.0,0.0,0.0,0.0,0.0,0.0,0.0,0.0,0.0,0.0,0.0,0.0,0.0,0.0,0.0,0.0,0.0,0.0,0.0,0.0,0.0,0.0,0.0,0.0,0.0,0.0,0.0,0.0,0.0,0.0,0.0,3.9388,3.9388,3.9388,3.9388,3.9388,3.9328,3.8242,3.8063,3.8527,3.7988,0.0,0.0,0.0,0.0,0.0,0.0,0.0,0.0,0.0,0.0,0.0,0.0,0.0,0.0,0.0,0.0,0.0,0.0,0.0,0.0,0.0,3.7351,3.7306,3.7251,3.7325,3.737,3.7404,0.0,0.0,0.0,0.0,0.0,4.3453,4.408,4.4721,4.5351,4.4721,4.4125,4.3598,4.3552,4.3492,4.3432,4.2851,4.2789,4.3113,0.0,0.0,0.0,0.0,0.0,0.0,0.0,0.0,0.0,0.0,0.0,0.0,0.0,0.0,0.0,0.0,0.0,0.0,0.0,0.0,0.0,0.0,0.0,0.0,0.0,0.0,0.0,0.0,0.0,0.0,0.0,0.0,0.0,0.0,0.0,0.0,0.0,0.0,0.0,0.0,0.0,4.2314,4.2522,0.0,0.0,0.0,0.0,0.0,0.0,0.0,0.0,0.0,0.0,0.0,0.0,0.0,3.9388,3.9388,3.9388,3.9388,3.9388,3.9388,3.9388,3.9388,3.9388,3.9388,3.9373,3.9194,0.0,3.9239,3.9149,0.0,0.0,0.0,0.0,0.0,0.0,0.0,0.0,0.0,0.0,0.0,0.0,0.0,0.0,0.0,0.0,0.0,0.0,0.0,0.0,0.0,3.7749,3.7958,3.7958,3.8317,3.8702,3.9123,3.9542,0.0,0.0,0.0,4.3913,4.4894,4.559,4.5682,4.5168,4.444,4.3926,4.3598,4.3598,4.3598,4.3598,4.3295,4.3235,4.3372,4.3372,0.0,0.0,0.0,0.0,0.0,0.0,0.0,0.0,0.0,0.0,0.0,0.0,0.0,0.0,0.0,0.0,0.0,0.0,0.0,0.0,0.0,0.0,0.0,0.0,0.0,0.0,0.0,0.0,0.0,0.0,0.0,0.0,0.0,0.0,0.0,0.0,0.0,0.0,0.0,4.3208,4.3121,4.3043,4.2496,4.2106,0.0,0.0,0.0,0.0,0.0,0.0,0.0,0.0,0.0,3.9388,3.9388,3.9589,3.9963,3.9963,4.0157,4.0516,4.0516,4.0516,4.0516,4.0516,4.0516,4.0502,4.0127,3.9963,3.9948,3.9574,3.9388,3.9388,0.0,0.0,0.0,0.0,3.9388,3.9388,0.0,0.0,0.0,0.0,0.0,0.0,0.0,0.0,0.0,0.0,0.0,0.0,3.7659,3.8093,3.8392,3.8392,3.8706,3.9209,3.9906,4.0633,4.1825,4.3637,4.4861,4.5764,4.6361,4.6709,4.6262,4.497,4.4241,4.3764,4.3598,4.3598,4.3598,4.3598,4.3598,4.3598,4.3598,4.3598,4.3598,4.3598,0.0,0.0,0.0,0.0,0.0,0.0,0.0,0.0,0.0,0.0,0.0,0.0,0.0,0.0,0.0,0.0,0.0,0.0,0.0,0.0,0.0,0.0,0.0,0.0,0.0,0.0,0.0,0.0,0.0,0.0,0.0,0.0,0.0,0.0,0.0,0.0,0.0,4.338,4.3359,4.2929,4.2649,4.2424,0.0,0.0,0.0,0.0,0.0,0.0,4.1042,4.0242,3.9974,4.0304,4.0102,4.0231,4.071,4.0688,4.0905,4.1422,4.1422,4.1422,4.1422,4.1422,4.1422,4.1354,4.0861,4.0651,4.0591,3.9768,3.9388,3.9388,3.9388,3.9388,3.9388,3.9388,3.9388,3.9388,0.0,0.0,0.0,0.0,0.0,0.0,0.0,0.0,0.0,0.0,0.0,3.8347,3.8347,3.8362,3.8392,3.8392,3.7853,3.7778,3.8462,3.9152,4.0756,4.3572,4.4364,4.5741,4.7836,4.7239,4.651,4.5732,4.5003,4.4291,4.3598,4.3598,4.3598,4.3598,4.3598,4.3598,4.3598,4.3598,4.3598,4.3598,4.3598,0.0,0.0,0.0,0.0,0.0,0.0,0.0,0.0,0.0,0.0,0.0,0.0,0.0,0.0,0.0,0.0,0.0,0.0,0.0,0.0,0.0,0.0,0.0,0.0,0.0,0.0,0.0,0.0,0.0,0.0,0.0,0.0,0.0,0.0,0.0,0.0,0.0,0.0,4.1874,4.1866,0.0,0.0,0.0,0.0,4.1104,4.1013,4.1271,4.1908,4.128,4.1513,4.2796,4.2032,4.1618,4.161,4.1438,4.1392,4.1422,4.1422,4.1422,4.1422,4.1422,4.1422,4.1422,4.1339,4.1324,4.1235,3.9948,3.9388,3.9388,3.9388,3.9388,3.9388,3.9388,3.9388,3.9388,0.0,0.0,0.0,0.0,0.0,0.0,0.0,0.0,3.7764,3.7764,3.7404,3.7315,3.7719,3.7764,3.7764,3.7764,3.7928,3.8346,3.9055,4.1032,4.2834,4.4359,4.5957,4.6979,4.7305,4.656,4.5814,4.5086,4.4357,4.3876,4.3598,4.3598,4.3598,4.3598,4.3598,4.3598,4.3598,4.3598,4.3598,4.3598,4.3598,4.3598,0.0,0.0,0.0,0.0,0.0,0.0,0.0,0.0,0.0,0.0,0.0,0.0,0.0,0.0,0.0,0.0,0.0,0.0,0.0,0.0,0.0,0.0,0.0,0.0,0.0,0.0,0.0,0.0,0.0,0.0,0.0,0.0,0.0,0.0,0.0,0.0,0.0,4.191,4.2028,0.0,4.1925,4.2438,4.2702,4.2511,4.2496,4.2565,4.2831,4.2073,4.1847,4.2355,4.2068,4.2107,4.2546,4.2486,4.2659,4.3082,4.2928,4.2904,4.2851,4.268,4.2626,4.2611,4.2192,4.2051,4.1976,4.1055,4.0427,4.0008,3.9589,3.9388,3.9388,3.9388,3.9388,3.9388,0.0,0.0,0.0,0.0,0.0,0.0,0.0,0.0,3.7404,3.7404,3.6866,3.6716,3.7345,3.7225,3.7105,3.7105,3.7494,3.8065,3.8754,4.1417,4.3427,4.4408,4.6487,4.7404,4.6908,4.593,4.5185,4.4688,4.3976,4.3598,4.3598,4.3598,4.3598,4.3598,4.3598,4.3598,4.3598,4.3598,4.3598,4.3598,4.3598,4.3598,4.3598,0.0,0.0,0.0,0.0,0.0,0.0,0.0,0.0,0.0,0.0,0.0,0.0,0.0,0.0,0.0,0.0,0.0,0.0,0.0,0.0,0.0,0.0,0.0,0.0,0.0,0.0,0.0,0.0,0.0,0.0,0.0,0.0,0.0,0.0,0.0,4.2637,4.231,4.2563,4.2652,4.2482,4.3013,4.3293,4.3079,4.3063,4.3262,4.3707,4.2982,4.2755,4.3213,4.2924,4.2993,4.3434,4.3358,4.3547,4.3988,4.3871,4.3808,4.3808,4.3621,4.3542,4.3512,4.3115,4.2896,4.2773,4.2113,4.1535,4.098,4.0156,3.9655,3.9424,3.9496,3.9445,3.9424,0.0,0.0,0.0,0.0,0.0,0.0,0.0,3.7823,3.7404,3.7375,3.6836,3.6686,3.7315,3.6821,3.6462,3.6462,3.6477,3.6746,3.736,4.0043,4.2249,4.3685,4.5751,4.6841,4.6825,4.5417,4.4702,4.4655,4.3959,4.3598,4.3598,4.3598,4.3598,4.3598,4.3598,4.3598,4.3598,4.3598,4.3598,4.3598,4.3598,4.3598,4.3598,0.0,0.0,0.0,0.0,0.0,0.0,0.0,0.0,0.0,0.0,0.0,0.0,0.0,0.0,0.0,0.0,0.0,0.0,0.0,0.0,0.0,0.0,0.0,0.0,0.0,0.0,0.0,0.0,0.0,0.0,0.0,0.0,0.0,4.3348,4.3444,4.3414,4.3023,4.3354,4.3534,4.331,4.3528,4.3408,4.2756,4.2694,4.3264,4.4579,4.4009,4.424,4.5511,4.4734,4.432,4.432,4.4104,4.4026,4.4026,4.4026,4.4026,4.4026,4.3988,4.3988,4.3988,4.3988,4.3871,4.3684,4.2997,4.2634,4.2314,4.1181,4.022,3.9484,3.9685,3.9634,3.949,0.0,0.0,0.0,0.0,0.0,0.0,0.0,3.7524,3.724,3.6791,3.6178,3.6013,3.6671,3.6163,3.5774,3.5774,3.6207,3.6746,3.736,4.0031,4.2697,4.5113,4.5774,4.5847,4.5301,4.4903,4.444,4.391,4.3698,4.3598,4.3598,4.3598,4.3598,4.3598,4.3598,4.3598,4.3598,4.3598,4.3598,4.3598,4.3598,4.3598,4.3598,0.0,0.0,0.0,0.0,0.0,0.0,0.0,0.0,0.0,0.0,0.0,0.0,0.0,0.0,0.0,0.0,0.0,0.0,0.0,0.0,0.0,0.0,0.0,0.0,0.0,0.0,0.0,0.0,0.0,0.0,0.0,0.0,4.4125,4.3596,4.3171,4.2827,4.2717,4.3242,4.3571,4.3534,4.4464,4.4957,4.4787,4.4772,4.4926,4.5295,4.4702,4.4502,4.4849,4.4641,4.4511,4.4511,4.4458,4.4435,4.4435,4.4281,4.4205,4.4205,4.4065,4.3988,4.3988,4.3988,4.3988,4.3895,4.3713,4.3311,4.2743,4.1806,4.1279,4.1091,4.1276,4.1025,4.058,0.0,0.0,0.0,0.0,0.0,0.0,0.0,3.7404,3.709,3.6193,3.5744,3.5654,3.6028,3.5729,3.5504,3.5504,3.6342,3.703,3.7389,4.0013,4.2558,4.4814,4.4882,4.4718,4.4378,4.4378,4.4149,4.3734,4.3734,4.3687,4.3598,4.3704,4.3734,4.3734,4.3776,4.3805,4.3805,4.3805,4.3805,4.3805,4.3805,4.3717,4.3598,4.3598,4.3598,4.3598,4.3704,4.3734,4.3734,4.3776,0.0,0.0,0.0,0.0,0.0,0.0,0.0,0.0,0.0,0.0,0.0,0.0,0.0,0.0,0.0,0.0,0.0,0.0,0.0,0.0,0.0,0.0,0.0,0.0,4.461,4.4471,4.4086,4.3664,4.3541,4.3818,4.4187,4.4456,4.4456,4.5126,4.5464,4.5187,4.5157,4.5157,4.5157,4.4825,4.461,4.461,4.461,4.461,4.461,4.461,4.461,4.461,4.4473,4.4435,4.4435,4.432,4.4243,4.4243,4.4243,4.4205,4.4143,4.4143,4.3876,0.0,0.0,0.0,0.0,0.0,4.1815,4.1553,0.0,0.0,0.0,0.0,0.0,0.0,0.0,3.7404,3.6941,3.5669,3.5504,3.5504,3.5504,3.5504,3.5504,3.5504,3.6611,3.7364,3.7507,3.9951,4.1979,4.3313,4.338,4.3518,4.3794,4.381,4.3844,4.3927,4.3927,4.3822,4.3658,4.3822,4.3927,4.3927,4.4056,4.4097,4.4097,4.4097,4.4097,4.4097,4.4097,4.3923,4.3658,4.3658,4.3658,4.3687,4.3852,4.3927,4.3956,4.4056,0.0,0.0,0.0,0.0,0.0,0.0,0.0,0.0,0.0,0.0,0.0,0.0,0.0,0.0,0.0,0.0,0.0,0.0,0.0,0.0,0.0,0.0,0.0,0.0,4.461,4.461,4.461,4.461,4.4803,4.5403,4.548,4.548,4.548,4.548,4.5218,4.4618,4.461,4.461,4.461,0.0,0.0,0.0,0.0,4.461,4.461,4.461,4.461,4.461,4.461,4.461,4.461,4.461,4.461,4.461,4.461,4.4511,4.432,4.432,4.4243,4.4028,4.3586,4.2953,4.2286,4.2286,4.2352,4.246,0.0,0.0,0.0,0.0,0.0,0.0,0.0,3.7404,3.6941,3.5669,3.5504,3.5504,3.5504,3.5504,3.5504,3.5504,3.6222,3.7134,3.8233,3.9746,4.0801,4.126,4.1795,4.2399,4.3165,4.3165,4.3483,4.4056,4.4056,4.4039,4.401,4.4039,4.4056,4.4056,4.4097,4.4097,4.4097,4.4097,4.4097,4.4097,4.4097,4.4068,4.401,4.401,4.401,4.401,4.4056,4.4056,4.4085,4.4097,4.4184,4.4253,4.4253,0.0,0.0,0.0,0.0,0.0,0.0,0.0,0.0,0.0,0.0,0.0,0.0,0.0,0.0,0.0,0.0,0.0,0.0,0.0,0.0,4.461,4.461,4.461,4.461,4.461,4.4671,4.4795,4.481,4.481,4.481,4.481,4.4764,4.4625,4.461,4.461,4.461,4.461,4.461,4.461,4.461,4.461,4.461,4.461,4.461,4.461,0.0,0.0,4.461,4.461,4.461,4.461,4.461,4.4587,4.4549,4.4549,4.4511,4.4458,4.422,4.4121,4.4089,4.4089,4.3774,4.3334,0.0,0.0,0.0,0.0,0.0,0.0,0.0,3.7454,3.6974,3.5769,3.5554,3.5537,3.5589,3.5589,3.5572,3.5504,3.6103,3.6914,3.7901,3.8853,3.9452,3.9544,4.0585,4.1566,4.2434,4.2875,4.3457,4.4196,4.4196,4.4184,4.4097,4.4184,4.4196,4.4196,4.4315,4.4344,4.4344,4.4344,4.4344,4.4344,4.4344,4.4344,4.4344,4.4155,4.4097,4.4097,4.4184,4.4196,4.4212,4.4298,4.4384,4.4508,4.4879,4.5578,4.6397,0.0,0.0,0.0,0.0,0.0,0.0,0.0,0.0,0.0,0.0,0.0,0.0,0.0,0.0,4.461,0.0,0.0,4.461,4.461,4.461,4.461,4.461,4.461,4.461,4.461,4.461,4.461,4.461,4.461,4.461,4.461,4.461,4.461,4.461,4.461,4.461,4.461,4.461,4.461,4.461,4.461,4.461,4.461,4.461,4.461,4.461,4.461,4.461,4.461,4.461,4.461,4.461,4.461,4.461,4.4572,4.4511,4.4511,4.461,4.461,4.4409,4.4117,0.0,0.0,0.0,0.0,0.0,0.0,0.0,3.741,3.6892,3.5853,3.5621,3.5604,3.5688,3.5688,3.5731,3.5734,3.6244,3.6768,3.7229,3.7914,3.8228,3.8117,3.9516,4.07,4.1565,4.2528,4.3395,4.4119,4.4299,4.4281,4.4184,4.4327,4.4367,4.4367,4.4542,4.4615,4.4615,4.4615,4.4615,4.4615,4.4615,4.4615,4.457,4.4315,4.4184,4.4212,4.431,4.4367,4.4367,4.4542,4.4699,4.4936,4.5517,4.6312,4.7124,4.775,4.8426,0.0,0.0,0.0,0.0,0.0,0.0,0.0,0.0,0.0,4.6811,4.6811,4.564,4.461,4.461,4.461,4.461,4.461,4.461,4.461,4.461,4.461,4.461,4.461,4.461,4.461,4.461,4.461,4.461,4.461,4.461,4.461,4.461,4.461,4.461,4.461,4.461,4.461,4.461,4.461,4.461,4.461,4.461,4.461,4.461,4.461,4.461,4.461,4.461,4.461,4.461,4.461,4.461,4.461,4.461,4.461,4.461,4.461,4.461,4.461,0.0,0.0,0.0,0.0,0.0,0.0,0.0,0.0,3.6529,3.5778,3.5831,3.5863,3.572,3.5688,3.5929,3.6529,3.6616,3.6725,3.6752,3.7507,3.7686,3.7107,3.8408,3.9588,4.0464,4.1749,4.2767,4.3483,4.4204,4.4542,4.4542,4.4542,4.457,4.457,4.4598,4.4615,4.4615,4.4615,4.4615,4.4615,4.4615,4.4615,4.4615,4.4559,4.4542,4.4559,4.4542,4.457,4.457,4.4598,4.5026,4.5602,4.5669,4.6667,4.777,4.7872,0.0,4.9001,4.9001,4.9001,4.9001,4.9001,4.9001,4.9001,0.0,0.0,4.6811,4.6811,4.564,4.461,4.461,4.461,4.461,4.461,4.461,4.461,4.461,4.461,4.461,4.461,4.461,4.461,4.461,4.461,4.461,4.461,4.461,4.461,4.461,4.461,4.461,4.461,4.461,4.461,4.461,4.461,4.461,4.461,4.461,4.461,4.461,4.461,4.461,4.461,4.461,4.461,4.461,4.461,4.461,4.461,4.461,4.461,4.461,4.461,4.461,4.461,0.0,0.0,0.0,0.0,0.0,0.0,0.0,0.0,0.0,3.6066,3.599,3.6005,3.5975,3.5926,3.5984,3.6271,3.6189,3.6125,3.6125,3.6798,3.7095,3.6906,3.7895,3.8848,3.9646,4.0285,4.1163,4.229,4.2633,4.2997,4.338,4.338,4.3604,4.3972,4.3972,4.4207,4.4615,4.4615,4.4615,4.4615,4.4615,4.4615,4.4615,4.4615,4.4615,4.4615,4.4615,4.4874,0.0,0.0,4.5365,4.6346,4.6346,4.7073,4.7973,4.8426,4.8765,0.0,4.9001,4.9001,0.0,0.0,4.9001,4.8892,4.845,4.7556,4.6673,4.6253,4.5311,4.461,4.461,4.461,4.461,0.0,4.461,4.461,4.461,4.461,4.461,4.461,4.461,4.461,4.461,4.461,4.461,4.461,4.461,4.461,4.461,4.461,4.461,4.461,4.461,4.461,4.461,4.461,4.461,4.461,4.461,4.461,4.461,4.461,4.461,4.461,4.461,4.461,4.461,4.461,4.461,4.461,4.461,4.461,4.461,4.461,4.461,4.461,0.0,0.0,0.0,0.0,0.0,0.0,0.0,0.0,0.0,0.0,3.6148,3.6163,3.6211,3.6116,3.6068,3.6068,3.5894,3.5784,3.5847,3.6258,3.6554,3.6692,3.7415,3.8094,3.8694,3.915,3.9894,4.0915,4.1123,4.1563,4.2229,4.2229,4.2574,4.3227,4.3227,4.3529,4.4035,4.4035,4.4121,4.431,4.431,4.4412,4.4615,4.4615,4.4615,4.4615,4.4615,4.506,4.5618,0.0,4.5872,4.7107,4.7107,4.7614,4.8325,4.8849,4.9001,4.9001,4.9001,0.0,0.0,4.9001,4.9001,4.8798,4.8064,4.7322,4.6604,4.5841,4.5104,4.461,4.461,4.461,4.461,4.461,4.461,4.461,4.461,4.461,4.461,4.461,4.461,4.461,4.461,4.461,4.461,4.461,4.461,4.461,4.461,4.461,4.461,4.461,4.461,4.461,4.461,4.461,4.461,4.461,4.461,4.461,4.461,4.461,4.461,4.461,4.461,4.461,4.461,4.461,4.461,4.461,4.461,4.461,4.461,4.461,4.461,4.461,0.0,0.0,0.0,0.0,0.0,0.0,0.0,0.0,0.0,0.0,0.0,0.0,0.0,3.6211,3.6196,3.6196,3.6053,3.6068,3.6179,3.6085,3.6085,3.6211,3.6814,3.7237,3.7449,3.8734,3.9408,3.9457,4.0196,4.0878,4.1515,4.1515,4.1887,4.2552,4.2552,4.2552,4.2552,4.2552,4.2953,4.3542,4.3542,4.3972,4.4615,4.4615,4.4615,4.4615,4.4615,4.506,4.5703,0.0,4.6667,4.7855,4.7855,4.8392,0.0,4.9001,4.9001,4.9001,4.9001,4.9001,4.9001,4.9001,4.9001,4.8798,4.8064,4.7322,4.6604,4.5841,4.5104,4.461,4.461,4.461,4.461,4.461,4.461,4.461,4.461,4.461,4.461,4.461,4.461,4.461,0.0,4.461,4.461,4.461,4.461,4.461,4.461,4.461,4.461,4.461,4.461,4.461,4.461,4.461,4.461,4.461,4.461,4.461,4.461,4.461,4.461,4.461,4.461,4.461,4.461,4.461,4.461,4.461,4.461,4.461,4.461,4.461,4.461,4.461,0.0,0.0,0.0,0.0,0.0,0.0,0.0,0.0,0.0,0.0,0.0,0.0,0.0,0.0,0.0,0.0,3.6148,3.6148,3.6196,3.6148,3.6211,3.6383,3.6585,3.6739,3.68,3.7232,3.7682,3.8137,3.8403,3.8858,3.9516,3.9971,4.0528,4.1199,4.1629,4.2078,4.252,4.252,4.2645,4.2831,4.2831,4.3243,4.3869,4.3869,4.4179,4.4615,0.0,4.541,4.6363,0.0,0.0,0.0,4.8041,4.8426,4.9001,4.9124,4.9063,4.9032,4.9107,4.9063,4.9001,4.9001,4.9001,4.8688,4.7456,4.6983,4.6464,4.52,4.4746,4.461,4.461,4.461,4.461,4.461,4.461,4.461,4.461,4.461,4.461,4.461,4.461,0.0,0.0,0.0,0.0,4.461,4.461,4.4772,4.5218,4.5249,4.5449,4.5895,4.548,4.5249,4.5249,4.4803,4.461,4.461,4.461,4.461,4.461,4.461,4.461,4.461,4.461,4.461,4.461,4.461,4.461,4.461,4.461,4.461,4.461,4.461,4.461,4.461,0.0,0.0,0.0,0.0,0.0,0.0,0.0,0.0,0.0,0.0,0.0,0.0,0.0,0.0,0.0,0.0,0.0,3.6242,3.6305,3.6179,3.6258,3.6492,3.6398,3.6352,3.6383,3.6383,3.6598,3.7027,3.7106,3.7492,3.8154,3.86,3.9263,4.0174,4.0579,4.1173,4.1804,4.1804,4.1917,4.2141,4.2141,4.2536,4.3166,4.3423,4.381,0.0,4.4514,4.5365,4.6363,0.0,4.7208,4.8578,4.8376,4.8629,4.9032,4.9168,4.9124,4.9032,4.9124,4.9063,4.9001,4.9001,4.8798,4.8274,4.7085,4.6604,4.604,4.4858,4.461,4.461,4.461,4.461,4.461,4.461,4.461,4.461,4.461,4.461,4.461,4.461,4.461,4.461,0.0,0.0,0.0,4.461,4.4803,4.5126,4.5572,4.5818,4.6142,4.6588,4.6172,4.5834,4.5588,4.5157,4.4856,4.461,4.461,4.461,4.461,4.461,4.461,4.461,4.461,4.461,4.461,4.461,4.461,4.461,4.461,4.461,4.461,4.461,4.4761,4.4971,0.0,0.0,0.0,0.0,0.0,0.0,0.0,0.0,0.0,0.0,0.0,0.0,0.0,0.0,0.0,0.0,0.0,0.0,3.6492,3.6195,3.6163,3.6492,3.621,3.6053,3.6211,3.6211,3.6196,3.6196,3.6383,3.6815,3.7414,3.7477,3.8185,3.9382,3.9413,3.9813,4.0443,4.0443,4.0839,4.1459,4.1459,4.1868,4.252,4.3166,4.3453,4.3571,4.431,4.5015,4.5771,0.0,4.7242,4.7956,4.8714,4.8951,4.8981,4.9152,4.9124,4.9001,4.9001,4.9001,4.9001,4.9001,4.8482,4.7787,4.7017,4.6288,4.5567,4.4821,4.461,4.461,0.0,0.0,4.461,4.461,4.461,4.461,4.461,4.461,4.461,0.0,0.0,0.0,0.0,0.0,0.0,4.4671,0.0,4.5618,4.5695,4.6296,4.6665,4.6696,4.6665,4.6326,4.5649,4.5572,4.5218,4.461,4.461,4.461,4.461,4.461,4.461,4.461,4.461,4.461,4.461,4.461,4.461,4.4648,4.461,4.461,4.4648,4.461,4.5067,4.5588,0.0,0.0,0.0,0.0,0.0,0.0,0.0,0.0,0.0,0.0,0.0,0.0,0.0,0.0,0.0,0.0,0.0,0.0,3.6492,3.6429,3.6398,3.6492,3.6274,3.6242,3.6414,3.6274,3.6196,3.6196,3.6242,3.6365,3.6549,3.7039,3.7533,3.8046,3.8539,3.9139,3.9736,3.9736,4.013,4.0734,4.0734,4.1158,4.1771,4.1949,4.2645,4.3512,4.3706,4.4251,0.0,0.0,0.0,4.7208,4.797,4.8189,4.8291,4.9016,4.9124,4.9032,4.9107,4.9138,4.9124,4.9032,4.8923,4.8654,4.7819,4.7035,4.6324,4.5551,4.4993,4.461,0.0,0.0,0.0,4.461,4.461,0.0,4.461,4.461,0.0,4.461,0.0,4.461,4.461,4.5033,0.0,0.0,4.548,4.6034,4.7034,4.725,4.7573,4.8081,4.7604,4.7019,4.6342,4.5341,4.4756,4.461,4.461,4.461,4.461,4.461,4.461,4.461,4.461,4.461,4.461,4.461,4.4933,4.5348,4.4821,4.4933,4.5348,4.4783,4.5067,4.566,0.0,0.0,0.0,0.0,0.0,0.0,0.0,0.0,0.0,0.0,0.0,0.0,0.0,0.0,0.0,0.0,0.0,0.0,0.0,3.6492,3.6492,3.6492,3.6305,3.6211,3.6289,3.6148,3.6116,3.6116,3.6179,3.6196,3.6211,3.6593,3.6993,3.7364,3.7747,3.8365,3.9077,3.9077,3.9428,0.0,0.0,4.047,4.1091,4.1393,4.2141,4.3106,4.3376,4.3972,0.0,0.0,0.0,4.695,4.7755,4.7932,4.8054,4.8948,0.0,4.9001,4.9094,4.9107,4.9077,4.9032,4.8576,4.808,4.795,4.7069,4.6182,4.5769,4.5384,0.0,4.4648,4.461,0.0,0.0,0.0,0.0,4.461,4.461,4.461,0.0,4.461,0.0,4.4987,4.5357,4.5834,0.0,4.648,4.6803,4.7573,4.7881,4.8219,4.8604,4.825,4.7588,4.6603,4.5249,4.461,4.461,4.461,4.461,4.461,4.461,4.461,4.461,0.0,4.461,4.461,4.461,4.503,4.566,4.5237,4.5515,4.6111,4.5733,4.604,4.6657,0.0,0.0,0.0,0.0,0.0,0.0,0.0,0.0,0.0,0.0,0.0,0.0,0.0,0.0,0.0,0.0,0.0,0.0,0.0,0.0,3.6492,3.6492,3.6289,3.6148,3.6068,3.6005,3.5973,3.6037,3.6116,3.6179,3.6179,3.6179,3.6485,3.7035,3.7082,3.7562,3.8337,3.8352,3.8769,3.94,3.9444,3.9844,4.0435,0.0,0.0,0.0,4.3227,0.0,0.0,0.0,4.5461,4.6663,4.7522,4.7785,4.7902,4.8782,4.9009,4.9001,4.9001,4.9001,4.9032,4.9001,4.8048,4.7288,4.7885,4.6898,4.5861,4.5969,0.0,4.5384,4.4858,4.4685,4.461,4.461,0.0,4.461,4.461,4.461,4.461,4.461,4.461,4.4849,4.5526,4.5664,4.6249,4.7511,4.7696,4.7742,4.7742,4.8296,4.862,4.862,4.8527,4.7881,4.6603,4.5341,4.4702,4.461,4.461,4.461,4.461,4.461,4.461,4.461,4.461,4.461,4.461,4.461,4.5104,4.5841,4.5733,4.6218,4.6949,4.6846,4.7288,4.7885,0.0,0.0,0.0,0.0,0.0,0.0,0.0,0.0,0.0,0.0,3.6492,3.6492,0.0,0.0,0.0,0.0,0.0,0.0,0.0,0.0,0.0,3.6492,3.6195,3.6163,3.6398,3.599,3.5894,3.6179,3.6085,3.6037,3.6037,3.6037,3.6098,3.6204,3.6316,3.6761,3.7453,3.7597,3.8061,3.8739,3.9293,3.9551,3.9754,4.0411,0.0,0.0,0.0,0.0,0.0,0.0,4.4784,4.5122,4.5867,4.6527,4.7141,4.7915,4.8528,4.9001,4.9001,4.9094,4.9138,4.9032,4.8875,4.8796,4.8829,4.7671,0.0,0.0,4.606,4.4933,4.5421,4.4993,4.461,4.461,4.461,4.461,4.461,4.461,4.461,0.0,4.461,4.4849,4.5526,4.6095,0.0,0.0,4.8127,4.8435,4.8435,4.8558,4.862,4.862,4.8065,4.7404,4.6603,4.5818,4.5126,4.461,4.461,4.461,4.461,4.461,4.461,4.461,4.461,0.0,4.461,4.461,4.5384,4.6534,4.5949,4.6518,4.7655,4.7017,4.7288,4.7885,0.0,0.0,0.0,0.0,0.0,0.0,0.0,3.7621,3.7342,3.7013,3.6983,3.6846,3.6523,3.6492,3.6492,0.0,0.0,0.0,0.0,0.0,0.0,0.0,0.0,0.0,3.6085,3.5816,3.5784,3.5943,0.0,3.5941,3.5863,3.5941,3.5941,3.5863,3.5911,3.6221,3.6685,3.6795,3.7258,3.8015,3.8338,3.8893,0.0,0.0,0.0,0.0,0.0,0.0,0.0,0.0,4.4615,4.4733,4.5466,4.594,4.6447,4.7551,4.8142,4.8528,4.89,4.9063,4.9094,4.9001,4.875,4.8608,4.894,0.0,0.0,0.0,4.6795,4.606,4.5274,4.5142,0.0,4.4648,4.461,4.461,4.461,4.461,0.0,4.461,0.0,0.0,0.0,4.6203,4.688,4.7558,4.8235,4.862,4.862,4.862,4.862,4.862,4.7958,4.7281,4.6603,4.5926,4.5249,4.461,4.461,4.461,4.461,4.461,4.461,4.461,4.461,4.461,4.461,4.461,4.5458,4.6777,4.6394,4.7187,4.845,4.8081,4.8177,4.8482,0.0,0.0,0.0,0.0,0.0,0.0,0.0,3.8362,3.8124,3.765,3.746,3.7208,3.6754,3.6585,3.6492,0.0,0.0,0.0,0.0,0.0,0.0,0.0,0.0,0.0,0.0,0.0,0.0,3.5752,3.5863,0.0,0.0,0.0,0.0,0.0,3.5688,3.5847,3.6101,3.6179,3.6611,0.0,0.0,3.8138,0.0,0.0,0.0,0.0,0.0,0.0,0.0,0.0,4.4615,4.4699,4.528,4.5568,4.594,4.7107,4.7635,4.8024,4.8612,4.8883,4.9001,4.9001,4.8545,4.8274,4.8861,4.845,0.0,4.7355,4.7355,4.6967,4.5348,4.5274,4.5274,0.0,4.461,4.461,4.461,4.461,4.461,0.0,0.0,0.0,4.5526,4.6203,0.0,4.7558,4.8235,4.862,4.862,4.862,4.862,4.862,4.7958,4.7281,4.6603,4.5926,4.5249,4.461,4.461,4.461,4.461,4.461,4.461,4.461,4.461,4.461,4.461,4.461,4.5458,4.6811,4.6811,4.7704,4.9001,4.9001,4.9001,4.9001,0.0,0.0,0.0,0.0,0.0,0.0,0.0,3.8657,3.8278,3.8222,3.7738,3.7387,3.7328,3.6846,3.6492,0.0,0.0,0.0,0.0,0.0,0.0,0.0,0.0,0.0,0.0,0.0,0.0,3.5973,3.5831,0.0,0.0,0.0,0.0,0.0,0.0,0.0,3.5784,3.607,0.0,0.0,0.0,0.0,0.0,0.0,0.0,0.0,0.0,0.0,0.0,0.0,0.0,4.4615,4.4682,4.5162,4.5737,4.5872,0.0,0.0,4.7973,4.8494,4.9001,4.9001,4.894,4.894,4.897,0.0,4.8064,4.8656,4.7238,4.604,4.6499,4.5567,4.4685,0.0,0.0,4.461,4.461,4.461,0.0,0.0,0.0,0.0,0.0,4.6203,4.688,4.7558,4.8235,4.862,4.862,4.862,4.862,4.862,4.7958,4.7281,4.6603,4.5926,4.5249,4.461,4.461,4.461,4.461,4.461,4.461,4.461,4.461,4.461,0.0,4.461,4.5458,4.6811,4.6811,4.7704,4.9001,4.9001,4.9001,4.9001,0.0,0.0,0.0,0.0,0.0,0.0,3.9747,3.9549,3.9242,3.8876,3.8322,3.7796,3.7447,3.6861,3.6492,3.6492,0.0,0.0,0.0,0.0,0.0,0.0,0.0,0.0,0.0,0.0,3.5604,3.5831,3.5752,0.0,0.0,0.0,0.0,0.0,0.0,0.0,3.572,0.0,0.0,0.0,0.0,0.0,0.0,0.0,0.0,0.0,0.0,0.0,4.4615,0.0,0.0,0.0,4.4615,4.4818,0.0,0.0,4.6126,4.6786,4.7652,4.8091,4.846,4.89,4.9001,4.9001,4.9001,0.0,4.8513,4.837,4.7999,4.7389,4.6324,4.6005,4.5624,0.0,0.0,0.0,4.461,0.0,0.0,0.0,4.461,0.0,0.0,0.0,4.6434,4.7527,4.8235,4.862,4.862,4.862,4.862,4.862,4.7958,4.7281,4.6603,4.5926,4.5249,4.461,4.461,4.461,4.461,4.461,4.461,4.461,4.461,4.461,0.0,4.5067,4.5877,4.6846,4.7288,4.8096,4.9001,4.9001,4.9001,4.9001,0.0,0.0,0.0,0.0,0.0,4.0096,4.0096,4.0096,3.9944,3.9523,3.893,3.8407,3.7969,3.7238,3.6754,3.6754,3.66,0.0,0.0,0.0,0.0,0.0,0.0,0.0,0.0,0.0,3.5604,3.5638,3.5638,3.5638,0.0,0.0,0.0,0.0,0.0,0.0,0.0,0.0,0.0,0.0,0.0,0.0,0.0,0.0,0.0,0.0,0.0,0.0,0.0,0.0,0.0,0.0,0.0,0.0,0.0,0.0,4.5534,4.594,4.6989,4.7551,4.8007,4.8545,4.8849,4.9001,0.0,0.0,4.8861,4.8338,4.8482,4.821,4.6622,4.6429,4.6111,4.5104,4.4746,4.461,4.461,4.461,0.0,0.0,0.0,4.461,0.0,4.5187,4.6065,4.7219,4.7742,4.8019,4.8019,4.8019,4.8112,4.8312,4.765,4.6988,4.6311,4.5634,4.5087,4.461,4.461,4.461,4.461,4.461,4.461,4.461,4.461,4.461,0.0,4.5384,4.6111,4.688,4.7622,4.8338,4.9001,4.9001,4.9001,4.9001,0.0,0.0,0.0,0.0,0.0,0.0,4.0096,4.0096,4.0096,4.0096,3.9566,3.9179,3.9179,3.8112,3.7387,3.7387,3.6831,0.0,0.0,0.0,0.0,0.0,0.0,0.0,0.0,0.0,3.5638,3.5504,3.5504,3.5504,3.5504,3.5504,3.5504,3.5504,0.0,0.0,0.0,0.0,0.0,0.0,0.0,0.0,0.0,0.0,0.0,0.0,0.0,0.0,0.0,0.0,0.0,0.0,0.0,0.0,0.0,0.0,4.5128,4.5703,4.572,4.6802,4.7889,4.7906,4.8477,4.9001,0.0,4.9001,4.9001,4.9001,4.8401,4.7917,4.7885,4.6692,4.5697,4.5697,4.5067,0.0,4.461,4.461,0.0,0.0,0.0,4.461,4.461,4.5187,4.5865,4.6557,4.6619,0.0,4.6619,4.6619,4.6927,4.7588,4.6957,4.628,4.5603,4.4926,4.4625,4.461,4.461,4.461,4.461,4.461,4.461,4.461,4.461,4.461,0.0,4.5384,4.6111,4.688,4.7622,4.8338,4.9001,4.9001,4.9001,4.9001,0.0,0.0,0.0,0.0,0.0,0.0,0.0,4.0096,4.0096,4.0096,3.9575,3.9206,3.9206,3.849,3.7854,3.7447,3.6846,0.0,0.0,0.0,0.0,0.0,0.0,0.0,0.0,0.0,3.5604,3.5653,3.5554,3.5554,3.5638,3.5554,3.5504,3.5504,3.5504,0.0,0.0,0.0,0.0,0.0,0.0,0.0,0.0,0.0,0.0,0.0,0.0,0.0,0.0,0.0,0.0,0.0,0.0,0.0,0.0,4.4615,4.4784,0.0,4.5568,4.6041,4.665,4.7635,4.8075,4.8392,4.89,4.9001,4.9001,4.9001,4.8829,4.8513,4.7982,4.7119,4.6288,4.5769,4.5067,0.0,0.0,0.0,0.0,4.461,4.461,4.461,0.0,0.0,4.568,4.5895,4.6326,4.6603,4.6603,4.6603,4.6696,4.6911,4.6265,4.5803,4.5588,4.4964,4.461,4.461,4.461,4.461,4.461,4.461,4.461,4.461,4.461,4.4896,4.5421,4.6147,4.688,4.7622,4.837,4.8798,4.9001,4.9001,4.9001,4.9001,0.0,0.0,0.0,0.0,0.0,0.0,0.0,4.0096,4.0096,4.0096,3.9773,3.9523,3.9523,3.9001,3.849,3.8112,3.7312,0.0,0.0,0.0,0.0,0.0,0.0,0.0,0.0,3.5812,3.5668,3.5621,3.5554,3.5554,3.5621,3.5554,3.5504,3.5504,3.5504,3.5504,0.0,0.0,0.0,0.0,0.0,0.0,3.7799,0.0,0.0,0.0,0.0,0.0,0.0,0.0,0.0,0.0,0.0,0.0,0.0,0.0,4.4615,4.4699,0.0,4.55,4.5923,4.6853,4.7483,0.0,4.8494,4.8798,4.9001,4.9001,4.9001,4.8861,4.8401,4.7489,4.6638,4.6182,4.5237,0.0,0.0,0.0,0.0,4.461,0.0,0.0,0.0,4.4995,4.5203,4.5203,4.5603,4.5834,4.5834,4.5834,4.5834,4.5834,4.568,4.5464,4.5218,4.4825,4.461,4.461,4.461,4.461,4.461,4.461,4.461,4.461,4.461,4.503,0.0,4.6499,4.7221,4.7982,4.8719,4.9001,4.9001,4.9001,4.9001,4.9001,0.0,0.0,0.0,0.0,0.0,0.0,0.0,4.0096,4.0096,4.0096,4.0096,4.0096,4.0096,3.9549,3.9162,3.9152,0.0,0.0,0.0,0.0,0.0,0.0,0.0,0.0,3.6005,3.6005,3.5829,3.5504,3.5504,3.5504,3.5504,3.5504,3.5504,3.5504,3.5504,3.5504,3.5554,3.6554,3.6616,3.6179,3.7735,3.8234,0.0,0.0,0.0,0.0,0.0,0.0,0.0,0.0,0.0,0.0,0.0,0.0,0.0,0.0,0.0,0.0,0.0,4.5094,4.5635,4.5703,0.0,0.0,4.7872,4.8443,0.0,4.8984,4.9001,4.9001,4.9001,4.7836,4.6846,4.6811,4.5604,0.0,0.0,4.461,0.0,0.0,4.461,0.0,4.461,4.461,4.461,4.461,4.461,4.461,4.461,4.461,4.461,4.461,4.5187,4.5218,4.4625,4.461,4.461,4.461,4.461,4.461,4.461,4.461,4.461,0.0,4.461,4.503,4.5841,4.6499,4.7288,4.8064,4.8719,4.9001,4.9001,4.9001,4.9001,4.9001,0.0,0.0,0.0,0.0,0.0,0.0,0.0,0.0,0.0,0.0,4.0096,4.0096,4.0096,3.9549,3.9001,0.0,0.0,0.0,0.0,0.0,0.0,0.0,0.0,0.0,3.6005,3.5863,3.5686,3.5504,3.5504,3.5504,3.5504,3.5504,3.5504,3.5504,3.5504,3.5504,3.5587,3.689,3.7071,3.6677,3.8193,3.8794,0.0,0.0,0.0,0.0,4.1187,4.1931,0.0,0.0,0.0,0.0,0.0,0.0,0.0,0.0,4.4615,4.4615,4.4615,0.0,4.4976,4.5568,4.5974,4.6515,0.0,4.8024,4.8342,4.8883,4.9001,4.9001,4.9001,4.8242,4.7456,4.688,0.0,4.5237,4.4685,0.0,0.0,4.461,4.461,4.461,4.461,4.461,4.461,4.461,4.461,4.461,4.461,4.461,4.461,4.461,4.4764,4.4779,4.461,4.461,4.461,4.461,4.461,4.461,4.461,4.461,4.461,4.461,4.461,4.5348,4.6534,4.6742,4.7572,4.8767,4.894,4.9001,4.9001,4.9001,4.9001,4.9001,0.0,0.0,0.0,0.0,0.0,0.0,0.0,0.0,0.0,0.0,0.0,0.0,0.0,0.0,0.0,0.0,0.0,0.0,0.0,0.0,0.0,0.0,0.0,3.6523,3.6321,3.5911,3.5767,3.591,3.591,3.591,3.591,3.591,3.5765,3.5504,3.5504,3.5651,3.6005,3.7131,3.7413,3.7251,3.8728,0.0,0.0,0.0,0.0,0.0,4.0933,4.1677,0.0,4.3166,4.3927,4.4615,0.0,0.0,0.0,0.0,4.4615,4.4615,4.4615,4.4615,4.4699,4.5094,4.5449,4.5923,4.6718,4.7398,4.799,4.8426,0.0,4.9001,4.9001,4.8418,4.7655,4.6914,4.6182,0.0,0.0,0.0,4.461,4.461,4.461,4.461,0.0,4.461,4.461,4.461,4.461,4.461,4.461,4.461,4.461,4.461,4.461,4.461,4.461,4.461,4.461,4.461,4.461,4.461,4.461,4.461,4.461,4.461,4.4971,4.5733,4.6811,4.7153,4.7967,4.9001,4.9001,4.9001,4.9001,4.9001,4.9001,4.9001,0.0,0.0,0.0,0.0,0.0,0.0,0.0,0.0,0.0,0.0,0.0,0.0,0.0,0.0,0.0,0.0,0.0,0.0,0.0,0.0,0.0,0.0,0.0,3.6981,3.6708,3.6149,3.6023,3.6399,3.6492,3.6492,3.6399,3.6399,3.6085,3.5504,3.5701,3.6037,3.6461,3.7442,3.7793,3.7851,3.9179,0.0,0.0,0.0,0.0,0.0,0.0,0.0,0.0,4.2997,4.3758,4.4445,4.4564,0.0,0.0,0.0,0.0,0.0,4.4615,4.4615,4.4615,4.4615,4.506,4.5568,4.5669,0.0,0.0,0.0,0.0,0.0,0.0,4.8482,0.0,0.0,0.0,0.0,4.4685,4.461,4.461,4.461,4.461,0.0,4.461,4.461,4.461,4.461,4.461,4.461,4.461,4.461,4.461,4.461,4.461,4.461,4.461,4.461,4.461,4.461,4.461,4.4648,4.4746,4.4648,4.4723,4.4955,0.0,0.0,4.7017,4.7655,4.8338,4.9001,4.9001,4.9001,4.9001,4.9001,4.9001,4.9001,0.0,0.0,0.0,0.0,0.0,0.0,0.0,0.0,0.0,0.0,0.0,0.0,0.0,0.0,0.0,0.0,0.0,0.0,0.0,0.0,0.0,3.8539,3.7634,3.6981,3.6708,3.6616,3.6492,3.6399,3.6981,3.6951,3.6399,3.6399,3.6085,3.5569,3.6646,3.6829,3.6523,3.8298,3.8772,3.8446,3.9355,0.0,0.0,0.0,0.0,0.0,0.0,0.0,0.0,4.2219,4.2963,4.3707,4.4395,0.0,0.0,0.0,0.0,0.0,4.4615,4.4615,4.4615,4.4615,4.4699,4.4925,4.5568,4.5889,0.0,0.0,0.0,0.0,0.0,4.8909,4.8593,0.0,0.0,4.5458,0.0,0.0,4.461,4.461,0.0,4.461,4.461,4.461,4.461,4.461,4.461,4.461,4.461,4.461,4.461,4.461,4.461,4.461,4.461,4.461,4.461,4.461,4.461,4.4933,4.5531,4.4896,4.5274,4.6429,0.0,4.6483,4.7754,4.7852,4.8338,4.9001,4.9001,4.9001,4.9001,4.9001,4.9001,4.9001,0.0,0.0,0.0,0.0,0.0,0.0,0.0,0.0,0.0,0.0,0.0,0.0,0.0,0.0,0.0,0.0,0.0,0.0,0.0,0.0,0.0,3.8169,3.7966,3.7764,3.756,3.6906,3.6845,3.7413,3.7735,3.7735,3.7413,3.6723,3.6085,3.5537,3.6461,3.689,3.7011,3.8254,3.8909,3.9179,0.0,0.0,0.0,0.0,0.0,0.0,0.0,0.0,0.0,0.0,4.2472,4.3443,4.3842,0.0,0.0,0.0,0.0,0.0,4.4615,4.4615,4.4615,4.4615,4.4615,4.4699,4.501,4.5415,0.0,0.0,0.0,0.0,0.0,0.0,4.8625,4.7489,0.0,4.5458,4.4685,4.461,4.461,0.0,0.0,4.461,4.461,4.461,4.461,4.461,4.461,4.461,4.461,4.461,4.461,4.461,4.461,4.461,4.461,4.461,4.461,4.461,4.4993,4.5179,4.5104,4.5588,4.5949,4.6218,0.0,4.7272,4.7917,4.8338,4.8688,4.9001,4.9001,4.9001,4.9001,4.9001,4.9001,4.9001,0.0,0.0,0.0,0.0,0.0,0.0,0.0,0.0,0.0,0.0,0.0,0.0,0.0,0.0,0.0,0.0,0.0,0.0,0.0,0.0,3.8282,3.7618,3.8051,3.8222,3.808,3.7265,3.7324,3.8306,3.8306,3.8137,3.7822,3.6723,3.6022,3.5733,3.6352,3.7011,3.7648,3.8266,3.899,3.9677,0.0,0.0,0.0,0.0,0.0,0.0,0.0,0.0,0.0,0.0,0.0,0.0,0.0,0.0,0.0,4.4615,4.4615,4.4615,4.4615,4.4615,4.4615,4.4615,4.4615,4.4615,4.4615,4.5026,4.55,0.0,0.0,0.0,0.0,4.8511,0.0,4.7051,4.6324,4.5624,4.4723,4.461,4.461,4.461,4.461,4.461,4.461,4.461,4.461,4.461,4.461,4.461,4.461,4.461,4.461,4.461,4.461,4.461,4.461,4.461,4.461,4.461,4.5179,4.5311,4.5142,4.6127,4.6534,4.6518,4.7473,4.7999,4.8193,4.8767,4.9001,4.9001,4.9001,4.9001,4.9001,4.9001,4.9001,4.9001,0.0,0.0,0.0,0.0,0.0,0.0,0.0,0.0,0.0,0.0,0.0,0.0,0.0,0.0,0.0,0.0,0.0,0.0,0.0,0.0,3.7793,3.7618,3.7648,3.7589,3.7488,3.7908,3.8193,3.8306,3.8306,3.7706,3.6508,3.5878,3.5861,3.6368,3.7041,3.7677,3.8294,3.8969,3.9415,3.9703,3.9677,0.0,0.0,0.0,0.0,0.0,0.0,0.0,0.0,0.0,0.0,0.0,0.0,0.0,4.4615,4.4615,4.4615,4.4615,4.4615,4.4615,4.4615,4.4615,4.4615,4.4615,4.4615,4.4649,0.0,4.5568,0.0,0.0,0.0,4.8511,4.853,4.7051,4.6742,4.6218,4.4783,0.0,4.461,4.461,4.461,4.461,4.461,4.461,4.461,4.461,4.461,4.461,4.461,4.461,4.461,4.461,4.461,4.461,4.461,4.461,4.461,4.461,4.4648,4.5384,4.6604,4.604,4.6864,4.8736,4.8161,4.8274,4.8923,4.897,4.9001,4.9001,4.9001,4.9001,4.9001,4.9001,4.9001,4.9001,0.0,0.0,0.0,0.0,0.0,0.0,0.0,0.0,0.0,0.0,0.0,0.0,0.0,0.0,0.0,0.0,0.0,0.0,0.0,3.7324,3.7324,3.686,3.7618,3.7822,3.7399,3.7994,3.849,3.8925,3.849,3.7648,3.6399,3.6569,3.6383,3.591,3.734,3.7879,3.7809,3.886,3.9405,3.959,3.9651,3.9807,0.0,0.0,0.0,0.0,0.0,0.0,0.0,0.0,4.1001,4.1745,4.2489,4.325,4.3944,4.4462,4.4615,4.4615,4.4615,4.4615,4.4615,4.4615,4.4615,0.0,0.0,4.4615,4.4682,4.4942,4.5382,0.0,0.0,0.0,4.7962,4.6952,4.6811,4.6288,4.4821,4.461,4.461,4.461,4.461,4.461,4.461,4.461,4.461,4.461,4.461,4.461,4.461,4.461,4.461,4.461,4.461,4.461,4.461,4.461,4.461,4.461,4.5531,4.6005,4.6147,4.7254,4.7967,4.8338,4.8513,4.875,4.9001,4.9001,4.9001,4.9001,4.9001,4.9001,4.9001,4.9001,4.9001,4.9001,0.0,0.0,0.0,0.0,0.0,0.0,0.0,0.0,0.0,0.0,0.0,0.0,0.0,0.0,0.0,0.0,0.0,0.0,3.6399,3.6845,3.6875,3.643,3.7235,3.7618,3.7383,3.7793,3.8322,3.898,3.8124,3.7161,3.6148,3.6585,3.6554,3.6148,3.7221,3.7677,3.7735,3.8395,3.8898,3.9265,3.9339,3.9618,0.0,0.0,0.0,0.0,0.0,0.0,0.0,0.0,4.0578,4.1339,4.2066,4.2811,4.3572,4.435,4.4615,4.4615,4.4615,4.4615,4.4615,4.4615,0.0,0.0,4.4615,4.4615,4.4615,4.4615,4.5179,4.6092,4.7327,0.0,0.0,0.0,4.6811,4.6288,4.4821,4.461,4.461,4.461,4.461,4.461,4.461,4.461,4.461,4.461,4.461,4.461,4.461,4.461,4.461,4.461,4.461,4.461,4.461,4.461,4.4723,4.4955,4.6218,4.6534,4.6127,4.7869,4.8513,4.8274,4.8798,4.9001,4.9001,4.9001,4.9001,4.9001,4.9001,4.9001,4.9001,4.9001,4.9001,4.9001,0.0,0.0,0.0,0.0,0.0,0.0,0.0,0.0,0.0,0.0,0.0,0.0,0.0,0.0,0.0,0.0,0.0,0.0,3.6399,3.6399,3.6399,3.6399,3.6399,3.6723,3.737,3.7399,3.7677,3.8278,3.7011,3.6085,3.5504,3.5504,3.6179,3.734,3.6692,3.7101,3.825,3.7648,3.7892,3.869,3.8718,3.9262,4.007,0.0,0.0,0.0,0.0,0.0,0.0,0.0,4.0578,4.1322,4.2066,4.2811,4.3555,4.435,4.4615,4.4615,4.4615,4.4615,4.4615,4.4615,0.0,0.0,4.4615,4.4615,4.4615,4.4615,4.5179,4.5923,4.665,4.7394,0.0,4.6903,4.6811,4.6288,4.4821,4.461,4.461,4.461,4.461,4.461,4.461,4.461,4.461,4.461,4.461,4.461,4.461,4.461,4.461,4.461,4.461,4.461,4.461,4.461,4.4971,4.5697,4.6464,4.6811,4.6862,4.7572,4.8306,4.9001,4.9001,4.9001,4.9001,4.9001,4.9001,4.9001,4.9001,4.9001,4.9001,4.9001,4.9001,4.9001,0.0,0.0,0.0,0.0,0.0,0.0,0.0,0.0,0.0,0.0,0.0,0.0,0.0,0.0,0.0,0.0,0.0,0.0,3.5765,3.5765,3.5765,3.5765,3.6164,3.6492,3.6692,3.6692,3.6768,3.6951,3.6569,3.6085,3.5504,3.5941,3.6116,3.6085,3.6784,3.7041,3.6981,3.7399,3.7706,3.7978,3.864,3.9082,3.9391,0.0,0.0,0.0,0.0,0.0,0.0,0.0,0.0,0.0,4.1897,4.2439,4.2878,4.4225,4.4615,4.4615,4.4615,4.4615,4.4615,4.4615,0.0,0.0,0.0,4.4615,0.0,0.0,4.4784,4.5145,4.5889,4.6633,0.0,4.6139,4.6453,4.6288,4.4821,4.461,4.461,4.461,4.461,4.461,4.461,4.461,4.461,4.461,4.461,4.461,4.461,4.461,4.461,4.461,4.461,4.461,4.461,4.5104,4.5478,4.5697,4.6967,4.7572,4.7589,4.8338,4.8798,4.9001,4.9001,4.9001,4.9001,4.9001,4.9001,4.9001,4.9001,4.9001,4.9001,4.9001,4.9001,4.9001,0.0,0.0,0.0,0.0,0.0,0.0,0.0,0.0,0.0,0.0,0.0,0.0,0.0,0.0,0.0,0.0,0.0,0.0,0.0,3.5504,3.5587,3.5861,3.5973,3.6053,3.6053,3.6053,3.6053,3.6053,3.6053,3.5861,3.5504,3.5878,3.5973,3.5878,3.6399,3.6538,3.643,3.6662,3.6981,3.7354,3.7937,3.8546,3.9125,0.0,0.0,0.0,0.0,0.0,0.0,0.0,0.0,0.0,4.1491,4.2049,4.2523,4.3758,4.4361,4.4615,4.4615,4.4615,4.4615,4.4615,4.4615,4.4615,4.4615,0.0,0.0,0.0,4.4615,4.4835,4.5568,4.6295,0.0,4.5814,4.6563,4.6622,4.4858,4.4858,4.4933,4.4648,4.461,4.461,4.461,4.461,4.461,4.461,4.461,4.461,4.461,4.461,4.461,4.461,4.461,4.4761,4.503,4.5494,4.6005,4.6588,4.7473,4.8064,4.8338,4.8798,4.9001,4.9001,4.9001,4.9001,4.9001,4.9001,4.9001,4.9001,4.9001,4.9001,4.9001,4.9001,4.9001,4.9001,0.0,0.0,0.0,0.0,0.0,0.0,0.0,0.0,0.0,0.0,0.0,0.0,0.0,0.0,0.0,0.0,0.0,0.0,0.0,0.0,3.5733,3.6274,3.5797,3.5504,3.5504,3.5504,3.5504,3.5504,3.5504,3.5504,3.5504,3.5504,3.5797,3.6274,3.5733,3.5797,3.629,3.5765,3.6022,3.6845,3.6906,3.7793,3.9028,3.9098,0.0,0.0,0.0,0.0,0.0,0.0,0.0,0.0,4.0967,4.1711,4.2439,4.32,4.3961,4.4598,4.4598,4.4626,4.4626,4.4626,4.4598,4.4615,4.4615,4.4615,4.4615,4.4615,0.0,4.4818,4.5483,4.6261,4.6552,4.5732,4.6897,4.7137,4.4933,4.5237,4.5421,4.4685,4.461,4.461,4.461,4.461,4.461,4.461,4.461,4.461,4.461,4.461,4.461,4.461,4.461,4.4955,4.5697,4.5769,4.6518,4.7885,4.795,4.8338,4.9001,4.9001,4.9001,4.9001,4.9001,4.9001,4.9001,4.9001,4.9001,4.9001,4.9001,4.9001,4.9001,4.9001,4.9001,4.9001,0.0,0.0,0.0,0.0,0.0,0.0,0.0,0.0,0.0,0.0,0.0,0.0,0.0,0.0,0.0,0.0,0.0,0.0,0.0,0.0,3.5569,3.5683,3.5569,3.5504,3.5504,3.5504,3.5504,3.5504,3.5504,3.5504,3.5504,3.5504,3.5569,3.5683,3.5569,3.5569,3.5701,3.5829,3.6005,3.6274,3.6982,3.749,3.7825,3.8322,3.8574,0.0,0.0,0.0,0.0,0.0,0.0,0.0,4.0967,4.1711,4.2439,4.32,4.3961,4.4626,4.4737,4.4765,4.4765,4.4765,4.4682,4.4615,4.4615,4.4615,4.4615,4.4615,4.4615,4.4649,4.4818,4.5906,4.6384,4.5065,4.6536,4.7137,4.4933,4.5237,4.5421,4.4685,4.461,4.461,4.461,4.461,4.461,4.461,4.461,4.461,4.461,4.461,4.461,4.461,4.461,4.4955,4.5697,4.6288,4.7001,4.7917,4.8482,4.8861,4.9001,4.9001,4.9001,4.9001,4.9001,4.9001,4.9001,4.9001,4.9001,4.9001,4.9001,4.9001,4.9001,4.9001,4.9001,4.9001,0.0,0.0,0.0,0.0,0.0,0.0,0.0,0.0,0.0,0.0,0.0,0.0,0.0,0.0,0.0,0.0,0.0,0.0,0.0,0.0,3.5504,3.5504,3.5504,3.5504,3.5504,3.5504,3.5504,3.5504,3.5504,3.5504,3.5504,3.5504,3.5504,3.5504,3.5504,3.5522,3.5604,3.5767,3.5958,3.6148,3.6631,3.7058,3.7431,3.7738,3.8039,3.8334,3.8657,0.0,0.0,0.0,0.0,0.0,0.0,0.0,4.2371,4.276,4.369,4.4626,4.4748,4.4803,0.0,4.4886,0.0,4.4709,4.4709,4.4654,4.4615,4.4615,4.4615,4.4615,4.4615,4.5816,4.6424,4.5305,4.6989,4.7655,4.5458,4.5769,4.5933,4.5216,4.4821,4.4761,4.5104,4.4821,4.461,4.461,4.461,4.461,4.461,4.461,4.4746,4.5104,4.5142,4.566,4.6726,4.7137,4.7688,4.845,4.8829,4.9001,4.9001,4.9001,4.9001,4.9001,4.9001,4.9001,4.9001,4.9001,4.9001,4.9001,4.9001,4.9001,4.9001,4.9001,4.9001,4.9001,0.0,0.0,0.0,0.0,0.0,0.0,0.0,0.0,0.0,0.0,0.0,0.0,0.0,0.0,0.0,0.0,0.0,0.0,0.0,0.0,0.0,3.5669,3.5564,3.5504,3.5504,3.5504,3.5504,3.5504,3.5504,3.5504,3.5504,3.5504,3.5504,3.5504,3.5522,3.5604,3.5688,3.5752,3.5911,3.6179,3.6179,3.6569,3.7178,3.7163,3.7504,3.7966,3.808,3.8463,3.8892,3.9001,0.0,0.0,0.0,0.0,4.1984,4.2102,4.3213,4.4456,4.4714,4.4803,4.4858,4.4951,4.4913,0.0,4.4803,4.4709,4.4626,4.4598,4.4615,4.4615,4.4615,4.5686,4.641,4.5792,4.7457,4.814,4.6166,4.6429,4.6569,4.5985,4.5253,4.5067,4.5805,4.52,4.4783,4.4783,4.4685,4.4648,4.4783,4.4783,4.5142,4.5877,4.5913,4.6518,4.7885,4.7885,4.8274,4.9001,4.9001,4.9001,4.9001,4.9001,4.9001,4.9001,4.9001,4.9001,4.9001,4.9001,4.9001,4.9001,4.9001,4.9001,4.9001,4.9001,4.9001,4.9001,0.0,0.0,0.0,0.0,0.0,0.0,0.0,0.0,0.0,0.0,0.0,0.0,0.0,0.0,0.0,0.0,0.0,0.0,3.5504,0.0,0.0,3.6327,3.5804,3.5504,3.5504,3.5504,3.5504,3.5504,3.5504,3.5504,3.5504,3.5504,3.5504,3.5504,3.5621,3.5688,3.572,3.5894,3.6005,3.6037,3.6037,3.6085,3.6179,3.6321,3.6414,3.6585,3.7282,3.7578,3.7725,3.8238,3.8474,0.0,0.0,0.0,4.0685,4.1316,4.2495,4.3752,4.4578,0.0,4.4978,0.0,4.4978,4.4923,0.0,0.0,4.4737,0.0,4.4615,4.4615,4.4615,4.528,4.582,4.5725,4.7038,4.7715,4.6799,4.6742,4.6777,4.6673,4.6005,4.5841,4.6569,4.5985,4.5551,4.5551,4.4955,4.4896,4.5531,4.5551,4.5913,4.6638,4.6638,4.7035,4.7885,4.7885,4.8274,4.9001,4.9001,4.9001,4.9001,4.9001,4.9001,4.9001,4.9001,4.9001,4.9001,4.9001,4.9001,4.9001,4.9001,4.9001,4.9001,4.9001,4.9001,4.9001,0.0,0.0,0.0,0.0,0.0,0.0,0.0,0.0,0.0,0.0,0.0,0.0,0.0,0.0,0.0,3.5326,3.5669,3.5877,3.5877,3.5535,3.5526,3.5923,3.5669,3.5504,3.5504,3.5504,3.5504,3.5504,3.5504,3.5504,3.5504,3.5504,3.5504,3.5504,3.5554,3.5621,3.572,3.5799,3.5894,3.6005,3.6005,3.6005,3.6005,3.6148,3.6196,3.6258,3.6739,3.7118,3.7447,3.7709,3.801,3.8306,3.8306,0.0,0.0,0.0,4.1529,4.3177,4.4444,4.4913,4.5005,0.0,4.5059,4.5005,4.5005,4.4968,4.4913,4.4831,4.4748,4.4682,4.4598,4.5196,4.5853,4.6247,4.7231,4.7802,4.7457,4.7422,4.7422,4.7422,4.6777,4.6604,4.7355,4.6742,4.6324,4.6324,4.602,4.5969,4.6288,4.6324,4.6657,4.7372,4.7422,4.7754,4.8513,4.8513,4.8688,4.9001,4.9001,4.9001,4.9001,4.9001,4.9001,4.9001,4.9001,4.9001,4.9001,4.9001,4.9001,4.9001,4.9001,4.9001,4.9001,4.9001,4.9001,4.9001,0.0,0.0,0.0,0.0,0.0,0.0,0.0,0.0,0.0,0.0,0.0,0.0,0.0,0.0,0.0,0.0,3.5844,3.616,3.6193,3.5585,3.5368,3.5744,3.5594,3.5504,3.5504,3.5504,3.5504,3.5504,3.5504,3.5504,3.5504,3.5504,3.5504,3.5504,3.5522,3.5604,0.0,0.0,0.0,0.0,0.0,3.5926,0.0,3.6148,3.6196,3.6242,3.6414,3.6785,3.7178,3.7178,3.746,3.7838,3.7838,3.8322,0.0,0.0,0.0,4.2508,0.0,0.0,4.4702,4.4811,4.4961,4.5059,0.0,0.0,4.5032,0.0,4.4913,4.4831,4.4737,4.51,4.5652,4.6397,4.7141,4.7686,4.7858,4.7915,4.795,4.8161,4.7522,4.7355,4.8096,4.7522,4.7085,4.7085,4.6914,4.688,4.7085,4.7085,4.7422,4.8161,4.8161,4.845,4.9001,4.9001,4.9001,4.9001,4.9001,4.9001,4.9001,4.9001,4.9001,4.9001,4.9001,4.9001,4.9001,4.9001,4.9001,4.9001,4.9001,4.9001,4.9001,4.9001,4.9001,4.9001,0.0,0.0,0.0,0.0,0.0,0.0,0.0,0.0,0.0,0.0,0.0,0.0,3.5261,3.5778,3.6067,3.5883,3.5912,3.601,3.6193,3.5585,3.5561,3.6402,3.5833,0.0,3.5504,3.5504,3.5504,3.5504,3.5504,3.5504,3.5504,3.5504,3.5504,3.5504,3.5638,3.5688,3.5688,0.0,0.0,0.0,0.0,0.0,0.0,0.0,0.0,0.0,0.0,3.6523,3.6554,3.6554,3.6585,3.66,3.66,3.6998,3.765,0.0,0.0,0.0,0.0,4.3121,0.0,4.3863,4.4541,4.515,0.0,0.0,4.515,4.5032,4.4978,4.4978,4.4978,4.4782,4.4919,4.5652,4.638,4.7107,4.7808,4.7903,4.8161,4.8861,4.8306,4.8129,4.8861,4.8274,4.7852,4.7852,4.7187,4.7119,4.7819,4.7852,4.8161,4.894,4.894,4.897,4.9001,4.9001,4.9001,4.9001,4.9001,4.9001,4.9001,4.9001,4.9001,4.9001,4.9001,4.9001,4.9001,4.9001,4.9001,4.9001,4.9001,4.9001,4.9001,4.9001,4.9001,4.9001,0.0,0.0,0.0,0.0,0.0,0.0,0.0,0.0,0.0,0.0,0.0,0.0,0.0,3.5307,3.5603,3.5288,3.5188,3.5364,3.598,3.5503,3.5398,3.5848,3.5624,3.5504,3.5504,3.5504,3.5504,3.5504,3.5504,3.5504,3.5504,3.5504,3.5504,3.5504,3.5554,3.5572,3.5572,3.5572,0.0,0.0,0.0,0.0,0.0,0.0,0.0,0.0,0.0,0.0,0.0,0.0,0.0,0.0,0.0,0.0,0.0,0.0,0.0,0.0,0.0,0.0,0.0,4.3029,4.3496,4.402,4.4912,4.5167,4.522,4.5264,4.5194,4.514,4.514,4.4978,4.5086,4.5711,4.6457,4.7174,4.7817,4.8312,4.8688,4.897,4.8767,4.8719,4.897,4.8767,4.8625,4.8625,4.8354,4.8322,4.8576,4.8625,4.8736,4.9001,4.9001,4.9001,4.9001,4.9001,4.9001,4.9001,4.9001,4.9001,4.9001,4.9001,4.9001,4.9001,4.9001,4.9001,4.9001,4.9001,4.9001,4.9001,4.9001,4.9001,4.9001,4.9001,4.9001,4.9001,0.0,0.0,0.0,0.0,0.0,0.0,0.0,0.0,0.0,3.2791,0.0,0.0,0.0,0.0,3.5207,3.5091,3.5005,3.5093,3.5467,3.5252,3.518,3.5392,3.5472,3.5504,3.5504,3.528,3.5265,3.5504,3.5265,3.528,3.5504,3.5504,3.5504,3.5504,3.5504,3.5504,0.0,0.0,0.0,3.5504,0.0,0.0,3.572,0.0,0.0,0.0,0.0,0.0,0.0,0.0,0.0,0.0,0.0,0.0,0.0,0.0,0.0,0.0,3.9599,0.0,0.0,0.0,4.2327,4.32,4.4177,4.4773,4.5167,4.5264,4.522,4.5203,4.5203,4.5167,4.523,4.555,4.6209,4.6901,4.7518,4.8233,4.8792,4.8984,4.9001,4.9001,4.9001,4.9001,4.9001,4.9001,4.9001,0.0,4.9001,4.9001,4.9001,4.9001,4.9001,4.9001,4.9001,4.9001,4.9001,4.9001,4.9001,4.9001,4.9001,4.9001,4.9001,4.9001,4.9001,4.9001,4.9001,4.9001,4.9001,4.9001,4.9001,4.9001,4.9001,4.9001,4.9001,4.9001,0.0,0.0,0.0,0.0,0.0,0.0,0.0,0.0,3.2861,3.2182,0.0,0.0,0.0,0.0,0.0,3.5328,3.5378,3.5185,3.4742,3.485,3.5001,3.518,3.5392,3.5504,3.5504,3.4846,3.4863,3.5504,3.4863,3.4846,3.5504,3.5504,3.5504,3.5504,3.5504,3.5504,3.5504,0.0,3.5621,3.5537,0.0,3.5863,3.5752,0.0,0.0,0.0,3.6414,3.6492,0.0,3.6492,0.0,0.0,0.0,0.0,0.0,0.0,0.0,0.0,0.0,0.0,0.0,0.0,0.0,0.0,4.2784,0.0,4.4961,4.5005,4.5096,4.5177,4.5177,4.53,4.5318,4.5032,4.5627,4.6322,4.6895,4.7648,4.8307,4.8914,4.8984,4.9001,4.9001,4.9001,4.9001,4.9001,4.9001,4.9001,4.9001,4.9001,4.9001,4.9001,4.9001,4.9001,4.9001,4.9001,4.9001,4.9001,4.9001,4.9001,4.9001,4.9001,4.9001,4.9001,4.9001,4.9001,4.9001,4.9001,4.9001,4.9001,4.9001,4.9001,4.9001,4.9001,4.9001,4.9001,0.0,0.0,0.0,0.0,0.0,0.0,3.0009,3.0963,3.169,0.0,0.0,0.0,3.2974,3.3501,3.4151,3.4811,3.4893,3.4854,3.4712,3.485,3.5001,3.518,3.5261,3.5359,3.5504,3.5325,3.531,3.5504,3.531,3.5325,3.5504,3.5504,3.5504,0.0,3.5504,3.5504,3.5504,3.5554,0.0,3.5638,3.5636,3.5733,0.0,0.0,0.0,0.0,0.0,3.6274,3.6305,0.0,3.6492,3.6492,0.0,0.0,0.0,0.0,0.0,0.0,3.7094,0.0,0.0,0.0,0.0,0.0,0.0,0.0,4.4238,4.4875,4.5032,4.5059,4.5059,4.5086,4.5103,4.5005,4.5692,4.6257,4.634,4.7471,4.8315,4.834,4.8816,4.9124,4.9001,4.9001,4.9001,0.0,4.9001,4.9001,4.9001,4.9001,4.9001,4.9001,4.9001,4.9001,4.9001,4.9001,4.9001,4.9001,4.9001,4.9001,4.9001,4.9001,4.9001,4.9001,4.9001,4.9001,4.9001,4.9001,4.9001,4.9001,4.9001,4.9001,4.9001,4.9001,4.9001,4.9001,0.0,0.0,0.0,0.0,0.0,2.9272,2.9696,3.0731,3.1468,0.0,0.0,0.0,3.2547,3.3066,3.3541,3.4031,3.4366,3.4563,3.4563,3.4716,3.4883,3.4997,3.5049,3.518,3.5359,3.5108,3.5141,3.5504,3.522,3.522,3.5504,3.5504,3.5504,0.0,0.0,0.0,0.0,0.0,0.0,0.0,3.5668,0.0,0.0,3.5799,3.5863,0.0,0.0,0.0,3.6148,3.632,3.6414,0.0,0.0,0.0,0.0,0.0,0.0,0.0,0.0,0.0,0.0,0.0,0.0,0.0,4.1494,4.2752,4.382,0.0,4.4951,4.5005,4.5086,4.5086,4.5113,4.514,4.549,4.5802,4.5987,4.6806,4.7413,4.7543,4.8209,4.8636,4.8545,4.8832,4.9001,4.9001,4.9001,4.9001,4.9001,4.9001,4.9001,4.9001,4.9001,4.9001,4.9001,4.9001,4.9001,4.9001,4.9001,4.9001,4.9001,4.9001,4.9001,4.9001,4.9001,4.9001,4.9001,4.9001,4.9001,4.9001,4.9001,4.9001,4.9001,4.9001,4.9001,4.9001,0.0,0.0,2.6956,2.699,2.8239,2.9239,2.9274,3.0819,3.1773,0.0,3.2128,3.2761,3.2403,3.2889,3.3178,3.3178,3.3928,3.4414,3.4414,3.4563,3.4664,3.4698,3.4817,3.4968,3.518,3.4619,3.4716,3.5504,3.4891,3.4906,3.5504,3.5504,3.5504,3.5504,0.0,0.0,0.0,0.0,0.0,3.5554,3.5861,3.5797,0.0,0.0,3.5863,3.572,3.5926,3.6005,3.6037,3.6179,3.6352,0.0,0.0,0.0,0.0,0.0,3.6492,0.0,0.0,0.0,0.0,0.0,0.0,0.0,4.0183,4.1834,4.3449,0.0,4.4818,4.4978,4.5113,4.5123,4.5167,4.5291,4.5113,4.5162,4.5733,4.5892,4.6124,4.6641,4.7357,4.7834,4.7872,4.8494,4.8917,4.9001,4.9001,4.9001,4.9001,4.9001,4.9001,4.9001,4.9001,4.9001,4.9001,4.9001,4.9001,4.9001,4.9001,4.9001,4.9001,4.9001,4.9001,4.9001,4.9001,4.9001,4.9001,4.9001,4.9001,4.9001,4.9001,4.9001,4.9001,4.9001,4.9001,4.9001,0.0,0.0,2.6671,2.6956,2.8017,2.8918,2.9239,3.0388,3.1259,3.1381,3.1905,3.2232,3.216,3.2791,3.3178,3.3178,3.3928,3.4414,3.4414,3.4448,3.4515,3.4698,3.4731,3.4883,3.518,3.508,3.516,3.5504,3.537,3.537,3.5504,3.5504,3.5504,0.0,0.0,0.0,0.0,0.0,0.0,3.5671,3.572,0.0,3.5925,3.5973,3.5863,3.5752,3.6053,3.6085,3.6037,3.6352,3.646,3.6492,0.0,0.0,0.0,3.6492,0.0,0.0,0.0,0.0,0.0,0.0,0.0,0.0,3.9353,4.0733,4.2144,0.0,4.4213,4.4682,4.4709,4.4709,4.4737,4.4765,4.4803,4.4964,4.5275,4.5768,4.6073,4.6073,4.6724,4.7361,4.7851,4.8024,4.8376,4.8968,4.9001,4.9001,4.9001,4.9001,4.9001,4.9001,4.9001,4.9001,4.9001,4.9001,4.9001,4.9001,4.9001,4.9001,4.9001,4.9001,4.9001,4.9001,4.9001,4.9001,4.9001,4.9001,4.9001,4.9001,4.9001,4.9001,4.9001,4.9001,4.9001,4.9001,0.0,2.6795,2.7101,2.7274,2.8298,2.9186,2.9367,3.0128,3.0748,3.0947,3.1368,3.1905,3.2577,3.2967,3.3178,3.3178,3.3928,3.4414,3.4414,3.4414,3.4448,3.4563,3.4563,3.4716,3.5034,3.5034,3.518,3.5504,3.5504,3.5504,3.5504,3.5504,3.5504,0.0,0.0,0.0,0.0,0.0,3.5554,3.5621,3.5767,0.0,3.6005,3.6005,3.5863,3.572,3.5879,3.6022,3.6116,3.6289,3.6414,0.0,0.0,3.6492,3.6492,0.0,3.6492,3.6492,0.0,0.0,0.0,3.6492,0.0,0.0,0.0,3.9956,4.1266,4.2791,4.3669,4.4268,4.4708,4.472,4.4737,4.4776,4.472,4.4776,4.4951,4.5248,4.5403,4.5269,4.5903,4.6484,4.6786,4.7141,4.7665,4.8409,4.8798,4.9001,4.9001,4.9001,4.9001,4.9001,4.9001,4.9001,4.9001,4.9001,4.9001,4.9001,4.9001,4.9001,4.9001,4.9001,4.9001,4.9001,4.9001,4.9001,4.9001,4.9001,4.9001,4.9001,4.9001,4.9001,4.9001,4.9001,4.9001,4.9001,2.6675,0.0,2.7718,2.7754,2.8675,2.9461,2.9486,3.001,3.047,3.0735,3.127,3.2015,0.0,0.0,0.0,0.0,0.0,3.4414,3.4414,3.4414,3.4414,3.4414,3.4414,3.4582,3.4902,3.4902,3.5115,3.5504,3.5504,3.5504,3.5504,3.5504,3.5504,0.0,0.0,0.0,0.0,0.0,0.0,3.5554,0.0,3.5941,3.5941,3.6005,3.5894,3.5752,3.5784,3.6006,3.6274,3.6274,3.6383,3.6492,3.6492,3.6492,0.0,0.0,0.0,0.0,0.0,0.0,0.0,0.0,0.0,3.7589,0.0,0.0,0.0,4.2172,0.0,0.0,0.0,0.0,0.0,4.4709,0.0,0.0,0.0,4.4691,0.0,4.4615,4.5139,4.5563,4.5703,4.6363,4.7107,4.7821,4.846,4.8849,4.9001,4.9001,4.9001,4.9001,4.9001,4.9001,4.9001,4.9001,4.9001,4.9001,4.9001,4.9001,4.9001,4.9001,4.9001,4.9001,4.9001,4.9001,4.9001,4.9001,4.9001,4.9001,4.9001,4.9001,4.9001,4.9001,4.9001,4.9001,2.7281,2.7668,0.0,2.8288,2.8819,2.9287,2.9448,3.001,3.0848,3.2019,0.0,0.0,0.0,0.0,0.0,0.0,0.0,0.0,3.4414,0.0,3.4414,3.4414,3.4414,3.4582,3.4902,3.4902,3.5115,3.5504,3.5504,3.5504,3.5504,3.5504,3.5504,0.0,3.5504,0.0,0.0,0.0,3.5572,0.0,3.572,3.572,0.0,3.5941,3.6005,3.5973,3.6116,3.6274,3.646,0.0,3.6492,3.6492,0.0,3.6492,3.6492,3.6492,0.0,0.0,0.0,0.0,0.0,0.0,3.6952,0.0,0.0,0.0,4.0523,4.1223,0.0,0.0,0.0,0.0,0.0,0.0,0.0,0.0,4.3667,4.4268,4.4765,4.4615,4.4777,4.5128,4.5635,4.6363,4.7107,4.7821,4.7973,4.8325,4.8968,4.9001,4.9001,4.9001,4.9001,4.9001,4.9001,4.9001,4.9001,4.9001,4.9001,4.9001,4.9001,4.9001,4.9001,4.9001,4.9001,4.9001,4.9001,4.9001,4.9001,4.9001,4.9001,4.9001,4.9001,4.9001,4.9001,4.9001,2.7871,2.821,0.0,0.0,2.9164,2.9707,3.0233,3.0553,3.1071,0.0,0.0,0.0,0.0,0.0,0.0,0.0,0.0,3.4414,0.0,0.0,0.0,3.4414,3.4414,3.4515,3.4783,3.4868,3.5034,3.5326,3.5439,3.5504,3.5504,3.5504,0.0,0.0,3.5504,0.0,3.5504,0.0,3.5522,0.0,0.0,0.0,0.0,3.5926,3.6068,3.6116,3.6179,3.6352,3.6492,0.0,3.6492,0.0,0.0,0.0,0.0,0.0,0.0,0.0,0.0,0.0,0.0,0.0,0.0,0.0,3.8222,0.0,3.985,0.0,0.0,0.0,0.0,0.0,0.0,0.0,4.4423,0.0,0.0,0.0,4.4765,0.0,0.0,0.0,4.5055,4.572,4.6295,4.6616,4.7022,4.7581,4.8342,4.8376,4.8578,4.8984,4.9001,4.9001,4.9001,4.9001,4.9001,4.9001,4.9001,4.9001,4.9001,4.9001,4.9001,4.9001,4.9001,4.9001,4.9001,4.9001,4.9001,4.9001,4.9001,4.9001,4.9001,4.9001,4.9001,4.9001,2.8649,0.0,0.0,0.0,2.9515,3.0037,3.0796,3.1082,3.1513,3.229,0.0,0.0,3.4264,3.4414,0.0,0.0,3.4414,3.4414,0.0,0.0,3.4414,0.0,0.0,0.0,0.0,3.4835,3.5001,3.518,3.5392,3.5504,3.5504,3.5504,0.0,0.0,0.0,3.5504,3.5504,0.0,3.5587,3.5733,3.5569,3.5718,3.6054,3.6227,3.6352,3.6461,3.6507,3.6723,3.6967,3.68,3.6861,0.0,3.7519,0.0,0.0,0.0,0.0,0.0,3.7666,0.0,0.0,0.0,0.0,0.0,0.0,0.0,0.0,0.0,0.0,0.0,0.0,0.0,0.0,0.0,0.0,4.453,0.0,4.4546,0.0,0.0,0.0,0.0,0.0,4.5077,4.5483,4.5686,4.6194,4.6921,4.7838,4.7889,4.8257,4.8984,4.9001,4.9001,4.9001,4.9001,4.9001,4.9001,4.9001,4.9001,4.9001,4.9001,4.9001,4.9001,4.9001,4.9001,4.9001,4.9001,4.9001,4.9001,4.9001,4.9001,4.9001,4.9001,4.9001,4.9001,2.9741,2.9754,0.0,0.0,0.0,3.0037,3.0796,3.1563,3.2326,3.3073,0.0,0.0,0.0,0.0,0.0,0.0,0.0,3.4414,3.4414,0.0,3.4414,0.0,0.0,3.4481,0.0,0.0,3.5001,3.518,3.5392,3.5504,3.5504,3.5504,0.0,0.0,3.5504,3.5504,3.5504,3.5504,3.5861,3.6321,3.5733,3.6053,3.6875,0.0,3.7071,3.7101,3.7282,0.0,0.0,3.7578,3.7767,0.0,0.0,0.0,0.0,0.0,0.0,0.0,0.0,0.0,0.0,3.8306,0.0,0.0,0.0,0.0,4.0087,0.0,0.0,0.0,0.0,0.0,0.0,0.0,0.0,0.0,0.0,0.0,0.0,0.0,0.0,0.0,0.0,4.4632,4.4925,4.5652,4.572,4.638,4.7804,4.7889,4.8257,4.8984,4.9001,4.9001,4.9001,4.9001,4.9001,4.9001,4.9001,4.9001,4.9001,4.9001,4.9001,4.9001,4.9001,4.9001,4.9001,4.9001,4.9001,4.9001,4.9001,4.9001,4.9001,4.9001,4.9001,4.9001,0.0,0.0,0.0,0.0,0.0,3.0037,3.0796,3.1599,3.2362,0.0,3.3451,0.0,0.0,3.5072,3.5072,0.0,0.0,3.4864,3.4443,3.4414,0.0,0.0,0.0,3.4481,0.0,0.0,0.0,0.0,0.0,3.5504,3.5504,0.0,0.0,0.0,0.0,3.5504,0.0,0.0,0.0,0.0,0.0,3.6845,3.6784,0.0,3.7442,3.7908,3.7982,3.8124,0.0,3.8067,3.8124,3.8379,3.8767,3.8629,3.8379,3.8767,3.8892,3.8892,0.0,0.0,3.948,3.948,0.0,0.0,0.0,0.0,0.0,0.0,0.0,0.0,0.0,0.0,0.0,0.0,0.0,0.0,0.0,0.0,0.0,0.0,0.0,0.0,0.0,0.0,4.4716,4.4942,4.4959,4.5399,4.6397,4.6921,4.7513,4.8257,4.8748,4.9001,4.9001,4.9001,4.9001,4.9001,4.9001,4.9001,4.9001,4.9001,4.9001,4.9001,4.9001,4.9001,4.9001,4.9001,4.9001,4.9001,4.9001,4.9001,4.9001,4.9001,4.9001,4.9001,2.9753,0.0,0.0,0.0,0.0,3.0457,3.1193,3.1988,3.2755,0.0,3.3823,0.0,3.5314,0.0,3.5741,0.0,3.5523,3.5218,3.4777,3.4545,0.0,3.4698,3.4597,0.0,0.0,0.0,0.0,0.0,0.0,3.5504,0.0,0.0,0.0,0.0,0.0,3.5619,3.5797,3.5587,3.6116,0.0,0.0,3.7648,0.0,0.0,3.7892,3.8234,0.0,3.8767,3.8903,3.8684,3.8767,3.9011,3.9391,3.9242,3.9011,3.9418,3.9523,3.9523,3.9523,3.9799,0.0,4.0096,4.0096,0.0,4.0096,0.0,4.0096,0.0,0.0,0.0,0.0,0.0,0.0,0.0,0.0,0.0,0.0,4.4615,0.0,0.0,0.0,0.0,0.0,4.4615,4.4615,4.4615,4.4615,4.4936,4.5669,4.616,4.687,4.7855,4.8376,4.8748,4.9001,4.9001,4.9001,4.9001,4.9001,4.9001,4.9001,4.9001,4.9001,4.9001,4.9001,4.9001,4.9001,4.9001,4.9001,4.9001,4.9001,4.9001,4.9001,4.9001,4.9001,4.9032,0.0,0.0,0.0,0.0,3.0482,0.0,0.0,0.0,3.3485,0.0,3.498,3.5421,3.5494,3.5996,3.6359,3.6359,3.5842,3.5465,3.5392,3.4791,0.0,0.0,3.4698,3.475,3.4902,0.0,0.0,0.0,0.0,0.0,0.0,0.0,0.0,0.0,3.5504,0.0,3.6368,3.5797,3.66,3.8306,3.8351,3.839,3.8502,3.8684,3.8458,3.8145,3.8957,3.9618,4.002,3.9444,3.9644,4.0096,4.0096,4.0096,4.0096,4.0096,4.0096,4.0096,4.0096,4.0096,4.0096,4.0096,4.0096,0.0,0.0,0.0,4.0163,0.0,0.0,0.0,0.0,0.0,0.0,0.0,0.0,0.0,0.0,0.0,0.0,0.0,0.0,0.0,0.0,4.4615,4.4615,4.4615,4.4615,4.4919,0.0,4.5686,4.6346,4.7736,4.7855,4.8257,4.8951,4.8984,4.9001,4.9001,4.9001,4.9001,4.9001,4.9001,4.9001,4.9001,4.9001,4.9001,4.9001,4.9001,4.9001,4.9001,4.9001,4.9032,4.9032,4.9032,4.9063,4.9168,3.0545,3.0758,3.1044,0.0,3.1686,3.2037,0.0,0.0,0.0,0.0,3.529,3.577,3.6707,3.6954,3.7056,3.7056,3.6896,0.0,0.0,0.0,0.0,3.4727,3.4698,3.475,3.4902,3.5115,0.0,3.518,0.0,0.0,3.5504,0.0,0.0,0.0,0.0,0.0,3.6399,3.6227,3.6981,3.8334,3.8827,3.8827,3.8574,0.0,3.9119,3.8772,3.9584,3.9969,4.0087,3.9918,3.9969,4.0096,4.0096,4.0096,4.0096,4.0096,4.0096,4.0096,4.0096,4.0096,4.0096,4.0096,4.0096,4.0248,0.0,0.0,0.0,0.0,0.0,0.0,0.0,0.0,0.0,0.0,0.0,0.0,0.0,0.0,0.0,4.4615,0.0,0.0,4.4615,4.4615,4.4615,4.4615,4.4615,4.4682,4.4886,0.0,4.5872,4.6261,4.7344,4.7973,4.8189,4.8731,4.9001,4.9001,4.9001,4.9001,4.9001,4.9001,4.9001,4.9001,4.9001,4.9001,4.9001,4.9001,4.9001,4.9001,4.9001,4.9273,4.9674,4.9674,4.9913,5.0304,3.1341,0.0,0.0,3.296,0.0,0.0,3.3178,3.3747,0.0,3.5314,3.5886,0.0,3.723,3.7549,3.7694,3.7694,3.7186,0.0,3.5822,0.0,0.0,3.4798,3.4783,3.4916,3.5148,3.5261,0.0,3.5326,0.0,0.0,3.5504,0.0,0.0,0.0,0.0,3.5829,3.643,3.6981,3.7648,3.8379,3.9077,3.9228,0.0,3.9556,3.9592,3.9401,3.9901,4.0096,4.0096,4.0096,4.0096,4.0096,4.0096,4.0096,4.0096,4.0096,4.0096,4.0096,4.0096,3.9859,3.9706,4.0028,3.9859,3.9825,4.0544,4.0967,4.1322,0.0,4.2337,4.2912,0.0,0.0,0.0,0.0,0.0,0.0,0.0,0.0,0.0,0.0,4.4615,0.0,4.4615,4.4615,4.4615,4.4615,4.4615,4.4615,4.4615,0.0,4.5365,4.5703,4.6836,4.7581,4.7889,4.8646,4.9001,4.9001,4.9001,4.9001,4.9001,4.9001,4.9001,4.9001,4.9001,4.9001,4.9001,4.9001,4.9001,4.9001,4.9001,4.9509,5.0237,5.0237,5.0442,5.0751,3.2268,0.0,0.0,0.0,0.0,0.0,0.0,3.4585,0.0,3.5639,0.0,3.7346,3.7418,3.7897,3.8202,3.8202,0.0,3.6402,3.6315,3.5198,3.4655,3.4868,3.4902,3.5115,3.5439,3.5504,3.5504,0.0,0.0,0.0,0.0,0.0,0.0,0.0,0.0,0.0,0.0,3.7822,3.8351,3.849,3.9185,3.9484,3.9537,3.9798,3.9901,3.9952,4.0062,4.0096,4.0096,4.0096,4.0096,4.0096,4.0096,4.0096,4.0096,4.0096,4.0028,3.996,3.996,3.9436,3.9022,3.9774,3.9462,3.9208,4.0062,4.073,4.1238,4.1322,4.2455,4.3392,0.0,0.0,0.0,0.0,0.0,0.0,0.0,0.0,0.0,0.0,0.0,0.0,0.0,4.4615,4.4615,4.4615,4.4615,4.4615,4.4615,0.0,4.4874,4.5551,4.6261,4.7005,4.7767,4.8494,4.89,4.9001,4.9001,4.9001,4.9001,4.9001,4.9001,4.9001,4.9001,4.9001,4.9001,4.9001,4.9001,4.9001,4.9152,4.9826,5.0724,5.0885,5.0938,5.1008,0.0,0.0,0.0,0.0,0.0,3.442,3.4926,3.525,3.5784,3.6823,3.7172,3.7491,3.7984,3.8144,3.8202,3.8202,3.7549,0.0,0.0,0.0,0.0,3.4746,3.4983,3.518,3.5261,3.5439,3.5504,0.0,0.0,0.0,0.0,0.0,0.0,0.0,0.0,0.0,3.7994,3.8193,0.0,3.9148,3.9272,3.9458,3.9677,3.9703,3.9884,4.0087,4.007,4.0096,4.0096,4.0096,4.0096,4.0096,4.0096,4.0096,4.0096,4.0096,3.9673,3.9191,3.9191,3.865,3.8278,3.9005,3.9089,3.9343,4.0696,4.1119,4.1373,4.1982,4.2811,4.3392,4.3392,0.0,0.0,0.0,0.0,0.0,0.0,0.0,0.0,0.0,0.0,4.4615,0.0,0.0,4.4615,4.4615,4.4615,4.4615,0.0,0.0,4.4666,0.0,4.55,4.6244,0.0,0.0,4.8409,4.9001,4.9001,4.9001,4.9001,4.9001,4.9001,4.9001,4.9001,4.9001,4.9001,4.9001,4.9001,4.9077,5.0039,5.0535,5.0832,5.1817,5.2186,5.2209,0.0,0.0,0.0,0.0,0.0,0.0,0.0,3.6373,3.6591,3.723,3.7578,3.7883,3.8173,3.8202,3.8202,3.8202,3.7331,3.67,3.6472,3.5609,3.5072,3.4964,3.5115,3.5261,3.5359,3.5439,3.5504,3.5504,0.0,0.0,3.5504,0.0,0.0,0.0,0.0,3.692,0.0,0.0,0.0,3.9299,3.9395,3.9511,3.9703,3.9781,3.9935,4.0096,4.0096,4.0096,4.0096,4.0096,4.0096,4.0096,4.0096,3.9842,3.9537,3.9537,3.9005,3.843,3.843,3.7889,3.7499,3.8244,3.843,3.8717,3.98,4.0663,4.1305,4.166,4.232,4.2963,4.3325,4.4062,0.0,0.0,0.0,0.0,0.0,0.0,0.0,0.0,0.0,0.0,0.0,0.0,0.0,0.0,0.0,0.0,0.0,0.0,4.4615,0.0,0.0,0.0,4.6786,0.0,4.8291,4.9001,4.9001,4.9001,4.9001,4.9001,4.9001,4.9001,4.9001,4.9001,4.9001,4.9001,4.9001,4.9094,4.9942,5.047,5.0805,5.1701,5.2228,5.2498,0.0,3.4516,0.0,0.0,3.5625,3.6162,3.7157,3.7418,3.7491,3.7491,3.7912,3.8202,3.8202,3.8202,3.8144,3.8028,3.7005,3.6364,3.6409,3.5395,3.4931,3.518,3.5261,3.5326,3.5504,3.5504,3.5504,0.0,0.0,0.0,0.0,0.0,0.0,0.0,0.0,0.0,0.0,0.0,3.8689,3.9299,3.9405,3.9563,3.9703,3.9807,3.9961,4.0079,3.9926,3.9876,3.9842,3.969,3.974,3.9876,3.9876,3.9343,3.8768,3.8768,3.8244,3.7669,3.7669,3.711,3.6721,3.7483,3.7787,3.8091,3.8819,4.002,4.0967,4.0967,4.1542,4.2337,4.3223,4.3927,0.0,0.0,0.0,0.0,0.0,0.0,0.0,0.0,0.0,0.0,4.4615,0.0,0.0,0.0,0.0,0.0,4.4615,0.0,0.0,0.0,0.0,4.5821,4.6549,0.0,4.8054,4.8781,4.8934,4.9001,4.9001,4.9001,4.9001,4.9001,4.9001,4.9001,4.9001,4.9001,4.9094,4.926,4.9844,5.0404,5.0964,5.1576,5.209,5.2498,0.0,0.0,0.0,0.0,0.0,3.7172,3.7288,3.7767,3.813,3.813,3.8159,3.8202,3.8202,3.8202,3.7984,3.7433,3.688,3.6315,3.5736,3.5366,3.5148,3.518,3.5359,3.5472,3.5504,3.5504,3.5504,0.0,0.0,3.519,0.0,0.0,0.0,0.0,0.0,0.0,0.0,3.8535,3.8689,3.9299,3.9299,3.9468,3.9703,3.9703,3.9884,4.0011,3.9326,3.9089,3.8988,3.8328,3.8548,3.9089,3.9089,3.8599,3.8007,3.8007,3.7483,3.6914,3.6914,3.6315,3.591,3.6711,3.7398,3.8091,3.8819,3.9614,4.0214,4.0214,4.0781,4.1745,4.3139,4.3443,4.3758,0.0,0.0,0.0,0.0,0.0,0.0,0.0,0.0,0.0,0.0,4.4615,4.4615,4.4615,4.4615,0.0,0.0,0.0,0.0,4.4615,4.4682,4.5043,4.5805,4.6532,4.7276,4.799,4.8697,4.9001,4.9001,4.9001,4.9001,4.9001,4.9001,4.9001,4.9001,4.9001,4.9303,4.989,5.0415,5.0982,5.1576,5.2186,5.2434,5.2498,0.0,0.0,0.0,0.0,0.0,0.0,0.0,3.8043,3.8202,3.8202,3.8202,3.8202,3.8202,3.8202,3.7993,3.7456,3.6908,3.6441,3.5986,3.547,3.5261,3.5359,3.5472,3.5504,3.5504,3.5504,3.5504,0.0,0.0,0.0,0.0,0.0,0.0,0.0,0.0,3.8238,3.8717,3.8827,3.905,3.9299,3.9299,3.9458,3.9653,3.9218,3.9202,3.9326,3.8599,3.8345,3.8294,3.8007,3.8108,3.8345,3.8345,3.7838,3.7229,3.7229,3.6688,3.6079,3.6079,3.5836,3.5667,3.6011,3.7009,3.799,3.8278,3.9242,4.0096,4.0096,4.0679,4.139,4.1982,4.2784,4.3521,4.3826,0.0,0.0,0.0,0.0,0.0,0.0,0.0,0.0,0.0,4.4615,4.4615,4.4615,0.0,0.0,0.0,0.0,0.0,4.4615,0.0,4.4942,4.5703,4.643,4.7175,4.7889,4.8663,4.9001,4.9001,4.9001,4.9001,4.9001,4.9001,4.9001,4.9001,4.9001,4.9364,4.9959,5.0497,5.1061,5.1669,5.2275,5.2498,5.2498,3.5552,0.0,3.6228,0.0,3.7462,3.7709,3.813,3.8202,3.8202,3.8202,3.8202,3.8202,3.8202,3.8202,3.7943,3.7288,3.6898,3.6457,3.5922,3.5514,3.5359,3.5504,3.5504,0.0,3.5504,3.5504,3.5504,3.5504,3.5683,0.0,0.0,0.0,0.0,0.0,3.8339,3.859,3.8634,3.9094,3.9299,3.9299,3.9299,3.9325,3.9335,3.879,3.8647,3.8582,3.7838,3.7584,3.755,3.7313,3.7205,3.728,3.7499,3.706,3.6434,3.6434,3.6045,3.56,3.56,3.56,3.56,3.56,3.6603,3.7635,3.7855,3.887,3.9842,4.0062,4.0493,4.0933,4.117,4.2066,4.2885,4.3325,0.0,0.0,0.0,4.4615,0.0,0.0,4.4615,4.4615,4.4615,4.4615,4.4615,4.4615,0.0,0.0,0.0,0.0,0.0,0.0,0.0,0.0,4.5365,4.6109,4.6735,4.7246,4.824,4.868,4.8697,4.89,4.9001,4.9001,4.9001,4.9001,4.9001,4.9001,4.9436,5.017,5.0562,5.1183,5.1927,5.2345,5.2498,5.2498,3.617,3.6823,3.7288,3.7302,3.7796,3.8188,3.8202,3.8202,3.8202,3.8202,3.8202,3.8202,3.8202,3.8202,3.7768,3.6695,3.674,3.6355,3.5284,3.5407,3.5504,0.0,0.0,3.5504,3.5504,3.5504,3.5504,3.5504,0.0,0.0,3.5414,0.0,3.7642,3.8322,3.8996,3.9299,3.9299,3.9299,3.9299,3.9299,3.9299,3.9025,3.8623,3.8606,3.8303,3.7821,3.7083,3.6812,3.6694,3.591,3.5633,3.5769,3.6575,3.6265,3.5616,3.5616,3.56,3.56,3.56,3.56,3.56,3.56,3.6214,3.7015,3.7736,3.8481,3.9208,3.996,4.0113,4.035,4.1068,4.1221,4.1711,4.3156,0.0,0.0,0.0,0.0,0.0,4.4615,4.4615,4.4615,4.4615,4.4615,0.0,0.0,0.0,0.0,0.0,0.0,0.0,4.4615,4.4615,0.0,4.4615,4.5331,4.572,4.5754,4.7225,4.7906,4.7922,4.868,4.9001,4.9001,4.9001,4.9001,4.9001,4.9001,4.9669,5.068,5.0697,5.1414,5.2498,5.2498,5.2498,5.2498,3.6867,3.7157,3.7433,3.7839,3.8072,3.824,3.8366,3.8404,3.8427,3.8612,3.8598,3.8598,3.8598,3.8516,3.7989,0.0,3.697,3.6541,0.0,3.5472,3.5504,3.5504,3.5504,3.5504,3.5504,3.591,3.591,3.5504,0.0,0.0,0.0,3.7798,3.8334,3.8996,3.9202,3.9299,3.9299,3.9299,3.9299,3.9265,3.8742,3.8515,3.8345,3.7435,3.7045,3.6932,3.6242,3.5994,3.5943,3.5684,3.56,3.5633,3.591,3.5825,3.56,3.56,3.56,3.56,3.56,3.56,3.56,3.56,3.6197,3.6998,3.7736,3.8853,3.9825,4.0045,4.0096,4.018,4.0417,4.0849,4.1525,4.2489,4.3081,0.0,4.4496,0.0,0.0,0.0,4.4615,4.4615,4.4615,4.4615,0.0,0.0,0.0,0.0,0.0,0.0,0.0,0.0,4.4615,0.0,4.3792,4.506,4.5449,4.4987,4.6447,4.7411,4.7922,4.8663,4.9001,4.9001,4.9001,4.9001,4.9032,4.9436,5.0056,5.0751,5.1139,5.1793,5.2498,5.2498,5.2498,5.2498,3.7462,3.7651,3.7767,3.813,3.8202,3.824,3.8366,3.8441,3.8553,3.8686,3.8745,3.8819,3.8907,3.859,0.0,3.7178,3.7089,3.6643,3.5561,3.5504,3.5504,3.5504,3.5504,3.5587,3.5814,3.6196,0.0,3.6211,3.7251,3.8067,3.8689,3.8689,3.8898,3.9299,3.9299,3.9299,3.9299,3.9299,3.9149,3.8841,3.8394,3.7983,3.7544,3.6716,3.6323,3.6173,3.5746,3.56,3.56,3.56,3.56,3.56,3.56,3.56,3.56,3.56,3.56,3.56,3.56,3.56,3.56,3.56,3.5994,3.662,3.7669,3.8819,3.9774,4.0045,4.0096,4.0096,4.0096,4.0485,4.1119,4.2134,4.2692,4.3369,4.4462,0.0,0.0,0.0,0.0,0.0,0.0,4.4615,4.4615,0.0,0.0,0.0,0.0,0.0,4.4615,4.4615,4.4615,4.435,4.3859,4.4807,4.5043,4.4615,4.5805,4.6921,4.7906,4.8392,4.8748,4.9001,4.9001,4.9138,4.9364,4.9744,5.0366,5.1061,5.1432,5.1975,5.2498,5.2498,5.2498,5.2498,3.7839,3.8072,3.8072,3.8072,3.8072,3.8072,3.8109,3.8273,3.8421,3.8421,3.8591,3.8759,3.8956,3.8436,3.7797,3.7109,0.0,0.0,3.5547,3.5504,3.5504,3.5504,3.5537,3.5829,3.6399,3.6492,3.686,3.7546,3.8051,3.8645,3.9299,3.9299,3.9299,3.9299,3.9299,3.9299,3.9299,3.9299,3.8858,3.8186,3.8162,3.7436,3.6372,3.6346,3.6034,3.56,3.56,3.56,3.56,3.56,3.56,3.56,3.56,3.56,3.56,3.56,3.56,3.56,3.56,3.56,3.56,3.56,3.5633,3.6056,3.7567,3.8464,3.9191,3.996,4.0096,4.0096,4.0096,4.0096,4.0587,4.2049,4.2286,4.2855,4.4395,4.4615,4.4615,0.0,0.0,0.0,4.4615,4.4615,4.4615,0.0,0.0,0.0,0.0,0.0,4.4615,4.4615,4.4615,4.4581,4.453,4.4581,4.4615,4.4615,4.5348,4.643,4.7736,4.7898,4.8352,4.8978,4.909,4.9436,4.9959,4.9988,5.0642,5.1601,5.1644,5.2,5.2498,5.2498,5.2498,5.2498,3.6693,0.0,3.6751,3.6751,3.6873,3.7017,3.7174,3.7352,3.7479,3.7639,3.7694,3.7729,3.7814,3.7664,3.7321,3.6694,3.6634,3.6305,3.5564,3.5504,3.5504,3.5504,3.5941,3.6258,3.6399,3.7354,3.8181,3.886,3.8479,3.8645,3.9299,3.9299,3.9299,3.9299,3.9299,3.9299,3.9299,3.9299,3.8858,3.8162,3.7701,3.6995,3.6202,3.5847,3.5643,3.552,3.5594,3.56,3.56,3.56,3.56,3.56,3.56,3.56,3.56,3.56,3.56,3.56,3.56,3.56,3.56,3.56,3.6062,3.6755,3.7702,3.8464,3.9191,3.996,4.0096,4.0096,4.0096,4.0096,4.0587,4.2049,4.2286,4.2855,4.4395,4.4615,4.4615,0.0,4.4615,4.4615,4.4615,4.4615,4.4615,0.0,0.0,4.4615,4.4615,4.4615,4.4615,4.4615,4.4615,4.4327,4.3707,4.4282,4.4615,4.4615,4.5348,4.5889,4.6261,4.7842,4.869,4.8908,4.9881,5.0387,5.0552,5.1017,5.1373,5.1644,5.2114,5.2387,5.2498,5.2498,5.2498,5.2498,3.6257,3.6387,3.6422,3.6422,3.6564,3.674,3.6845,3.6985,3.7159,3.7248,3.7351,3.7404,3.7404,3.715,3.697,3.6907,3.6661,3.6207,3.5549,3.5765,3.591,3.591,3.6523,3.6981,3.7265,3.7937,3.8618,3.9299,3.8925,3.8925,3.9299,3.9299,3.9299,3.9299,3.9299,3.9299,3.9282,3.9003,3.8465,3.7751,3.7128,3.6467,3.586,3.5597,3.5537,3.5566,3.5577,3.56,3.56,3.56,3.56,3.56,3.56,3.56,3.56,3.56,3.56,3.56,3.56,3.56,3.56,3.56,3.5943,3.6535,3.7652,3.821,3.8802,3.9893,4.0096,4.0096,4.0096,4.0096,4.0587,4.2049,4.2286,4.2855,4.4395,4.4615,4.4615,4.4615,4.4615,4.4615,4.4615,4.4615,4.4615,4.4615,4.4615,0.0,4.4615,4.4615,4.4615,4.4615,4.4615,4.4384,4.3944,4.4395,4.4615,4.4615,4.4993,4.5365,4.5766,4.7466,4.8452,4.8877,5.0138,5.0858,5.1157,5.1457,5.1768,5.2048,5.2364,5.2498,5.2498,5.2498,5.2498,5.2498,3.5959,3.6201,3.6356,3.6356,3.6467,3.6571,3.6571,3.6724,3.6862,3.6862,3.6999,3.712,3.712,3.6656,3.6577,3.7196,3.6791,3.6285,3.581,3.6258,3.6538,3.6538,3.7191,3.778,3.8294,3.8407,3.8745,3.9299,3.9299,3.9299,3.9299,3.9299,3.9299,3.9299,3.9299,3.9249,3.91,3.86,3.7902,3.7103,3.6616,3.6055,3.5492,3.5514,3.5566,3.56,3.56,3.56,3.56,3.56,3.56,3.56,3.56,3.56,3.56,3.56,3.56,3.56,3.56,3.56,3.56,3.56,3.56,3.6005,3.7567,3.7905,3.8328,3.9808,4.0096,4.0096,4.0096,4.0096,4.0587,4.2049,4.2286,4.2855,4.4395,0.0,4.4615,4.4615,4.4615,4.4615,4.4615,4.4615,4.4615,4.4615,4.4615,4.4615,4.4615,4.4615,4.4615,4.4615,4.4615,4.4615,4.4615,4.4615,4.4615,4.4615,4.4615,4.4965,4.5677,4.6969,4.8041,4.8965,5.0233,5.1154,5.1743,5.1743,5.2048,5.2498,5.2498,5.2498,5.2498,5.2498,5.2498,5.2498,3.4942,3.5043,3.5163,3.5163,3.5311,3.5444,3.5444,3.5624,3.5738,3.5738,3.5771,3.5804,3.5804,3.5714,3.5883,3.649,3.6474,3.66,3.7087,3.7191,3.7251,3.7251,3.7822,3.8193,3.8306,3.8843,3.9218,3.9299,3.9299,3.9299,3.9299,3.9299,3.9299,3.9299,3.9299,3.8941,3.8361,3.8384,3.7603,3.637,3.6437,3.6085,3.5514,3.5571,3.5577,3.56,3.56,3.56,3.56,3.56,3.56,3.56,3.56,3.56,3.56,3.56,3.56,3.56,3.56,3.56,3.56,3.56,3.56,3.6005,3.7567,3.7905,3.8328,3.9808,4.0096,4.0096,4.0096,4.0096,4.0587,4.2049,4.2286,4.2855,4.4395,0.0,4.4615,4.4615,4.4615,4.4615,4.4615,4.4615,4.4615,4.4615,4.4615,4.4615,4.4615,4.4615,4.4615,4.4615,4.4615,4.4615,4.4615,4.4615,4.4615,4.4615,4.4615,4.4865,4.5421,4.6743,4.8023,4.929,5.0635,5.1643,5.2364,5.2364,5.241,5.2498,5.2498,5.2498,5.2498,5.2498,5.2498,5.2498,3.4698,3.4883,3.5082,3.5082,3.5213,3.5359,3.5359,3.5439,3.5504,3.5504,3.5504,3.5504,3.5504,3.5504,3.5893,3.6845,3.6936,3.737,3.8355,3.8096,3.7879,3.7879,3.8507,3.8843,3.8843,3.9148,3.9299,3.9299,3.9299,3.9299,3.9299,3.9299,3.9299,3.9282,3.8874,3.8526,3.8162,3.7553,3.6935,3.6291,3.6091,3.583,3.5549,3.5577,3.56,3.56,3.56,3.56,3.56,3.56,3.56,3.56,3.56,3.56,3.56,3.56,3.56,3.56,3.56,3.56,3.56,3.56,3.56,3.6005,3.7567,3.7905,3.8328,3.9808,4.0096,4.0096,4.0096,4.0096,4.0587,4.2049,4.2286,4.2855,4.4395,4.4615,4.4615,4.4615,4.4615,4.4615,4.4615,4.4615,4.4615,4.4615,4.4615,4.4615,4.4615,4.4615,4.4615,4.4615,4.4615,4.4615,4.4615,4.4615,4.472,4.4971,4.4971,4.5232,4.5784,4.7121,4.8306,4.9353,5.0723,5.1756,5.2498,5.2498,5.2498,5.2498,5.2498,5.2498,5.2498,5.2498,5.2498,5.2498,3.4831,3.5063,3.5261,3.5261,3.5392,3.5504,3.5504,3.5504,3.5504,3.5504,3.5504,3.5554,3.5668,3.5716,3.6227,3.7517,3.7605,3.8096,3.9245,3.8816,3.8535,3.8535,3.9023,3.9299,3.9299,3.9299,3.9299,3.9299,3.9299,3.9299,3.9299,3.9299,3.9299,3.9265,3.8553,3.8138,3.7932,3.6851,3.6319,3.6159,3.5745,3.56,3.56,3.56,3.56,3.56,3.56,3.56,3.56,3.56,3.56,3.56,3.56,3.56,3.56,3.56,3.56,3.56,3.56,3.56,3.56,3.56,3.56,3.6005,3.7567,3.7905,3.8328,3.9808,4.0096,4.0096,4.0096,4.0096,4.0587,4.2049,0.0,4.2855,4.4395,4.4615,4.4615,4.4615,4.4615,4.4615,4.4615,4.4615,4.4615,4.4615,4.4615,4.4615,4.4615,4.4615,4.4615,4.4615,4.4615,4.4615,4.4615,4.4615,4.4841,4.5303,4.5303,4.5665,4.6328,4.7352,4.8447,4.9536,5.057,5.1574,5.2498,5.2498,5.2498,5.2498,5.2498,5.2498,5.2498,5.2498,5.2498,5.2498,3.5148,3.5326,3.5472,3.5472,3.5504,3.5504,3.5504,3.5504,3.5504,3.5504,3.5504,3.5701,3.6274,3.6337,3.6845,3.8108,3.8222,3.8535,3.9245,3.9245,3.9245,3.9245,3.9272,3.9299,3.9299,3.9299,3.9299,3.9299,3.9299,3.9299,3.9299,3.9299,3.9299,3.9265,3.8667,3.8019,3.7328,3.6738,3.6118,3.5576,3.5588,3.56,3.56,3.56,3.56,3.56,3.56,3.56,3.56,3.56,3.56,3.56,3.56,3.56,3.56,3.56,3.56,3.56,3.56,3.56,3.56,3.56,3.56,3.6005,3.7567,3.7905,3.8328,3.9808,4.0096,4.0096,4.0096,4.0096,4.0587,4.2049,0.0,0.0,4.4395,4.4615,4.4615,4.4615,4.4615,4.4615,4.4615,4.4615,4.4615,4.4615,4.4615,4.4615,4.4615,4.4615,4.4615,4.4615,4.4615,4.4615,4.4615,4.4615,4.4841,4.5303,4.5303,4.5825,4.684,4.6939,4.8106,5.0067,5.0144,5.1072,5.2498,5.2498,5.2498,5.2498,5.2498,5.2498,5.2498,5.2498,5.2498,5.2498,3.518,3.5359,3.5504,3.5504,3.5504,3.5619,3.599,3.5733,3.5765,3.6585,3.6321,3.629,3.6951,3.7011,3.737,3.8238,3.8306,3.859,3.9272,3.9299,3.9299,3.9299,3.9299,3.9299,3.9299,3.9299,3.9299,3.9299,3.9299,3.9299,3.9299,3.9299,3.9352,3.9355,3.8227,3.762,3.7344,3.6306,3.5744,3.5514,3.5571,3.56,3.56,3.56,3.56,3.56,3.56,3.56,3.56,3.56,3.56,3.56,3.56,3.56,3.56,3.56,3.56,3.56,3.56,3.56,3.56,3.56,3.56,3.6005,3.7567,3.7905,3.8328,3.9808,4.0096,4.0096,4.0096,4.0096,4.0587,4.2049,0.0,4.2855,4.4395,4.4615,4.4615,4.4615,4.4615,4.4615,4.4615,4.4615,4.4615,4.4615,4.4615,4.4615,4.4615,4.4615,4.4615,4.4615,4.4615,4.4615,4.4615,4.4906,4.5294,4.58,4.6123,4.6683,4.7385,4.7385,4.8107,4.9383,4.9872,5.0746,5.1792,5.2281,5.2498,5.2498,5.2498,5.2498,5.2498,5.2498,5.2498,5.2498,3.5294,3.5407,3.5554,3.5733,3.5797,3.599,3.66,3.6352,3.6414,3.728,3.7011,3.6951,3.7618,3.7677,3.7937,3.8562,3.8618,3.8816,3.9272,3.9299,3.9299,3.9299,3.9299,3.9299,3.9299,3.9299,3.9299,3.9299,3.9299,3.9299,3.9299,3.9299,3.9379,3.9435,3.7994,3.7444,3.7474,3.6097,3.552,3.5543,3.5594,3.56,3.56,3.56,3.56,3.56,3.56,3.56,3.56,3.56,3.56,3.56,3.56,3.56,3.56,3.56,3.56,3.56,3.56,3.56,3.56,3.56,3.56,3.6005,3.7567,3.7905,3.8328,3.9808,4.0096,4.0096,4.0096,4.0096,4.0519,4.1745,4.2151,4.2743,4.4028,4.4445,4.4615,4.4615,4.4615,4.4615,4.4615,4.4615,4.4615,4.4615,4.4615,4.4615,4.4615,4.4615,4.4615,4.4615,4.4615,4.4615,4.4615,4.5062,4.5588,4.6116,4.6637,4.7191,4.7717,4.7717,4.8152,4.8927,4.9745,5.0565,5.1357,5.2172,5.2498,5.2498,5.2498,5.2498,5.2498,5.2498,5.2498,5.2498,3.5504,3.5504,3.5683,3.6274,3.6399,3.6631,3.731,3.7399,3.7399,3.7429,3.7399,3.7634,3.825,3.8322,3.859,3.9245,3.9299,3.9299,3.9299,3.9299,3.9299,3.9299,3.9299,3.9299,3.9299,3.9299,3.9299,3.9299,3.9299,3.9299,3.9299,3.9299,3.9379,3.9435,3.8112,3.7567,3.7595,3.6196,3.56,3.56,3.56,3.56,3.56,3.56,3.56,3.56,3.56,3.56,3.56,3.56,3.56,3.56,3.56,3.56,3.56,3.56,3.56,3.56,3.56,3.56,3.56,3.56,3.56,3.6005,3.7567,3.7905,3.8328,3.9808,4.0096,4.0096,4.0096,4.0096,4.035,4.1085,4.1813,4.2557,4.3318,4.4079,4.4615,4.4615,4.4615,4.4615,4.4615,4.4615,4.4615,4.4615,4.4615,4.4615,4.4615,4.4615,4.4615,4.4615,4.4615,4.4615,4.4615,4.5062,4.5588,4.6116,4.6637,4.7191,4.7717,4.7717,4.8152,4.8927,4.9745,5.0565,5.1339,5.2172,5.2498,5.2498,5.2498,5.2498,5.2498,5.2498,5.2498,5.2498,3.5504,3.5504,3.5683,3.6274,3.6399,3.6784,3.7851,3.7677,3.7722,3.8623,3.8339,3.8266,3.8925,3.8996,3.9077,3.9272,3.9299,3.9299,3.9299,3.9299,3.9299,3.9299,3.9299,3.9299,3.9299,3.9299,3.9299,3.9299,3.9299,3.9299,3.9299,3.9299,3.9432,3.9575,3.8146,3.7616,3.7732,3.6259,3.56,3.56,3.56,3.56,3.56,3.56,3.56,3.56,3.56,3.56,3.56,3.56,3.56,3.56,3.56,3.56,3.56,3.56,3.56,3.56,3.56,3.56,3.56,3.56,3.56,3.6005,3.7567,3.7905,3.8328,3.9808,4.0096,4.0096,4.0096,4.0096,4.035,4.1085,4.1813,4.2557,4.3318,4.4079,4.4615,4.4615,4.4615,4.4615,4.4615,4.4615,4.4615,4.4615,4.4615,4.4615,4.4615,4.4615,4.4615,4.4615,4.4615,4.4615,4.4615,4.5062,4.5588,4.6116,4.6637,4.7191,4.7717,4.7717,4.7844,4.8113,4.951,5.0257,5.0565,5.1937,5.2498,5.2498,5.2498,5.2498,5.2498,5.2498,5.2498,5.2498,3.5504,3.5668,3.6053,3.6692,3.6981,3.7501,3.8535,3.8395,3.8439,3.9218,3.8969,3.8843,3.9272,3.9299,3.9299,3.9299,3.9299,3.9299,3.9299,3.9299,3.9299,3.9299,3.9299,3.9299,3.9299,3.9299,3.9299,3.9299,3.9299,3.9325,3.9379,3.9379,3.9511,3.9714,3.8245,3.7689,3.7804,3.6242,3.56,3.56,3.56,3.56,3.56,3.56,3.56,3.56,3.56,3.56,3.56,3.56,3.56,3.56,3.56,3.56,3.56,3.56,3.56,3.56,3.56,3.56,3.56,3.56,3.56,3.6005,3.7567,3.7905,3.8328,3.9808,4.0096,4.0096,4.0096,4.0096,4.0248,4.0679,4.1627,4.2455,4.2912,4.3893,4.4615,4.4615,4.4615,4.4615,4.4615,4.4615,4.4615,4.4615,4.4615,4.4615,4.4615,4.4615,4.4615,4.4615,4.4615,4.4615,4.4615,4.5062,4.5588,4.6098,4.6863,4.7385,4.7717,4.7717,4.7717,4.779,4.9401,5.0112,5.022,5.1828,5.2498,5.2498,5.2498,5.2498,5.2498,5.2498,5.2498,5.2498,3.5415,3.5944,3.66,3.728,3.7908,3.8535,3.9202,3.9299,3.9299,3.9299,3.9299,3.9299,3.9299,3.9299,3.9299,3.9299,3.9299,3.9299,3.9299,3.9299,3.9299,3.9299,3.9299,3.9299,3.9299,3.9299,3.9299,3.9299,3.9299,3.9379,3.9501,3.9528,3.9642,3.9833,3.8353,3.7769,3.7804,3.6242,3.56,3.56,3.56,3.56,3.56,3.56,3.56,3.56,3.56,3.56,3.56,3.56,3.56,3.56,3.56,3.56,3.56,3.56,3.56,3.56,3.56,3.56,3.56,3.56,3.56,3.6005,3.7567,3.7905,3.8328,3.9808,4.0096,4.0096,4.0096,4.0096,4.0096,4.0096,4.1348,4.2286,4.2286,4.3633,4.4615,4.4615,4.4615,4.4615,4.4615,4.4615,4.4615,4.4615,4.4615,4.4615,4.4615,4.4615,4.4615,4.4615,4.4615,4.4626,4.4654,4.5125,4.5614,4.6098,4.7129,4.7657,4.7717,4.7717,4.7717,4.779,4.9401,5.0112,5.022,5.1828,5.2498,5.2498,5.2498,5.2498,5.2498,5.2498,5.2498,5.2498,3.4728,3.5625,3.66,3.728,3.7908,3.8535,3.9202,3.9299,3.9299,3.9299,3.9299,3.9299,3.9299,3.9299,3.9299,3.9299,3.9299,3.9299,3.9299,3.9299,3.9299,3.9299,3.9299,3.9299,3.9299,3.9299,3.9299,3.9299,3.9422,3.9475,3.9501,3.9616,3.9729,3.9833,3.8353,3.7769,3.7804,3.6242,3.56,3.56,3.56,3.56,3.56,3.56,3.56,3.56,3.56,3.56,3.56,3.56,3.56,3.56,3.56,3.56,3.56,3.56,3.56,3.56,3.56,3.56,3.56,3.56,3.56,3.6005,3.7567,3.7905,3.8328,3.9808,4.0096,4.0096,4.0096,4.0096,4.0096,4.0096,4.1348,4.2286,4.2286,4.3633,4.4615,4.4615,4.4615,4.4615,4.4615,4.4615,4.4615,4.4615,4.4615,4.4615,4.4615,4.4615,4.4615,4.4615,4.4615,4.4786,4.5152,4.5665,4.5975,4.6098,4.6753,4.728,4.7717,4.7717,4.7717,4.779,4.9401,5.0112,5.022,5.1828,5.2498,5.2498,5.2498,5.2498,5.2498,5.2498,5.2498,5.2521,3.4506,3.5722,3.6916,3.7336,3.8153,3.8898,3.9245,3.9299,3.9299,3.9299,3.9299,3.9299,3.9299,3.9299,3.9299,3.9299,3.9299,3.9299,3.9299,3.9299,3.9299,3.9299,3.9299,3.9299,3.9299,3.9352,3.9352,3.9299,3.9432,3.9537,3.9616,3.9729,3.9858,3.9935,3.8822,3.8154,3.7838,3.6654,3.596,3.56,3.56,3.56,3.56,3.56,3.56,3.56,3.56,3.5739,3.5937,3.5937,3.5937,3.5893,3.5667,3.56,3.56,3.56,3.5756,3.5937,3.5937,3.5937,3.5937,3.5937,3.605,3.6485,3.7652,3.7905,3.8328,3.9808,4.0096,4.0096,4.0096,4.0096,4.0096,4.0096,4.1348,4.2286,4.2286,4.3633,4.4615,4.4615,4.4615,4.4643,4.4682,4.4626,4.4643,4.4682,4.4626,4.4615,4.4615,4.4615,4.4615,4.4615,4.4814,4.5062,4.5303,4.6091,4.6478,4.6478,4.7039,4.7428,4.7717,4.7717,4.7717,4.779,4.9401,5.0112,5.022,5.1828,5.2498,5.2498,5.2498,5.2498,5.2498,5.2531,5.2599,5.2645,3.4409,3.5938,3.7242,3.7348,3.8442,3.9299,3.9299,3.9299,3.9299,3.9299,3.9299,3.9299,3.9299,3.9299,3.9299,3.9299,3.9299,3.9299,3.9299,3.9325,3.9325,3.9299,3.9352,3.9352,3.9325,3.9475,3.9475,3.9325,3.9484,3.9616,3.9729,3.9858,3.9986,4.0079,3.9326,3.8582,3.7855,3.7187,3.6407,3.56,3.5689,3.5667,3.56,3.56,3.56,3.56,3.56,3.5893,3.6322,3.6367,3.6364,3.6237,3.5827,3.565,3.56,3.56,3.5937,3.6301,3.6301,3.6364,3.6388,3.6388,3.6649,3.7097,3.7838,3.8055,3.8464,3.9825,4.0096,4.0096,4.0096,4.0096,4.0146,4.0282,4.1433,4.2337,4.2472,4.3718,4.4615,4.4615,4.4626,4.4682,4.4776,4.4737,4.4709,4.4831,4.4709,4.4626,4.4626,4.4598,4.4626,4.472,4.5098,4.5381,4.5588,4.6454,4.6954,4.7039,4.749,4.7717,4.7717,4.7717,4.7717,4.779,4.9401,5.0112,5.022,5.1828,5.2498,5.2498,5.2498,5.2498,5.2521,5.2563,5.2676,5.2806,3.4154,3.5856,3.7192,3.7233,3.8379,3.9299,3.9299,3.9299,3.9299,3.9299,3.9299,3.9299,3.9299,3.9299,3.9299,3.9299,3.9299,3.9299,3.9299,3.9422,3.9422,3.9299,3.952,3.9573,3.9475,3.9616,3.9616,3.9475,3.972,3.9849,3.9875,4.0011,4.007,4.0079,3.9326,3.8582,3.7879,3.7461,3.6664,3.5644,3.6045,3.5958,3.56,3.56,3.56,3.56,3.56,3.5893,3.6346,3.6698,3.6577,3.6301,3.6237,3.5937,3.56,3.56,3.5937,3.6301,3.6301,3.6536,3.6821,3.6821,3.7068,3.7502,3.8253,3.8632,3.9089,3.9943,4.0096,4.0096,4.0096,4.0096,4.0316,4.095,4.1745,4.2523,4.3139,4.4028,4.4615,4.4615,4.4709,4.4776,4.4803,4.4886,4.4951,4.4951,4.4858,4.4776,4.4776,4.4654,4.4786,4.5188,4.5267,4.5767,4.6683,4.684,4.7129,4.7575,4.7675,4.7717,4.7717,4.7717,4.7717,4.779,4.9401,5.0112,5.022,5.1828,5.2498,5.2498,5.2498,5.2498,5.2521,5.2563,5.2676,5.2806,3.4155,3.5454,3.6679,3.7112,3.8013,3.8808,3.9249,3.9299,3.9299,3.9299,3.9352,3.9379,3.9299,3.9299,3.9299,3.9299,3.9299,3.9325,3.9422,3.9475,3.9511,3.952,3.9625,3.9677,3.9599,3.9729,3.9798,3.972,3.9849,3.9901,3.9901,4.0037,4.0096,4.0079,3.9326,3.871,3.8202,3.7639,3.6978,3.6333,3.6557,3.6516,3.6308,3.6071,3.6002,3.6023,3.6245,3.66,3.6997,3.7189,3.7132,3.6939,3.6719,3.6346,3.6045,3.6266,3.6474,3.6678,3.69,3.7113,3.7246,3.7246,3.7835,3.8485,3.8812,3.9479,4.0017,4.0078,4.0096,4.0096,4.0096,4.0096,4.035,4.1085,4.1813,4.2557,4.3318,4.4079,4.4615,4.4615,4.4737,4.4831,4.4896,4.4968,4.5032,4.5113,4.4913,4.4803,4.4803,4.4934,4.5089,4.5303,4.5875,4.643,4.6908,4.7191,4.7468,4.7717,4.7717,4.7717,4.7717,4.7717,4.7717,4.779,4.9401,5.0112,5.022,5.1828,5.2498,5.2498,5.2498,5.2526,5.2559,5.2654,5.2806,5.2934]}]]